GFSGBSN_500_rhum_000.txt.gz
RH
7 7 8 8 10 15 21 26 26 14 20 42 47 51 61 54 48 41 53 56 68 73 45 34 37 71 81 78 49 35 52 56 60 56 57 70 58 53 50 41 36 26 26 24 24 22 37
8 8 8 9 10 15 20 28 21 22 48 52 60 64 68 66 46 49 46 52 70 80 49 53 55 62 83 53 66 33 57 70 58 51 62 71 67 68 53 46 36 29 31 23 22 28 27
9 9 9 9 11 16 21 31 15 21 52 64 78 68 76 67 57 49 51 58 68 89 55 70 87 73 69 62 69 41 52 81 56 50 62 85 86 69 57 52 40 29 28 22 23 33 26
9 10 9 9 11 15 22 32 17 27 54 65 78 76 71 74 70 63 56 67 78 84 68 81 95 92 56 76 71 48 51 80 62 52 57 94 87 76 64 55 46 29 26 22 27 31 32
9 10 10 10 11 14 21 32 22 24 47 66 81 78 78 86 89 86 72 78 83 93 78 86 91 95 55 83 64 51 47 72 73 63 61 100 92 78 68 60 48 34 22 25 31 28 29
9 9 10 11 11 14 19 31 32 25 46 80 80 91 86 94 98 97 95 98 95 97 86 90 90 100 92 75 65 49 44 72 84 75 83 94 97 73 67 58 49 36 20 29 36 31 30
9 9 10 11 12 14 16 27 40 18 43 78 91 92 84 96 98 97 100 100 97 96 91 83 88 96 100 93 62 47 45 72 94 79 68 73 84 54 58 63 53 35 25 31 36 29 31
10 8 9 12 13 13 16 25 42 24 38 64 89 92 99 98 98 98 98 99 100 100 100 94 77 80 100 100 65 43 46 66 94 79 80 90 76 76 77 66 51 37 26 32 34 26 33
10 8 9 12 15 14 17 22 40 35 32 55 86 96 98 96 98 99 97 95 100 100 100 97 94 100 98 98 58 40 46 62 96 97 65 71 78 79 73 65 52 38 31 34 36 31 36
11 8 7 12 16 15 16 22 35 48 31 46 63 78 98 98 97 99 98 100 100 100 96 100 86 86 92 83 51 40 44 67 96 90 77 78 90 74 83 69 53 39 48 43 36 33 38
14 9 5 11 15 17 16 24 32 51 26 51 60 90 98 98 97 98 99 99 100 100 100 96 98 100 96 79 42 41 44 73 96 90 82 78 82 96 69 72 55 55 60 53 39 34 35
24 13 6 10 14 18 16 24 30 49 23 56 74 93 100 98 99 98 98 99 100 100 100 98 68 84 89 58 45 43 46 87 100 100 89 96 84 97 86 69 63 66 60 76 46 40 28
34 26 8 9 13 19 17 23 28 45 16 55 82 93 99 97 100 99 99 99 99 100 100 92 76 90 78 40 43 41 52 85 91 86 94 99 89 79 83 78 54 69 82 82 59 40 24
37 28 12 9 13 18 18 20 29 44 15 55 75 90 95 96 98 99 98 98 100 100 100 100 78 99 60 44 45 43 57 90 89 90 77 75 76 72 78 61 52 60 76 58 43 34 28
38 30 18 10 13 18 18 18 28 45 11 56 60 59 80 95 97 99 98 98 99 87 100 91 83 76 56 92 52 53 56 76 78 78 84 66 59 69 67 68 67 90 72 73 55 38 24
41 33 23 12 13 17 19 16 31 47 13 45 49 53 62 95 96 89 98 98 99 98 96 89 66 56 99 100 99 84 56 94 78 79 78 74 64 64 71 66 61 68 96 69 49 40 28
44 37 26 13 13 15 20 15 37 46 26 27 43 51 70 96 92 97 99 98 97 93 85 82 57 74 83 75 79 72 89 79 84 76 81 71 66 63 62 49 46 51 44 43 46 39 32
47 39 28 13 13 14 20 15 40 42 43 14 41 47 77 94 94 97 98 98 98 99 78 76 73 86 100 93 98 97 74 71 87 66 60 58 58 61 53 49 62 59 54 56 48 52 42
49 42 31 14 14 14 21 17 36 43 52 5 41 37 71 94 98 97 98 97 97 98 89 77 58 68 79 77 98 99 100 98 95 85 66 58 52 54 53 57 63 51 52 55 51 54 29
48 45 32 16 14 14 20 20 22 53 56 6 38 42 72 93 96 99 96 98 97 98 100 72 67 68 58 84 95 97 98 94 86 78 73 67 55 53 52 51 56 54 62 73 64 35 13
57 42 31 17 16 15 20 22 16 59 55 26 38 41 70 99 95 99 98 96 99 98 88 69 66 82 70 65 91 90 81 92 96 96 97 98 89 94 80 77 96 94 94 81 19 1 2
48 41 34 18 18 15 19 24 18 46 55 34 43 43 56 93 68 96 93 98 98 100 98 83 85 73 84 83 65 80 100 99 81 92 96 100 99 100 100 100 99 89 70 14 0 0 2
63 42 33 23 21 16 19 26 22 25 57 42 46 49 58 94 75 85 99 96 98 97 97 94 90 92 71 79 79 83 89 92 94 94 98 97 98 98 98 95 68 38 24 16 9 16 34
83 42 31 25 20 16 22 27 26 24 55 49 34 57 64 80 75 80 94 98 94 90 97 98 99 95 98 98 90 76 88 94 100 95 98 100 99 98 75 43 23 14 25 28 30 41 49
77 51 32 25 19 18 26 30 28 30 51 53 27 57 68 83 80 82 80 94 93 89 93 97 98 99 98 96 99 99 96 95 91 93 92 68 59 44 46 46 42 30 32 49 65 70 81
94 77 56 37 25 26 32 32 31 34 52 54 24 59 52 81 94 92 86 87 93 97 92 85 93 95 93 100 94 85 88 97 95 95 96 94 82 62 71 66 65 71 95 100 94 91 96
99 98 76 82 45 35 36 35 33 36 52 56 20 63 55 64 93 97 97 96 95 92 91 84 86 97 93 97 97 98 98 90 94 96 97 86 80 80 85 91 90 82 81 95 87 66 70
98 88 81 87 72 51 42 38 34 37 53 63 16 60 63 59 78 100 97 97 91 70 49 47 36 30 33 49 66 71 62 74 78 81 91 94 89 84 84 83 78 76 72 47 41 37 46
100 96 88 89 79 56 44 41 35 39 56 71 24 35 63 64 60 78 98 99 80 61 43 30 25 26 24 23 21 24 28 31 36 44 40 36 36 44 60 55 58 58 70 67 54 47 35

GFSGBSN_500_rhum_003.txt.gz
RH
4 4 6 6 6 7 8 10 17 28 24 16 26 45 50 58 56 55 55 54 47 41 40 41 43 43 36 56 53 41 31 22 40 39 42 42 72 68 59 54 49 39 29 33 34 20 16
6 5 6 7 7 8 8 10 17 31 26 16 27 48 55 62 59 62 70 66 60 51 48 35 31 35 60 54 42 31 28 18 42 38 50 45 67 85 76 58 52 45 32 38 33 21 18
8 7 7 8 8 8 9 10 16 30 33 18 22 52 56 71 65 74 68 72 69 66 57 42 42 50 57 55 54 43 34 24 42 40 52 50 79 97 76 68 56 45 35 41 31 24 22
9 8 8 8 8 8 9 10 14 25 39 22 34 62 62 69 71 68 61 78 81 85 78 59 53 49 47 86 81 76 98 98 55 47 59 68 81 98 91 73 58 50 41 37 33 28 21
14 10 9 9 9 8 10 10 14 24 39 29 27 66 69 72 72 64 70 91 90 84 83 80 64 60 74 95 99 90 100 94 48 59 68 78 92 98 94 78 61 54 40 33 45 26 20
16 11 10 10 8 8 10 12 14 22 38 37 30 51 74 76 82 83 88 90 89 86 88 89 86 74 81 99 100 77 89 88 54 64 82 78 94 93 91 78 65 54 42 32 45 28 20
16 14 11 10 8 7 10 13 15 20 38 44 35 55 75 74 82 92 98 98 93 90 95 100 96 94 72 100 99 87 88 85 61 67 83 68 85 86 83 80 77 53 48 39 48 26 19
16 17 12 11 8 6 8 12 17 21 36 49 36 54 60 60 85 95 96 99 100 99 93 100 100 96 73 91 95 89 99 87 60 62 96 96 82 96 100 94 80 62 49 46 38 26 21
15 18 13 12 9 5 7 12 18 22 34 53 37 60 68 84 95 97 97 99 100 100 97 100 100 97 79 84 100 96 92 90 57 82 95 68 81 100 97 94 80 65 54 46 35 27 23
14 19 14 12 10 6 6 11 18 20 34 51 36 58 78 90 99 97 99 98 100 100 99 100 100 97 73 79 98 100 86 88 57 92 98 90 100 95 97 96 78 65 55 47 42 30 28
15 19 15 13 13 8 6 10 18 19 34 45 31 59 75 85 97 98 99 99 100 100 100 99 100 94 87 63 91 93 81 70 57 98 96 98 88 85 96 81 82 68 56 47 46 33 29
7 14 14 13 18 14 8 10 17 18 34 35 24 62 78 86 94 98 98 99 100 100 100 100 100 100 90 73 100 100 65 61 74 99 100 100 100 98 94 92 92 67 59 56 50 42 30
29 9 11 20 29 26 12 11 16 17 34 26 19 60 60 72 87 98 100 99 100 100 100 100 100 83 92 91 83 70 53 54 98 98 97 99 88 94 84 88 84 66 63 63 62 47 31
46 33 24 33 34 29 18 13 16 18 29 30 8 58 54 55 92 97 98 97 97 100 100 100 81 96 100 93 82 50 49 54 86 94 99 96 94 80 64 94 71 71 63 67 73 47 39
64 44 39 38 39 32 23 14 16 19 20 46 4 40 48 48 93 96 98 98 98 100 100 97 63 81 100 96 61 45 44 53 82 84 95 83 71 73 84 98 89 89 69 78 52 50 43
75 49 45 44 43 38 29 15 16 19 16 44 8 25 42 55 94 99 98 98 98 99 99 38 54 61 54 63 59 41 44 61 83 89 87 92 70 60 82 92 94 90 81 72 54 56 38
60 52 49 48 46 42 31 16 16 20 15 41 21 16 34 56 86 88 99 98 96 97 86 46 43 40 58 48 44 42 47 68 83 90 88 80 83 71 71 65 71 69 59 62 75 61 38
85 55 52 50 48 45 31 16 16 20 16 35 38 14 32 48 84 94 100 98 97 89 53 44 94 100 78 53 44 44 52 81 88 87 72 81 78 83 73 68 73 64 68 99 68 54 47
96 77 61 54 50 46 32 16 16 20 16 29 51 13 37 60 81 94 96 98 97 84 78 55 57 94 100 100 52 48 64 88 100 92 82 90 81 69 73 74 66 59 51 53 57 44 35
100 74 59 56 54 49 35 18 16 20 18 20 58 14 35 62 89 87 96 98 97 96 96 68 62 70 61 72 91 76 70 93 94 97 96 93 87 77 65 59 63 52 46 49 56 45 42
100 97 95 68 56 52 40 21 18 20 21 16 59 18 37 84 92 94 96 98 98 98 98 79 57 60 79 70 69 78 77 83 83 94 78 66 64 63 60 55 55 56 72 97 78 65 61
99 96 99 87 53 49 41 22 20 21 24 16 53 26 33 82 72 92 98 98 98 98 98 91 64 63 68 73 77 79 98 84 81 78 70 72 78 69 66 61 64 69 60 61 57 65 67
98 99 100 79 54 49 38 23 20 23 27 20 43 32 37 80 76 89 97 98 98 96 97 84 73 69 53 96 93 100 100 100 100 96 82 78 85 92 91 93 81 60 73 85 90 85 43
100 100 87 77 84 45 38 25 21 25 30 22 45 34 43 78 82 83 96 97 98 96 96 94 79 86 82 71 78 98 98 100 99 98 99 92 95 100 100 99 87 85 96 90 83 57 17
98 100 100 73 50 38 33 25 21 27 33 25 46 37 56 95 82 84 95 97 98 96 98 99 95 91 91 90 90 97 91 99 96 99 94 99 98 99 98 95 91 91 81 41 26 26 26
100 100 100 100 62 36 28 22 24 32 36 28 47 43 55 100 92 91 96 97 97 98 93 96 98 94 99 98 97 79 84 92 90 87 89 87 94 94 94 95 90 80 73 68 56 43 57
100 100 100 95 76 39 25 22 27 34 38 33 56 44 54 100 100 97 95 97 97 97 97 97 98 98 98 99 98 99 97 97 95 93 92 92 91 98 98 93 90 92 93 97 97 88 96
100 100 99 100 83 45 28 27 33 37 40 36 62 45 46 100 100 100 98 97 100 98 97 100 99 99 99 97 96 95 99 90 98 100 99 100 97 96 94 83 76 89 78 83 81 74 81
100 100 100 100 89 79 53 35 36 38 40 42 70 54 37 94 100 100 99 97 97 92 76 87 85 86 85 88 94 96 100 92 96 96 98 99 98 100 82 80 86 89 87 84 75 50 42

GFSGBSN_500_rhum_006.txt.gz
RH
10 8 8 6 6 7 7 7 7 9 9 11 19 29 18 21 47 45 43 46 51 52 46 42 46 38 37 33 26 28 29 34 33 31 25 27 33 47 39 54 67 55 46 38 37 33 20
14 10 9 9 8 7 8 7 9 9 10 11 14 35 22 24 48 49 54 59 60 49 37 34 35 36 43 39 37 37 33 32 38 31 30 25 30 44 62 61 68 64 52 43 39 36 26
20 19 13 9 9 9 9 8 9 10 10 11 15 32 28 26 61 57 61 60 53 48 45 47 50 55 52 51 43 40 38 34 35 46 30 31 34 44 67 65 76 66 54 44 43 39 28
19 20 18 14 10 9 9 9 9 10 12 11 14 26 35 24 63 69 67 58 56 62 52 56 65 59 46 56 49 43 37 40 27 41 44 26 31 41 63 70 87 76 58 42 51 41 30
19 20 19 16 14 10 10 9 9 10 12 12 14 25 41 32 41 70 71 67 63 63 62 76 72 61 52 62 63 52 38 38 37 49 36 26 25 40 77 74 85 83 56 45 53 40 34
14 17 19 18 14 12 11 10 8 9 12 13 15 27 44 42 50 57 56 57 68 69 74 86 86 76 68 59 62 67 52 86 85 56 36 27 26 45 77 80 63 77 60 52 50 42 33
48 12 12 14 14 15 12 10 8 9 11 14 15 26 48 43 57 58 70 75 79 73 91 86 89 96 83 78 90 71 77 99 85 72 45 35 39 46 65 64 85 86 76 55 53 46 33
90 51 10 9 13 17 13 11 9 9 10 15 16 26 47 46 71 76 87 88 86 92 92 97 99 100 99 96 95 63 82 76 90 100 95 100 50 57 100 96 97 90 72 56 61 46 30
64 95 27 15 11 18 14 12 10 9 10 15 17 26 42 47 62 85 97 94 94 100 99 97 100 100 100 100 82 75 78 74 90 100 100 98 44 77 95 91 96 92 69 58 70 48 29
64 95 90 10 10 17 15 14 10 10 10 14 18 28 37 36 70 81 84 96 98 100 100 88 100 100 100 100 69 66 86 71 91 100 100 99 93 96 96 92 97 94 71 69 70 52 37
74 75 96 20 10 17 17 14 12 11 11 14 18 31 29 27 64 67 83 97 99 100 97 98 100 100 100 100 77 72 92 75 97 100 100 96 98 98 97 83 97 95 78 80 68 55 41
98 96 98 49 13 17 18 15 12 16 12 14 18 30 18 32 59 62 90 99 100 100 98 100 100 100 96 99 78 95 86 94 100 100 100 100 89 98 90 96 98 93 85 76 64 55 44
83 99 98 67 16 16 17 13 15 28 17 14 18 25 28 17 54 60 98 100 99 99 100 100 100 100 100 94 67 100 91 95 100 97 96 98 98 86 96 98 94 96 88 75 67 56 43
98 100 98 78 28 12 13 12 26 34 21 14 19 24 45 10 46 86 97 99 100 99 100 100 100 100 100 88 92 100 100 100 100 83 100 98 93 86 68 95 86 88 82 71 72 59 44
100 100 99 97 31 18 11 18 34 37 24 15 19 26 45 13 50 99 98 100 98 99 100 94 97 94 98 84 100 100 99 100 86 92 97 98 83 97 79 66 96 88 78 70 72 58 43
98 100 92 98 47 32 25 31 38 40 26 15 19 30 43 18 61 96 98 100 98 99 100 46 49 65 61 81 90 80 87 98 60 96 99 97 99 82 91 91 92 77 82 70 63 58 55
95 100 100 98 69 37 36 35 43 42 24 15 19 26 39 15 55 96 98 99 97 93 52 37 46 53 62 61 60 55 73 72 59 88 97 100 90 72 93 76 82 68 85 76 69 55 46
94 100 100 98 94 44 42 42 46 44 22 15 19 24 41 18 56 96 98 97 98 77 52 30 34 48 53 49 47 45 48 55 62 69 86 98 80 66 55 70 93 98 95 98 77 56 47
100 100 100 97 99 53 46 48 48 44 19 16 19 20 44 26 73 96 98 98 98 85 53 57 44 54 66 45 41 44 48 62 70 79 72 79 84 75 86 85 88 90 81 83 70 55 50
100 100 100 97 91 84 52 51 50 44 19 16 20 21 42 23 85 94 95 98 98 93 51 44 53 61 68 42 43 44 52 74 90 94 96 82 82 82 67 60 65 64 56 72 64 56 54
100 100 100 94 93 87 57 54 51 42 20 17 21 26 48 24 90 99 97 98 98 96 84 55 44 55 58 48 44 44 49 62 85 92 96 92 83 85 75 75 79 76 77 78 65 55 47
100 100 100 94 94 91 71 56 51 44 23 18 24 19 36 26 85 95 98 99 98 98 98 97 77 54 67 55 56 54 53 70 78 67 71 76 78 80 83 72 71 62 65 60 57 56 49
100 100 100 100 97 96 62 56 54 40 23 20 26 20 40 32 56 94 98 98 99 96 98 98 100 68 64 66 79 97 83 96 98 98 90 84 80 87 85 74 67 64 53 56 51 49 51
100 100 100 100 100 99 97 77 47 38 22 20 26 24 38 36 54 98 97 98 97 97 97 98 74 64 74 78 99 97 100 93 92 98 98 97 79 78 78 67 56 53 60 55 55 56 58
100 100 100 100 100 99 100 87 50 34 22 20 27 28 47 31 55 99 91 98 98 99 98 94 76 70 68 85 99 99 98 99 99 97 94 92 86 78 78 95 75 67 66 69 71 84 81
100 100 100 100 100 97 100 60 42 28 23 20 29 31 54 34 67 100 91 98 98 94 96 90 84 85 68 82 85 85 78 78 77 93 94 81 80 97 94 90 81 96 95 87 85 62 44
100 100 100 100 100 100 96 92 40 28 22 23 32 32 60 36 78 100 90 97 98 98 94 94 93 88 83 80 78 77 73 87 82 96 71 76 88 98 95 76 79 97 95 93 83 78 75
100 100 100 100 100 99 91 79 41 25 23 29 36 34 66 36 79 100 94 96 98 97 98 99 94 94 98 97 98 95 82 73 82 97 89 84 77 82 92 94 96 98 90 88 81 79 84
100 100 100 100 100 100 95 76 31 23 28 36 36 36 72 38 79 98 97 95 98 96 99 98 99 99 99 100 98 98 99 97 98 98 100 98 84 96 97 92 98 96 93 97 88 76 74

GFSGBSN_500_rhum_009.txt.gz
RH
18 16 14 12 10 9 9 8 9 9 8 8 9 8 10 9 12 27 20 27 45 49 45 41 39 40 38 33 28 28 24 30 28 25 25 24 25 27 19 24 32 35 38 67 52 41 45
18 18 18 16 12 10 10 9 9 9 9 8 10 9 10 10 12 23 30 26 48 54 54 54 52 46 39 33 40 36 34 32 33 31 28 27 28 34 30 26 31 38 42 66 57 42 42
17 18 19 19 18 15 10 9 9 9 10 8 9 11 10 11 12 19 36 28 58 62 59 53 51 51 44 52 43 42 37 39 37 36 32 33 32 34 36 32 29 41 46 65 58 47 44
52 20 18 19 20 20 18 13 10 10 10 9 8 10 12 13 14 20 37 30 47 68 66 60 55 50 46 54 41 52 49 42 43 40 39 41 40 36 31 36 33 40 47 53 58 53 50
57 56 37 18 19 19 20 18 15 11 11 10 9 9 13 14 14 23 40 36 51 63 57 51 64 60 52 65 58 57 52 46 41 36 33 36 38 36 36 38 52 46 39 38 66 54 56
38 46 56 55 23 17 19 19 17 14 12 10 9 9 13 16 17 24 42 40 47 52 63 78 74 63 64 73 81 74 62 54 46 41 38 34 32 33 40 39 49 36 36 46 64 64 54
7 36 47 56 63 34 13 19 19 16 14 11 9 8 12 18 20 30 41 34 63 79 76 75 66 75 72 80 83 94 80 66 52 36 26 25 36 34 33 36 31 54 61 59 64 69 62
8 5 25 59 62 66 24 12 17 17 16 12 10 9 11 18 20 35 36 34 75 72 72 77 69 74 76 83 86 98 97 86 66 57 52 58 56 37 28 39 49 63 67 72 89 71 62
8 5 4 38 59 69 71 9 12 17 17 14 12 10 10 18 20 35 27 57 67 71 79 64 65 65 85 88 98 92 86 91 72 51 72 96 76 68 38 39 61 63 77 75 91 90 66
4 5 3 11 63 61 79 23 10 16 17 15 13 10 10 18 20 28 28 60 61 75 83 60 75 75 97 100 94 100 100 98 59 67 95 89 96 98 56 41 62 68 85 100 97 91 69
14 52 4 19 63 66 68 71 24 16 17 16 13 12 11 18 19 32 24 56 55 89 92 85 88 96 99 100 100 100 100 73 66 74 92 73 77 85 51 77 70 100 98 93 98 84 71
100 94 14 7 70 72 65 91 13 15 18 17 14 17 14 18 19 39 12 37 63 98 96 98 99 100 100 100 100 100 94 59 76 83 100 100 96 91 29 74 67 83 97 84 97 86 66
100 99 100 100 34 78 58 97 15 14 18 16 15 25 15 18 19 34 18 44 91 98 99 97 100 100 100 100 99 100 66 70 60 84 100 100 98 59 66 98 97 97 85 96 96 82 62
21 82 100 100 53 97 75 97 17 16 16 15 20 30 15 18 20 28 23 81 97 97 100 100 100 100 100 100 100 86 83 82 78 100 100 98 99 61 99 86 96 97 75 94 85 70 63
100 100 100 100 70 95 96 96 20 16 16 16 29 32 16 20 26 25 34 87 98 99 99 100 100 60 100 100 100 62 82 74 90 100 100 96 66 98 81 74 96 76 97 97 89 65 72
100 100 100 100 95 100 96 85 21 18 16 19 34 31 16 19 37 22 32 96 95 100 99 100 72 56 90 89 70 80 66 84 100 100 100 100 70 82 86 98 88 96 97 92 79 67 66
100 99 100 100 100 98 98 66 22 18 17 26 35 31 19 20 41 21 37 98 97 100 98 72 48 42 55 75 77 68 89 95 95 100 99 99 100 97 97 86 98 94 87 91 77 66 85
100 100 100 86 98 100 100 50 23 19 21 31 34 28 18 21 39 26 68 98 98 100 92 41 46 47 67 74 60 82 100 100 89 100 100 99 98 97 71 70 89 98 99 86 78 70 67
89 100 100 82 100 100 100 36 24 20 26 33 35 23 17 20 42 29 85 98 99 100 92 43 37 44 53 65 58 84 66 63 88 98 99 100 99 90 87 70 81 81 86 84 86 70 61
83 70 100 96 100 100 100 37 26 24 30 37 34 20 18 25 40 26 85 98 99 98 94 63 39 37 43 47 50 53 46 58 94 97 100 80 88 99 90 68 69 67 82 77 74 78 66
100 100 100 100 100 100 100 50 32 29 40 38 36 18 21 32 38 32 83 97 98 100 96 48 66 53 40 41 43 41 49 58 74 81 85 88 86 85 71 60 73 84 91 96 84 90 70
100 100 100 100 100 100 98 78 53 37 44 39 31 17 21 30 46 26 86 98 98 99 98 95 59 69 67 41 44 45 44 54 59 64 72 79 76 85 80 87 86 81 87 80 64 64 67
100 100 100 100 100 100 96 100 74 56 51 34 26 18 23 33 43 28 61 98 98 100 98 97 96 68 70 54 44 46 83 98 89 73 82 66 71 81 80 77 75 67 57 55 55 53 59
100 100 98 100 100 98 90 100 79 67 44 35 27 20 27 33 40 28 46 90 97 100 98 98 98 96 82 71 46 46 57 62 68 94 82 96 96 92 78 81 70 51 55 60 57 56 56
100 100 100 100 100 100 100 97 95 87 43 33 26 22 29 28 44 32 47 91 96 100 97 95 98 100 85 78 97 68 62 60 67 86 93 97 100 93 93 89 81 75 74 69 68 68 60
98 100 100 100 96 100 100 100 96 77 36 31 23 25 31 29 44 34 70 96 98 100 97 97 98 75 77 79 99 100 95 77 89 100 99 94 93 89 83 89 84 84 70 65 62 66 68
98 100 100 100 100 100 100 99 91 86 67 29 23 27 31 32 46 42 74 96 98 100 100 98 90 79 72 80 90 98 98 99 91 88 77 74 78 74 82 86 78 92 86 73 68 72 74
100 98 100 100 100 100 100 98 94 99 74 28 30 28 34 34 48 50 76 97 98 100 99 96 94 90 72 77 77 82 88 89 88 88 91 93 95 68 87 96 92 99 98 99 94 85 89
100 100 98 99 100 100 100 100 100 97 44 26 26 35 36 35 55 48 96 92 98 96 100 96 98 98 91 71 75 94 96 88 76 82 82 80 65 84 78 95 99 97 99 96 97 89 88

GFSGBSN_500_rhum_015.txt.gz
RH
20 32 47 56 50 18 19 17 16 14 12 10 9 9 8 8 8 7 6 6 6 7 8 10 11 12 19 23 31 26 39 40 39 33 29 26 22 27 26 29 29 19 17 15 18 15 17
11 27 31 47 57 48 18 19 17 16 13 13 11 9 8 7 8 8 6 6 7 8 8 11 11 15 23 33 33 29 39 53 54 46 38 34 36 34 30 34 30 19 14 10 12 15 13
11 11 29 31 48 58 53 20 19 19 18 16 13 12 10 9 8 8 8 7 6 7 10 12 11 12 32 34 30 42 42 54 54 48 44 40 37 32 28 26 23 18 14 14 12 16 14
26 14 12 21 31 40 57 58 32 18 19 20 19 17 15 11 10 9 9 8 8 6 7 10 11 12 34 32 29 47 47 55 50 48 45 38 39 37 33 32 28 23 19 15 15 16 18
42 39 28 18 14 21 32 49 57 55 34 18 19 20 20 20 17 13 11 11 10 8 6 8 10 14 30 33 28 34 45 58 46 44 36 35 37 36 39 37 34 31 26 22 20 22 21
45 39 38 38 39 31 21 18 28 38 56 56 34 18 20 20 20 18 15 14 12 9 8 7 12 18 27 33 36 48 45 45 42 46 52 55 47 45 43 39 35 40 42 39 28 31 30
10 18 33 34 31 34 38 36 21 18 20 38 57 56 25 19 20 20 18 17 13 11 9 8 8 17 28 31 35 46 49 57 64 63 62 58 44 40 64 64 58 54 47 38 32 30 38
8 7 6 5 4 5 11 26 33 26 16 10 34 50 60 39 17 20 19 16 15 13 10 9 9 18 27 28 33 46 52 58 65 68 65 52 42 75 77 70 60 56 48 38 36 36 42
3 3 2 4 6 6 4 3 5 14 20 12 8 39 56 61 23 15 20 17 18 15 12 9 15 24 30 26 27 68 77 74 70 67 68 55 55 87 81 77 68 59 50 42 36 45 50
2 2 2 2 2 2 3 3 7 4 6 10 9 11 56 63 56 12 18 18 18 15 12 12 15 28 30 39 55 86 75 78 67 74 91 62 82 76 87 72 74 63 53 44 36 44 39
2 2 2 2 2 2 2 23 19 40 59 11 6 7 42 60 78 23 18 19 22 15 15 18 24 28 35 68 72 89 88 82 78 87 95 80 84 100 80 60 99 69 65 38 32 31 47
2 2 2 2 2 2 2 9 99 100 76 8 10 10 39 58 75 25 17 17 28 16 16 22 30 27 36 85 90 91 94 96 95 100 98 94 95 94 77 79 86 66 82 42 26 23 52
5 4 3 3 4 4 4 20 100 100 93 31 36 46 50 53 79 37 18 19 18 17 27 29 29 31 55 94 98 86 75 73 100 100 100 98 100 98 90 84 83 79 67 49 36 40 21
5 3 3 3 7 4 6 5 74 61 62 62 69 78 59 56 80 43 19 22 17 20 37 34 29 42 95 99 78 46 38 46 80 100 100 100 98 98 75 63 61 58 46 39 33 20 25
3 3 6 9 18 4 5 10 81 100 100 100 84 67 55 72 89 26 29 17 21 36 38 30 50 95 95 79 53 45 76 98 98 99 94 87 62 69 61 81 100 70 62 28 25 22 86
3 4 11 56 48 4 5 72 100 100 100 100 100 71 69 100 63 36 35 19 35 38 33 66 96 95 49 58 57 51 64 77 86 83 59 54 94 100 100 97 88 93 79 77 51 37 88
3 7 65 100 77 6 39 100 100 100 100 100 95 67 96 91 30 44 18 34 42 41 77 96 99 53 46 66 66 61 62 58 69 71 60 99 100 100 100 100 70 84 70 56 49 91 80
4 44 61 43 24 99 100 100 100 98 100 91 83 77 99 43 38 20 27 44 49 48 99 98 83 34 27 39 43 56 54 86 90 97 95 99 100 100 92 56 74 97 81 69 91 95 96
4 75 18 33 100 100 100 100 99 100 96 89 95 87 91 34 26 23 38 40 50 79 100 98 38 25 18 16 20 28 34 61 76 98 100 100 91 55 69 83 66 70 88 95 98 97 92
4 16 8 26 99 100 95 98 100 100 100 100 87 92 57 30 21 33 42 38 54 75 99 93 39 37 27 30 35 26 52 77 100 99 100 99 100 70 66 66 68 72 83 98 97 97 97
3 5 5 18 99 100 100 100 100 96 100 97 88 97 32 29 31 42 34 51 45 99 98 87 55 40 42 33 41 61 82 83 80 98 100 99 99 89 78 86 93 98 95 97 98 99 98
3 4 15 25 97 100 98 100 99 100 73 73 87 79 26 35 36 33 31 64 53 99 99 97 54 35 35 36 43 50 68 84 93 97 97 98 98 99 94 99 97 95 98 99 99 99 93
3 4 63 97 100 94 100 100 100 100 100 79 88 26 30 39 53 48 53 66 41 98 99 98 76 38 32 35 28 38 47 68 81 96 96 97 97 100 100 100 81 83 92 70 83 98 98
3 28 99 95 100 88 85 100 100 100 88 98 42 36 40 42 42 54 44 59 41 100 99 98 92 48 39 37 35 32 38 54 69 78 90 87 89 98 96 91 97 96 96 96 94 90 78
4 63 100 100 92 86 86 100 100 100 90 74 34 36 37 41 41 36 44 68 42 100 98 98 98 89 47 49 47 35 33 40 52 73 65 69 77 80 87 98 98 90 78 78 73 74 71
3 25 89 94 100 99 95 100 100 100 94 67 35 36 42 49 38 41 49 58 43 98 98 98 98 94 61 52 47 44 51 39 47 54 57 57 70 66 70 86 97 86 77 74 72 68 61
3 10 99 100 100 99 99 100 100 100 78 42 42 50 60 40 53 39 51 53 70 100 98 99 98 98 94 78 70 51 54 47 66 76 70 73 78 70 67 69 69 77 72 76 84 73 64
2 22 97 100 93 92 98 100 100 100 86 48 60 89 79 36 48 48 59 45 98 99 98 98 98 97 99 87 84 81 54 55 49 59 60 60 69 77 84 87 87 87 85 92 88 84 73
2 26 66 88 90 84 87 99 96 97 95 67 88 94 66 39 54 43 61 50 95 98 98 96 99 99 98 95 92 98 68 66 64 60 63 66 85 83 78 79 81 97 92 91 87 84 83

GFSGBSN_500_rhum_021.txt.gz
RH
36 33 31 29 41 62 25 10 28 47 56 24 22 21 19 16 13 12 11 12 12 11 10 9 8 8 7 8 8 7 11 11 11 15 18 19 25 22 20 20 17 11 12 12 14 18 22
43 39 33 26 24 29 61 20 15 36 54 57 21 22 21 17 14 11 10 11 12 11 10 9 8 7 7 7 7 9 11 11 11 13 17 19 23 27 26 22 22 19 11 11 12 14 15
8 6 7 6 5 5 16 70 31 18 38 55 63 22 22 20 18 15 13 12 11 11 11 10 8 7 6 6 7 7 8 10 12 16 17 18 22 31 36 34 26 25 21 12 11 12 16
16 13 10 10 8 6 5 8 44 44 18 35 55 67 23 21 21 19 17 16 15 14 12 11 10 9 8 7 7 6 7 8 10 15 19 18 19 24 38 47 38 33 25 19 17 20 21
8 6 5 4 4 5 5 5 5 11 45 17 34 48 68 34 20 21 20 19 19 17 15 13 11 11 11 9 8 9 9 8 10 16 20 19 20 21 27 48 53 46 39 35 28 32 30
6 6 6 6 6 5 4 3 3 5 9 56 21 31 40 64 53 22 20 20 20 20 19 19 18 16 13 11 11 11 10 9 8 10 15 25 25 21 26 33 42 56 53 48 41 44 43
10 8 7 6 4 4 3 4 3 2 4 5 55 31 22 37 59 60 36 19 19 20 21 21 18 19 18 15 13 12 12 11 10 9 12 19 20 20 35 44 39 32 47 46 42 34 32
9 8 6 4 4 3 2 2 2 2 2 3 4 46 36 23 27 48 59 55 41 21 18 20 20 20 20 18 16 14 15 14 12 12 14 15 16 26 31 30 35 43 36 31 28 35 33
8 5 4 3 2 2 2 2 2 2 2 2 3 4 31 24 37 22 35 49 60 54 36 20 18 19 20 20 19 20 21 21 17 15 18 21 22 27 26 35 48 54 52 54 49 58 52
6 4 2 1 2 2 2 2 2 2 2 2 3 6 41 9 21 36 21 25 41 57 56 49 34 20 19 19 20 20 25 26 24 21 22 19 21 42 62 61 74 64 73 70 66 64 54
5 2 2 2 4 5 6 5 5 2 2 2 3 17 100 5 5 13 38 24 19 31 45 45 44 40 27 21 22 25 28 30 26 22 21 23 26 52 51 65 77 59 76 71 70 66 55
4 2 4 6 5 3 3 4 4 5 3 2 4 47 100 99 13 6 25 28 22 26 26 32 34 41 38 28 26 27 30 29 21 23 33 46 59 67 76 81 80 80 84 89 90 81 51
2 5 6 4 3 3 6 15 6 5 5 3 56 100 100 100 88 16 12 26 30 24 28 28 35 51 52 40 30 28 26 23 36 60 67 70 67 66 71 83 98 100 100 100 100 94 56
3 7 5 4 44 93 100 100 91 4 5 4 100 95 98 100 83 34 10 22 25 25 25 31 40 48 41 27 26 28 33 74 67 43 34 32 32 35 38 75 100 100 100 100 100 84 82
5 8 4 63 100 100 100 100 100 62 6 4 99 94 80 100 100 78 18 14 21 26 27 40 52 50 28 24 31 65 51 16 16 23 30 32 28 42 57 100 99 98 99 98 100 100 100
6 8 21 98 88 100 77 88 100 58 5 17 93 100 100 100 80 81 56 18 33 40 39 55 53 40 29 34 74 22 11 15 19 19 29 37 31 47 67 85 89 96 100 100 100 91 88
7 7 18 93 81 100 63 100 100 27 22 89 100 100 100 100 100 100 44 37 39 44 62 58 41 28 32 84 34 14 15 25 23 24 29 29 29 42 45 42 61 92 83 79 96 85 59
7 7 7 93 56 96 70 98 78 16 99 100 100 99 100 100 98 70 34 55 52 57 68 49 31 30 64 80 22 17 21 22 37 60 58 64 62 97 99 94 75 58 66 77 78 72 57
6 5 3 57 53 44 64 93 26 87 100 100 100 100 100 100 60 44 36 66 65 86 64 33 32 46 92 82 17 15 18 22 29 54 86 99 90 95 97 100 100 91 89 88 76 64 50
6 4 3 7 20 45 88 97 26 100 100 100 97 99 100 97 75 99 83 66 81 78 39 36 55 74 87 65 16 15 32 34 37 74 88 97 98 100 100 100 100 99 98 100 97 46 33
5 3 4 9 18 85 100 100 39 96 99 98 100 97 96 53 69 84 92 80 100 53 43 73 64 68 92 61 22 16 30 47 74 97 96 99 100 100 100 98 99 100 67 47 25 27 33
4 3 5 20 70 93 86 94 83 92 100 88 100 100 93 95 79 91 100 96 64 52 74 79 68 83 100 61 25 21 37 67 88 100 99 100 99 100 94 93 80 42 21 17 21 30 36
3 3 7 36 67 94 100 99 100 96 93 99 99 100 100 86 80 76 87 99 59 62 80 72 86 92 100 52 29 35 57 71 93 97 100 100 96 100 93 80 62 39 47 35 38 88 98
3 3 12 35 52 76 78 73 85 99 99 100 100 100 82 70 71 93 99 66 54 66 74 72 96 97 100 47 30 38 60 72 57 97 95 99 100 100 97 98 98 97 96 97 98 96 97
2 3 24 45 64 76 69 78 95 99 100 100 98 100 98 93 100 99 76 50 61 71 82 82 100 100 93 71 34 35 56 52 68 96 98 94 97 94 93 96 98 98 98 99 95 98 97
2 3 24 42 45 60 68 69 84 82 84 97 100 100 100 90 99 92 67 72 69 80 90 57 98 100 94 80 34 33 37 39 59 70 81 90 85 78 79 76 79 98 100 98 94 99 98
2 3 21 44 40 49 60 79 88 78 90 88 100 97 93 91 99 87 56 56 83 85 68 70 99 98 91 85 61 28 25 37 55 64 53 67 76 80 74 67 68 66 62 70 78 80 80
2 2 17 29 46 43 66 84 98 98 95 100 100 99 100 100 100 77 73 75 83 85 61 86 97 97 96 90 86 39 24 27 44 54 56 46 52 66 71 71 75 74 72 64 71 58 58
2 2 15 27 46 51 64 90 100 99 98 98 100 100 100 88 74 75 79 82 83 76 77 97 97 98 99 98 65 51 44 37 34 42 54 50 45 63 64 86 77 74 77 72 80 84 86

GFSGBSN_500_rhum_024.txt.gz
RH
36 25 14 10 10 9 9 13 22 32 38 11 39 47 42 22 21 20 18 17 16 16 14 12 12 13 13 11 10 8 9 9 9 10 11 11 12 14 15 16 14 12 16 14 13 14 15
14 16 17 17 15 11 8 7 21 14 38 19 28 40 56 22 23 20 18 16 14 15 15 14 12 12 11 10 8 10 9 8 8 8 9 12 13 13 15 17 18 18 18 19 18 12 12
17 13 10 8 7 6 5 4 4 7 8 37 18 37 50 56 22 22 19 16 12 12 14 13 12 11 10 10 9 9 8 8 9 9 9 10 9 10 13 16 15 19 21 21 22 24 14
12 12 11 10 9 8 7 6 6 5 4 7 34 21 38 54 59 22 22 18 16 12 12 13 12 11 9 8 8 7 7 7 7 7 7 7 7 9 10 14 15 16 18 28 30 24 22
17 14 13 12 11 9 7 5 4 3 4 4 7 31 25 37 67 58 21 21 19 17 15 13 13 12 12 11 10 9 8 8 8 8 8 7 9 11 11 14 18 18 17 28 42 36 25
16 15 13 12 10 8 6 5 4 4 3 3 3 8 38 28 38 67 58 20 21 20 19 18 18 16 13 12 12 11 10 10 11 10 9 8 8 8 9 18 18 20 18 18 24 47 43
16 16 14 10 6 4 3 3 2 2 2 2 3 4 12 44 27 38 66 62 21 21 21 21 18 19 18 16 15 14 14 13 12 12 11 10 10 10 12 15 14 15 17 21 25 29 46
18 16 9 6 4 3 2 2 2 1 2 2 2 3 6 41 43 26 35 62 61 33 19 21 21 20 21 20 20 20 19 17 14 14 13 13 15 14 13 13 14 17 17 20 25 34 35
20 11 6 5 3 2 2 3 3 2 2 2 2 3 3 16 93 45 26 38 53 62 46 24 19 19 21 20 20 20 20 19 19 18 18 19 20 19 18 18 18 20 21 24 26 38 33
14 7 7 4 2 3 4 4 5 6 5 2 2 3 3 46 100 68 41 23 38 48 58 55 41 28 21 19 19 20 19 19 18 19 20 20 22 25 24 21 20 19 24 34 35 43 36
10 9 7 3 4 5 3 3 3 4 6 5 2 3 6 100 100 91 52 32 26 26 46 51 54 49 44 40 34 26 22 20 20 22 24 24 26 28 26 22 22 22 30 42 43 52 52
11 10 5 4 6 5 9 19 14 13 8 7 4 3 3 84 98 100 100 67 31 38 31 35 42 46 48 47 45 42 37 31 27 27 28 28 28 25 24 38 46 60 57 66 76 75 47
13 8 4 6 12 56 84 100 100 100 87 6 6 4 4 67 100 100 95 72 34 34 38 29 25 24 25 26 28 39 45 46 34 29 30 31 31 32 39 47 59 70 88 98 94 83 54
14 8 4 7 61 100 98 91 95 100 91 37 8 4 4 41 100 98 88 74 32 23 36 36 28 24 23 24 36 48 42 29 28 33 32 28 22 15 17 28 41 48 100 100 100 94 84
16 9 4 7 70 100 99 87 99 100 80 59 10 4 41 100 100 100 89 86 27 13 32 35 30 28 27 30 41 41 33 32 30 15 12 10 10 17 25 25 28 26 49 97 100 100 100
16 9 4 6 40 94 77 88 74 100 100 63 6 5 84 100 100 100 95 67 46 13 22 31 28 28 25 37 47 38 36 32 14 22 23 20 18 23 27 25 31 41 58 66 86 100 100
15 8 4 5 11 96 81 58 80 96 100 13 6 98 100 92 96 100 72 64 47 17 24 27 30 27 34 48 38 34 55 18 22 26 25 41 36 32 37 57 68 49 47 65 83 79 93
10 6 4 4 5 36 77 76 99 100 74 10 91 100 100 100 100 100 89 81 47 16 28 46 35 33 49 44 33 66 41 14 19 22 24 39 42 37 64 87 100 100 100 99 52 68 85
8 3 4 4 4 12 50 60 99 100 69 9 84 100 100 99 96 55 57 76 74 35 52 46 42 48 46 36 52 76 20 16 21 24 33 63 70 91 94 99 100 100 100 100 100 96 59
8 2 3 4 12 11 40 91 100 88 16 90 100 100 100 100 63 67 95 83 75 63 57 51 61 52 36 49 94 64 20 15 25 42 65 88 97 100 100 100 100 100 100 100 100 95 67
6 2 3 14 14 23 58 99 100 65 59 100 100 100 98 88 83 98 100 98 79 75 65 70 60 44 54 95 100 58 21 16 31 71 86 96 99 99 99 99 100 99 94 71 47 50 34
4 2 3 19 39 51 60 100 83 99 100 100 99 90 94 87 100 97 99 88 69 74 96 66 52 58 84 100 95 29 20 20 50 98 87 97 99 99 98 98 98 83 30 20 22 18 27
5 2 3 9 70 98 27 56 82 100 94 100 100 100 100 100 99 87 79 94 96 99 83 58 68 82 100 100 79 38 30 42 84 75 99 99 97 94 96 92 86 84 53 75 77 88 95
5 2 3 16 62 84 95 37 83 99 100 96 98 100 97 100 98 95 100 100 100 93 56 59 96 98 100 100 80 35 36 63 57 93 96 100 90 98 98 98 99 100 94 84 95 98 100
4 2 6 20 38 78 52 56 75 87 85 97 100 100 100 100 81 87 100 100 92 59 72 97 99 98 99 100 79 39 40 70 72 96 95 93 89 87 98 98 98 92 99 96 96 85 65
3 2 8 20 37 47 58 55 64 75 86 95 98 100 96 100 86 86 99 98 72 74 99 100 98 100 100 100 89 57 34 57 68 82 94 82 79 76 79 79 86 93 95 100 95 91 93
3 2 6 23 30 42 36 47 65 65 71 85 100 98 100 89 92 100 100 79 81 98 100 100 98 94 100 100 95 79 38 37 59 66 69 76 75 66 57 62 72 65 73 78 91 97 92
3 2 2 22 29 53 61 70 76 78 75 86 100 100 92 98 100 100 99 94 97 100 100 100 80 88 94 95 91 96 57 31 47 61 58 56 61 63 65 66 56 70 69 68 64 65 75
4 2 2 9 20 43 58 70 77 76 68 68 95 98 94 99 99 100 98 93 89 90 97 96 74 99 95 97 92 95 60 33 32 50 57 61 55 54 50 68 72 58 66 75 62 68 81

GFSGBSN_500_rhum_027.txt.gz
RH
25 15 13 11 10 10 8 8 7 8 7 11 33 23 38 12 43 50 31 23 20 19 20 18 15 15 15 15 13 12 13 14 11 9 11 10 11 11 12 14 13 12 14 12 14 15 15
20 14 16 15 12 12 11 10 9 7 6 5 6 30 32 21 36 55 38 23 21 20 19 19 17 17 19 20 18 18 16 15 11 10 9 10 11 9 12 16 12 13 15 16 15 16 16
25 21 20 17 16 16 14 12 10 8 6 6 6 4 24 46 21 51 52 23 23 20 18 18 18 18 18 17 17 14 14 14 11 9 9 9 9 8 11 13 13 12 13 16 19 20 14
29 25 22 20 19 17 15 12 10 8 9 6 6 5 4 16 47 39 55 28 23 21 17 15 17 18 18 18 15 13 13 12 11 10 8 8 8 8 8 9 10 11 12 14 18 19 18
30 27 25 23 18 14 9 7 6 5 4 4 5 5 4 5 43 41 40 72 24 22 18 14 13 16 15 14 13 12 12 12 12 10 8 7 7 7 7 8 9 12 11 12 14 14 16
28 26 23 18 14 11 9 8 6 5 3 2 2 3 4 4 12 60 36 52 68 22 20 17 15 13 14 14 13 11 10 9 9 8 8 8 8 8 7 10 9 8 8 10 11 14 16
31 25 21 17 13 11 9 6 3 2 2 2 2 2 2 3 4 26 51 30 66 42 22 22 18 16 15 14 13 12 12 12 12 12 11 10 9 10 11 10 10 9 10 11 13 12 14
33 27 22 17 13 9 5 2 2 3 4 4 3 2 2 3 10 92 40 42 38 65 36 22 21 20 20 19 16 15 15 15 15 15 13 12 12 13 13 15 16 18 20 21 20 17 17
33 30 24 18 13 9 4 4 4 3 3 4 5 2 3 3 7 97 31 38 34 51 64 31 21 21 21 21 20 20 20 20 19 19 19 19 18 18 18 19 19 20 20 19 19 17 17
37 31 26 19 12 7 4 5 8 7 4 4 5 4 3 4 35 100 76 43 45 35 56 62 36 20 20 21 22 22 21 20 20 19 19 18 19 18 17 16 20 16 20 22 22 21 20
38 32 24 17 14 4 6 26 49 83 100 68 5 6 4 4 68 100 100 91 73 39 41 54 62 44 26 21 20 20 19 19 19 19 19 19 21 22 21 23 24 24 24 26 26 25 23
35 28 21 20 10 5 17 60 58 82 98 100 82 7 6 4 57 100 100 100 100 85 33 38 52 58 54 43 35 37 36 36 41 41 39 35 33 31 30 29 30 31 31 31 34 34 30
32 25 22 21 5 5 56 93 81 76 75 87 79 17 7 4 88 100 100 100 98 64 61 35 35 47 53 54 52 50 48 44 42 36 36 37 36 33 32 31 28 28 29 34 41 43 34
28 21 23 16 3 6 91 100 88 77 100 94 84 46 7 4 57 100 100 100 100 62 59 46 32 29 32 36 38 35 31 26 30 37 36 33 31 23 20 16 12 13 16 17 26 24 33
24 22 22 6 3 5 89 84 67 96 100 98 95 32 5 40 100 100 100 100 92 75 65 54 41 36 27 24 23 24 27 36 37 35 34 32 29 22 14 15 19 22 26 40 30 25 24
22 24 18 3 3 4 67 94 60 78 100 100 89 24 4 98 100 100 100 86 88 90 68 55 39 40 35 30 27 33 34 36 37 35 34 28 19 31 39 23 35 26 30 48 60 51 44
19 24 14 3 4 8 41 82 67 90 100 100 43 7 4 58 100 100 100 100 99 99 65 41 34 37 36 31 26 35 39 35 32 40 24 18 19 28 36 52 58 66 87 91 96 83 85
19 26 12 3 14 10 18 93 80 94 100 100 10 14 100 96 88 98 100 91 91 74 51 25 30 34 30 27 29 33 40 34 43 42 17 20 26 44 52 75 96 100 100 100 100 98 98
19 25 7 3 17 6 14 65 99 92 100 75 7 49 100 100 100 100 100 96 86 93 38 22 21 22 24 27 32 39 36 38 67 20 18 41 58 79 66 86 98 89 100 100 100 100 84
18 20 2 5 22 11 81 100 84 100 39 35 85 100 100 95 98 88 93 100 100 71 55 34 24 24 28 38 40 36 43 84 46 16 28 62 83 90 96 98 98 97 40 75 100 98 96
16 7 2 9 63 51 94 100 99 46 29 89 100 99 100 85 69 95 100 100 100 92 58 48 42 42 42 44 40 36 91 48 19 22 58 82 92 94 99 95 98 100 86 19 28 56 56
12 4 2 11 72 69 99 93 50 24 80 100 100 79 86 84 100 98 100 100 100 90 70 70 61 52 46 44 49 96 60 22 22 35 81 91 92 99 98 98 90 95 64 25 19 22 27
13 5 2 16 55 38 46 59 87 81 96 100 100 88 97 85 100 89 86 83 91 93 100 96 80 56 48 44 89 92 40 22 34 67 93 88 94 98 97 98 99 100 77 98 91 34 35
18 6 2 16 53 19 32 66 97 100 98 98 100 95 91 92 99 100 100 91 89 100 98 91 68 48 56 69 95 85 32 39 62 80 100 93 93 97 98 93 98 99 98 89 96 95 99
19 8 2 11 46 21 39 56 82 83 100 100 100 100 100 97 100 84 71 99 100 100 78 59 49 63 84 81 98 83 36 66 66 92 94 87 82 88 90 96 98 98 100 100 100 88 96
20 12 4 6 33 23 27 70 70 80 89 85 98 100 100 96 93 84 99 98 100 79 76 100 92 88 95 97 98 75 49 61 68 88 90 78 69 70 69 69 82 88 99 100 100 94 97
22 14 6 2 25 39 41 52 56 72 87 94 97 96 92 97 92 85 96 100 88 67 90 100 100 96 99 100 100 88 40 59 54 71 74 72 65 62 64 68 62 76 83 93 95 99 99
22 15 7 2 12 32 41 38 48 65 69 75 80 90 96 100 87 89 96 97 91 81 93 100 98 98 98 99 100 94 46 54 46 64 61 60 59 54 56 64 67 62 62 83 77 82 80
23 17 8 2 2 22 29 34 40 55 67 60 69 93 94 90 88 94 100 94 96 97 96 91 100 95 89 93 99 96 74 40 37 57 58 52 49 48 46 43 63 68 69 64 66 68 81

GFSGBSN_500_rhum_030.txt.gz
RH
40 39 32 28 23 20 18 17 17 15 14 11 9 6 6 17 23 47 24 24 46 35 27 20 18 16 14 14 13 13 11 8 8 11 13 13 9 8 8 9 10 9 12 12 12 12 12
35 41 37 31 28 25 24 22 20 18 16 14 12 8 7 5 15 25 43 16 50 38 26 21 18 18 16 15 16 18 15 12 10 12 11 14 14 10 9 10 10 11 13 14 14 14 12
24 32 35 34 30 28 23 19 16 15 11 8 9 9 9 6 6 13 30 35 40 50 25 23 21 20 19 18 20 24 23 21 16 15 14 15 16 12 11 10 10 9 13 13 17 16 13
19 26 29 29 26 23 19 17 15 13 11 10 9 8 6 8 5 6 13 54 33 55 30 25 22 21 20 20 22 25 30 29 25 20 16 15 15 11 10 10 11 11 12 12 14 14 13
19 20 22 22 20 18 17 14 9 7 5 4 4 6 6 5 6 5 6 42 47 51 42 25 24 20 19 20 22 24 25 26 24 19 16 14 13 11 12 12 10 11 10 10 12 12 10
20 22 23 24 20 14 11 9 7 5 4 3 2 2 2 4 4 5 4 10 59 49 55 25 26 21 17 18 20 22 23 21 21 18 15 14 12 11 12 14 11 8 7 8 9 11 13
21 24 30 28 23 18 13 10 8 5 3 2 2 3 2 2 3 3 15 100 52 40 53 35 27 22 18 16 16 17 18 19 18 17 15 12 10 10 12 10 9 9 8 7 8 9 9
22 27 30 28 22 17 17 14 5 3 4 5 4 3 4 3 2 4 60 97 31 59 51 80 24 24 19 16 15 15 16 15 13 12 11 11 11 12 11 11 11 11 11 10 11 13 13
22 29 31 26 21 22 22 6 3 8 24 47 20 4 6 4 3 4 100 100 100 71 47 92 34 24 22 17 17 17 15 15 14 14 14 13 13 14 14 15 16 17 16 17 17 18 16
22 28 27 20 24 29 10 3 6 41 62 96 100 49 6 6 4 8 96 100 96 100 60 59 68 22 23 21 20 20 19 17 17 17 17 18 18 18 18 18 19 18 19 18 17 16 15
22 26 24 24 28 21 3 3 23 52 62 50 90 100 13 7 4 4 76 100 100 100 82 53 81 40 21 23 21 21 21 20 20 21 20 18 19 19 18 20 20 21 20 21 22 23 22
22 25 21 22 25 4 3 4 38 60 70 100 100 85 63 8 4 35 100 100 100 100 78 56 60 61 35 21 21 21 21 21 21 20 20 23 25 27 35 34 32 30 31 31 30 29 25
22 22 16 15 7 2 4 5 52 84 100 100 95 73 69 9 6 100 100 100 100 100 74 64 40 56 58 42 25 22 21 22 28 32 36 39 36 34 33 30 30 28 26 24 22 18 17
21 18 12 9 2 5 11 7 71 76 95 100 100 94 88 10 5 99 100 100 100 81 87 72 49 37 56 60 54 47 42 45 48 46 43 34 24 28 28 26 26 22 18 15 18 18 16
21 17 10 6 2 18 17 11 62 77 96 100 100 100 89 6 5 72 100 100 100 100 100 84 64 34 39 50 55 53 52 49 45 36 25 23 30 30 27 24 22 28 21 30 24 30 45
20 16 8 3 7 15 6 17 59 74 100 100 87 93 15 4 45 100 100 100 100 100 100 89 75 43 32 33 35 34 33 29 24 26 28 32 32 28 20 19 30 34 45 67 96 93 98
20 17 6 3 27 21 6 35 74 97 100 100 90 55 6 4 90 100 100 100 100 100 100 98 79 64 36 32 28 28 30 32 30 25 31 43 39 20 20 32 55 77 88 87 97 100 100
21 17 5 3 53 21 15 64 77 97 100 85 65 85 4 28 78 100 100 100 100 100 100 81 67 74 49 42 36 34 35 29 26 36 42 47 16 24 58 74 84 84 86 91 100 100 100
21 16 5 6 64 49 57 63 98 100 74 80 19 15 13 97 100 90 93 100 100 100 93 71 49 49 66 40 40 38 35 27 34 37 46 16 26 45 61 76 81 77 90 100 89 51 56
21 17 4 12 60 72 62 63 87 61 100 71 74 54 88 98 84 84 100 100 100 82 63 60 38 34 32 36 38 35 27 30 36 48 18 21 70 66 83 87 88 90 100 100 33 26 42
23 18 4 15 34 46 91 58 28 34 35 91 100 97 86 86 94 99 100 100 100 93 72 44 33 23 27 36 37 28 30 37 44 32 18 38 75 74 100 96 93 100 93 87 29 24 26
22 19 6 10 28 25 23 35 73 99 100 100 100 100 99 97 99 100 100 100 100 100 68 50 32 29 39 40 29 34 40 39 48 20 32 61 81 93 100 94 98 92 80 75 74 63 36
22 21 12 6 28 18 50 69 71 96 100 76 80 60 65 80 100 100 100 94 83 80 53 54 57 57 52 38 38 43 60 61 23 28 63 83 91 99 98 98 98 96 84 80 92 96 69
21 22 18 4 29 28 37 68 100 100 96 68 51 66 66 76 98 92 86 78 79 78 67 70 72 64 51 47 44 58 69 35 32 59 82 88 86 86 97 98 96 98 85 82 98 100 99
19 22 20 8 18 41 35 75 78 100 95 76 81 81 93 73 65 57 67 78 80 100 100 94 85 60 56 53 62 82 62 38 57 80 89 83 76 82 90 87 98 98 99 95 95 91 97
18 20 21 12 2 26 40 60 60 80 94 100 84 90 99 89 65 80 72 74 80 93 90 69 61 57 54 66 78 86 52 48 61 83 91 80 61 70 79 89 74 95 98 98 92 88 97
19 18 20 14 2 17 25 39 43 51 85 98 82 76 66 80 77 69 96 98 87 86 100 100 98 94 83 85 88 88 55 55 63 82 83 70 63 61 52 73 85 79 88 98 99 100 98
21 17 19 15 3 8 27 33 44 52 81 84 76 67 72 75 80 76 94 94 84 81 100 100 93 82 82 95 100 88 49 56 56 64 65 62 58 55 58 58 65 71 78 74 82 96 99
22 17 18 16 3 2 41 27 41 51 81 72 80 75 68 70 73 70 73 87 79 74 98 100 97 88 90 97 99 87 58 51 54 48 57 52 45 43 52 50 50 67 73 65 61 65 79

GFSGBSN_500_rhum_033.txt.gz
RH
10 11 12 14 21 31 33 32 32 30 26 22 19 18 16 12 7 6 19 22 67 53 29 30 32 28 22 20 19 16 15 13 11 8 6 7 8 11 15 12 9 8 10 9 11 12 14
11 12 14 14 15 22 25 27 27 25 24 23 21 19 16 14 12 8 6 15 24 49 18 37 37 32 22 19 18 16 15 13 12 9 7 8 9 12 15 11 9 9 9 10 11 11 12
11 11 12 13 15 17 20 20 22 22 20 19 18 16 15 12 10 11 8 5 16 32 24 36 40 29 23 20 19 18 15 13 13 12 10 13 11 14 14 11 11 10 12 11 11 12 11
10 10 10 11 11 12 12 12 14 13 12 11 12 12 13 12 10 8 10 7 5 11 42 31 45 27 24 21 20 18 17 15 12 14 14 15 16 14 14 11 16 15 12 12 11 13 11
10 10 11 13 15 15 15 13 9 6 4 4 3 4 5 6 7 9 8 6 5 4 45 39 52 29 27 23 22 20 20 18 22 22 23 24 24 21 20 20 18 18 16 14 12 13 10
13 12 13 16 18 19 18 15 15 14 7 5 4 2 2 2 3 4 8 6 5 65 22 50 54 32 28 24 22 22 21 22 29 32 34 32 30 28 24 22 21 19 16 16 14 12 12
14 14 15 17 20 19 17 18 10 7 7 3 3 3 3 3 2 2 4 6 37 79 28 53 56 38 32 26 22 22 23 24 29 32 34 33 27 26 28 20 18 16 17 16 14 12 11
15 15 14 14 19 18 16 6 3 2 3 12 45 51 20 7 4 3 2 5 51 100 94 70 62 77 30 29 22 21 23 24 26 28 27 28 25 32 24 23 21 17 14 12 13 12 10
16 14 14 14 18 16 5 2 3 3 6 54 74 78 100 12 7 4 3 7 100 100 90 71 68 91 29 28 23 20 20 21 24 25 27 26 23 22 20 16 14 12 11 11 11 12 11
18 16 13 14 16 9 3 7 12 6 30 50 61 88 100 94 9 6 4 91 100 100 100 68 66 85 29 28 24 20 17 18 18 20 16 15 18 17 16 15 15 14 14 16 16 15 15
19 16 13 13 14 4 9 21 15 15 58 68 82 92 100 100 59 6 17 100 100 100 97 100 79 75 41 26 24 21 18 17 18 17 17 16 17 19 19 20 19 18 17 17 18 19 16
19 16 14 13 12 6 37 23 11 44 70 97 99 99 100 72 46 6 73 100 100 100 100 98 71 66 62 24 26 24 21 20 20 19 20 19 20 20 19 18 20 23 26 29 25 20 16
20 16 13 14 8 18 25 10 11 56 75 96 100 90 98 68 21 6 93 100 100 100 96 69 65 58 80 26 24 24 23 22 22 22 21 21 19 20 25 34 34 28 24 21 20 20 16
23 19 15 14 7 28 11 6 39 58 71 92 100 95 100 74 7 11 99 100 100 100 92 56 67 56 83 46 22 22 23 22 21 21 22 22 28 35 41 31 26 24 23 26 22 21 16
24 20 16 14 6 25 11 7 41 60 71 99 100 100 92 74 5 24 100 100 100 100 100 90 73 52 79 64 38 23 21 21 23 26 33 41 42 41 28 28 28 25 24 21 20 27 29
26 22 16 13 10 26 19 40 56 77 100 100 92 100 91 16 4 67 100 100 99 93 98 100 87 56 43 64 58 56 52 46 45 46 47 44 35 28 31 31 26 20 18 21 36 37 41
28 23 18 12 13 32 53 48 58 97 81 76 90 85 65 14 21 96 100 100 100 100 100 100 94 78 42 45 57 60 57 53 51 48 38 29 27 32 35 24 18 21 40 58 65 71 71
30 23 19 12 11 24 90 90 86 84 67 100 82 95 21 28 96 99 100 94 96 100 100 100 82 77 41 37 46 46 45 41 36 32 30 28 30 41 20 20 36 49 62 74 66 82 79
32 25 19 12 13 13 16 34 45 85 100 82 98 71 11 56 98 100 100 95 99 99 100 98 88 95 48 41 37 35 32 34 33 29 26 32 40 22 24 46 59 60 81 79 88 90 83
35 28 22 12 18 25 35 18 36 60 99 51 33 6 13 90 100 100 100 100 96 100 97 88 78 78 79 49 46 45 41 38 31 25 30 43 26 25 57 73 67 81 89 100 100 92 99
37 31 24 14 26 34 52 81 99 97 93 74 69 41 47 100 82 82 92 100 100 100 85 72 62 59 65 73 67 47 42 34 25 31 44 33 22 40 78 80 91 100 93 100 97 93 87
39 33 25 17 26 45 39 40 53 77 100 100 99 87 89 87 76 83 100 100 100 95 76 54 56 51 52 48 46 38 35 25 30 41 40 18 35 74 100 94 97 91 78 76 80 88 100
42 34 26 21 12 30 64 42 35 48 53 80 85 100 97 89 96 100 100 98 90 77 62 52 42 49 41 38 31 28 24 25 39 44 22 31 75 98 100 100 100 80 73 76 77 94 82
50 36 26 22 9 24 41 70 40 42 46 58 57 65 66 66 71 77 61 72 68 62 66 54 37 42 41 33 24 22 31 37 47 27 31 71 94 99 99 99 94 85 87 74 75 82 87
51 39 24 20 20 6 28 67 50 39 39 44 41 50 72 70 63 57 54 57 63 57 61 42 40 48 42 35 29 42 42 46 46 24 66 84 93 92 85 93 93 85 89 83 94 92 90
48 40 24 18 21 12 16 32 49 74 55 44 59 53 63 51 43 42 51 61 68 77 66 66 71 49 51 46 48 44 44 56 26 53 87 90 91 84 75 68 61 86 87 85 83 88 90
46 39 25 18 20 14 4 35 56 80 82 76 39 62 55 50 50 64 62 71 79 93 97 80 69 62 55 52 57 57 62 49 38 57 86 90 84 84 76 76 62 60 57 67 87 84 97
45 39 25 20 19 15 4 18 46 56 54 86 73 45 57 66 56 61 66 82 78 91 94 100 100 99 86 69 75 69 62 44 51 61 82 80 72 65 58 54 61 58 62 66 63 68 88
44 38 27 21 20 13 5 14 40 42 43 66 69 65 50 61 67 60 86 86 83 89 100 100 100 98 91 85 88 75 71 54 54 62 70 66 58 54 57 52 46 41 52 55 65 72 75

GFSGBSN_500_rhum_036.txt.gz
RH
10 11 10 8 10 10 10 11 12 13 19 24 25 22 23 24 22 18 15 8 7 27 56 86 36 39 31 28 26 24 20 17 16 13 13 10 8 7 6 6 6 5 10 14 13 11 9
17 12 12 10 10 10 10 9 11 13 14 17 19 20 20 21 22 22 19 15 7 8 16 59 85 30 38 29 26 24 22 20 18 15 14 12 9 8 6 6 6 7 10 13 11 10 10
30 15 14 13 11 11 11 12 12 12 11 10 10 10 15 18 19 19 19 16 12 6 6 16 88 63 36 32 27 25 20 19 17 17 16 14 10 9 8 9 7 10 15 14 10 14 11
41 22 15 14 13 12 13 14 16 17 13 8 6 5 6 8 11 17 18 16 12 9 6 6 38 60 51 36 31 26 22 19 17 16 15 14 12 10 9 9 13 17 15 14 13 13 12
45 28 16 17 13 14 15 14 16 8 4 4 3 4 6 7 10 6 12 16 13 9 7 6 10 40 31 40 33 27 21 20 18 17 16 18 13 12 11 11 15 17 17 16 14 13 13
48 27 19 16 16 18 16 15 8 9 14 8 8 3 3 3 2 3 4 9 12 10 7 11 5 35 30 38 41 29 22 20 20 19 22 20 14 14 12 15 18 26 21 18 16 12 17
47 27 20 20 21 19 14 12 11 19 30 19 8 25 75 38 11 4 2 3 6 7 90 30 10 28 44 40 35 28 23 22 20 21 21 24 16 16 41 26 33 22 20 21 23 18 14
50 31 23 23 23 18 13 9 12 38 30 12 19 62 76 92 71 13 3 2 4 19 21 75 64 30 46 45 35 29 24 22 22 24 26 24 26 39 33 33 35 29 27 26 26 24 15
52 36 26 27 24 14 11 13 17 17 12 8 43 64 81 100 100 53 7 4 4 40 94 100 88 50 57 49 36 30 26 24 28 30 29 30 35 35 32 31 30 29 26 24 20 21 18
54 38 28 29 19 13 11 14 14 8 12 38 60 71 98 73 98 96 11 4 26 100 92 60 80 57 71 50 34 34 25 23 26 30 31 29 32 34 32 31 31 28 22 18 15 13 12
52 43 31 27 16 12 11 12 6 9 58 59 76 98 100 94 100 99 14 12 100 100 91 60 52 95 72 79 42 31 24 22 26 26 27 30 34 32 26 24 18 16 14 15 17 17 15
51 44 33 24 16 12 12 14 6 33 57 68 72 89 98 100 99 63 8 28 100 100 100 98 100 81 71 72 40 31 23 22 22 20 20 20 20 21 21 19 19 19 19 18 17 16 12
52 37 33 21 16 12 17 26 23 44 44 60 90 100 80 100 68 32 12 100 100 100 97 66 61 59 75 78 34 28 24 22 21 20 21 20 21 22 22 21 20 18 22 26 22 16 13
49 40 33 20 16 13 30 63 50 60 82 87 75 82 99 100 75 9 10 100 100 100 97 83 86 98 83 76 41 28 25 23 22 22 22 22 20 22 21 21 22 29 28 29 20 16 14
46 44 33 20 15 14 24 96 94 64 96 77 88 98 92 100 76 13 93 100 100 100 100 88 81 90 78 90 40 24 25 26 24 24 24 23 20 21 29 31 34 31 26 23 21 21 15
52 48 33 22 14 16 25 24 57 76 79 83 100 95 98 97 11 70 100 100 100 100 98 99 80 72 67 80 45 23 24 24 25 24 23 23 24 28 38 38 30 26 25 24 22 17 16
56 52 34 23 15 20 38 70 21 63 89 61 100 76 78 45 57 99 100 100 89 100 97 87 75 64 62 89 60 29 25 25 24 23 25 34 36 41 37 30 26 28 29 22 19 38 48
59 53 37 25 15 27 31 57 51 91 71 54 93 40 11 32 90 100 100 100 100 100 100 100 86 58 58 99 80 61 53 46 43 46 50 50 46 30 28 28 34 34 20 42 61 73 46
61 55 39 27 16 31 39 45 93 67 23 12 33 11 13 54 93 100 100 100 100 100 100 100 96 62 46 62 82 67 62 60 57 54 49 37 29 30 32 36 32 24 67 66 71 66 58
52 57 41 31 17 18 48 31 70 77 71 26 15 42 70 96 100 100 100 100 100 100 100 94 92 62 44 50 59 61 63 54 46 36 31 28 29 35 43 30 32 61 72 77 66 58 62
49 55 43 36 21 12 52 25 46 71 36 38 47 98 99 100 100 100 100 100 100 97 100 95 87 84 49 47 44 44 40 35 33 32 28 24 32 46 32 27 50 48 70 78 74 73 68
45 51 43 40 24 16 35 29 41 85 19 34 88 93 79 79 92 99 100 100 94 100 91 84 79 79 88 58 50 49 46 41 37 29 22 29 51 32 37 66 77 80 82 85 74 79 84
42 49 42 38 27 22 9 46 26 60 41 58 77 96 79 76 86 92 96 87 95 91 72 60 55 51 59 68 73 66 56 40 31 22 26 51 25 37 68 81 84 88 93 92 82 71 80
42 45 44 37 29 24 15 17 24 41 62 73 76 73 86 88 76 58 64 60 66 61 58 48 40 42 42 44 47 44 31 24 20 23 54 29 31 76 87 95 98 85 96 88 78 77 92
45 45 38 37 31 24 20 6 35 24 38 40 60 68 73 73 68 55 54 53 44 44 40 43 41 38 40 35 27 22 16 16 22 48 35 28 74 88 92 95 93 89 85 86 82 91 94
45 50 36 35 30 25 20 12 17 39 30 26 34 47 61 59 52 44 37 37 39 41 40 41 37 36 32 30 30 28 24 29 37 51 26 54 87 84 77 80 69 74 76 73 81 90 80
42 55 37 42 34 24 19 13 6 44 40 32 31 40 53 58 36 29 30 35 42 48 52 52 45 36 31 34 39 40 32 36 52 40 30 72 88 71 70 70 62 60 59 52 55 73 82
46 53 40 46 35 22 17 11 5 47 53 46 36 51 62 51 48 44 44 40 54 78 76 84 74 63 55 51 52 49 41 42 54 35 42 72 86 70 62 52 55 50 55 63 64 70 80
49 51 41 44 32 20 15 7 5 46 68 64 79 46 58 61 60 46 56 66 79 82 88 93 95 100 99 78 65 68 63 50 48 40 50 70 77 72 63 58 51 52 49 46 60 69 88

GFSGBSN_500_rhum_039.txt.gz
RH
40 48 44 47 36 18 17 16 20 21 20 15 16 14 12 16 16 20 24 25 19 15 8 7 87 76 41 35 31 28 26 28 27 22 18 15 11 11 11 11 11 10 10 9 7 6 6
44 57 46 43 35 23 20 22 24 22 14 11 10 10 10 8 14 14 21 26 25 19 16 7 10 89 59 35 30 31 27 23 21 20 20 20 16 12 9 9 9 8 9 8 6 5 6
53 56 40 43 46 30 24 27 24 13 11 10 10 10 8 10 14 20 17 24 25 24 20 12 6 30 83 41 33 31 29 27 24 21 19 18 16 14 12 9 8 7 7 8 7 12 12
58 51 36 45 49 37 31 26 14 12 12 9 18 23 25 24 12 8 22 24 25 24 22 16 9 9 34 70 34 35 29 28 26 23 22 20 17 15 13 11 9 8 7 6 21 15 13
63 57 42 44 45 38 30 16 11 11 9 11 16 20 32 26 18 14 4 19 23 22 21 16 13 6 9 75 46 39 31 29 24 22 21 20 23 18 15 13 10 8 8 10 16 16 13
70 63 54 44 42 34 21 11 11 12 9 10 13 22 49 46 16 8 3 4 18 18 15 14 18 10 8 49 86 44 34 30 25 23 20 40 37 22 16 14 13 16 10 9 12 14 10
73 67 44 37 35 30 15 10 10 11 7 6 11 28 92 100 99 82 15 3 8 17 14 17 17 12 17 40 60 89 44 30 25 23 20 19 18 18 26 21 15 12 10 11 14 14 11
65 59 34 34 37 26 11 9 11 12 6 7 11 51 81 89 99 95 94 14 5 9 14 13 16 18 46 66 55 46 65 38 25 23 22 19 17 30 31 18 16 12 10 16 19 14 10
62 52 30 36 35 21 10 10 16 16 12 23 45 72 74 87 77 96 98 30 7 8 9 10 11 14 32 26 52 43 42 44 33 25 23 22 26 27 23 20 23 23 17 21 20 23 21
66 51 31 38 30 18 10 16 36 36 53 58 62 69 85 82 90 100 84 18 6 9 40 69 48 29 41 27 50 45 37 33 25 24 24 23 24 28 29 33 36 30 28 29 28 27 22
63 50 31 41 27 16 11 30 55 56 51 61 66 73 87 90 78 100 92 13 83 62 100 100 100 63 49 55 54 44 35 30 25 22 24 29 30 31 37 39 33 30 30 31 27 23 19
65 51 30 40 28 14 11 34 53 40 86 82 92 85 82 87 81 90 70 13 100 100 100 100 89 56 49 48 61 44 36 28 25 24 27 30 34 46 42 38 31 27 22 20 16 15 13
64 49 32 40 28 13 11 36 61 28 55 94 100 100 100 95 82 79 19 12 100 100 100 100 88 85 65 71 56 43 35 28 22 22 26 32 36 38 30 25 20 19 20 20 17 15 13
67 44 34 41 26 14 12 38 66 62 84 93 86 95 89 96 73 36 70 100 96 99 100 95 79 64 51 75 67 81 35 28 22 22 24 26 28 25 23 22 22 20 22 22 17 14 13
67 44 36 42 26 14 12 35 64 52 74 75 86 80 99 73 34 10 87 100 100 100 90 48 36 52 64 67 66 72 30 26 22 24 29 23 24 25 24 22 22 31 28 26 25 21 14
63 49 39 43 27 15 14 30 53 43 20 79 66 80 66 26 56 82 100 98 96 100 100 73 91 81 44 57 73 41 28 26 24 27 26 25 25 24 23 26 29 35 33 25 22 19 16
64 53 40 45 28 16 17 25 58 42 19 47 45 39 15 66 100 100 98 100 100 100 100 77 60 39 63 68 84 41 28 28 27 27 24 24 23 28 36 36 38 34 26 22 23 23 18
76 54 43 46 30 18 20 28 32 20 15 11 13 49 87 100 100 100 100 100 100 100 100 93 80 86 79 76 74 32 25 27 26 25 23 24 28 40 41 41 34 25 23 28 22 39 54
86 54 43 52 33 20 16 29 29 12 8 24 25 88 96 100 100 100 99 95 100 100 90 72 62 68 74 100 93 45 25 24 24 23 27 41 48 49 44 31 23 23 33 26 39 56 71
84 53 44 55 38 23 12 24 39 9 39 61 62 96 100 98 96 98 100 100 100 100 90 79 60 65 72 84 78 65 53 48 43 51 56 53 46 34 28 26 33 36 27 45 51 61 61
81 55 44 53 44 31 15 21 39 53 38 65 80 72 83 89 91 93 94 94 87 91 92 92 76 52 56 80 97 72 66 63 61 57 45 34 30 27 25 27 33 25 58 70 69 70 68
84 59 42 52 46 41 23 16 32 38 54 62 56 60 65 69 95 98 99 97 96 99 100 85 95 57 48 59 77 78 68 59 43 34 32 31 29 34 38 28 37 72 75 80 82 89 83
86 68 44 48 48 47 30 16 26 31 36 61 55 58 68 74 78 75 81 86 84 94 90 85 84 96 56 47 48 48 43 42 38 36 34 27 30 42 28 49 82 90 98 99 96 84 74
89 81 51 41 46 50 42 24 11 30 30 52 79 79 66 70 70 69 67 62 65 61 60 53 51 58 72 80 66 60 57 58 42 34 23 23 42 26 65 92 98 98 96 99 91 87 84
94 86 58 44 38 50 47 29 17 9 34 49 52 73 73 63 60 49 44 44 43 39 35 34 34 34 38 39 49 59 62 46 36 16 22 47 29 80 100 94 96 98 100 98 88 83 84
98 90 64 44 36 44 40 30 17 7 20 45 54 54 60 65 46 39 33 33 34 29 25 25 24 27 31 32 27 30 27 19 12 19 50 31 73 96 94 94 88 82 72 62 64 66 59
99 95 62 43 41 36 35 28 16 6 11 33 40 45 48 54 46 38 37 35 30 28 32 36 32 30 29 28 26 18 13 13 20 43 57 44 88 90 81 84 74 73 64 69 68 68 70
98 85 59 47 43 34 33 24 12 5 22 33 30 33 50 54 50 39 36 34 30 41 55 54 46 39 34 33 27 22 14 20 27 57 58 45 85 80 75 72 66 55 56 50 53 59 76
99 82 65 48 45 34 30 18 8 4 47 46 46 38 42 57 50 54 46 55 45 62 76 90 75 68 60 48 40 36 32 34 35 63 53 46 58 81 72 65 56 56 54 55 53 58 73

GFSGBSN_500_rhum_042.txt.gz
RH
79 65 62 66 58 55 35 29 31 28 17 10 8 8 9 12 12 13 17 18 21 30 30 20 11 10 81 64 69 30 25 37 28 24 22 16 14 17 20 19 20 15 13 14 14 14 11
68 59 59 53 48 38 26 30 30 16 9 8 8 7 12 19 19 15 16 20 22 30 32 31 22 8 66 66 70 41 28 35 38 28 24 21 17 14 15 17 17 14 15 12 12 12 11
74 67 56 54 48 35 27 29 24 10 9 9 7 7 8 8 13 16 18 28 30 31 35 35 30 17 9 82 60 50 37 47 40 36 32 28 23 16 14 13 13 13 14 13 13 13 11
85 71 60 57 49 42 29 30 17 9 10 16 6 7 7 12 25 33 32 18 36 40 39 38 30 22 8 41 89 54 41 35 38 30 30 32 28 24 20 14 12 11 11 10 12 11 10
86 86 65 60 52 35 28 25 11 10 17 22 8 8 12 55 79 54 26 20 12 40 44 38 30 25 12 11 94 69 54 34 33 30 27 25 24 23 21 18 16 12 9 9 10 9 8
88 79 66 56 46 32 30 18 9 15 33 27 17 11 61 100 89 94 41 11 9 26 44 33 27 30 16 14 63 100 61 38 33 32 33 42 31 21 19 16 14 15 13 11 9 8 7
89 83 63 48 37 31 31 13 11 37 46 43 46 32 49 78 77 83 76 33 9 9 38 31 27 48 22 20 44 91 72 41 35 58 28 43 51 75 48 34 21 16 13 12 11 9 8
94 82 56 42 34 30 25 12 17 59 50 57 54 63 65 65 71 75 90 88 28 8 30 30 25 29 100 31 41 65 89 44 34 44 38 25 26 49 88 80 49 18 16 15 14 10 8
94 84 50 44 34 30 22 11 22 70 60 76 82 90 83 90 75 76 70 89 29 8 28 27 51 100 90 29 32 74 99 52 38 33 27 24 25 28 30 29 19 18 16 15 13 12 10
95 72 53 46 36 29 20 11 22 67 71 64 100 100 100 92 90 95 88 75 16 12 25 29 54 88 52 90 65 77 98 96 56 34 27 23 23 22 21 20 23 21 18 16 15 14 10
95 68 56 50 37 30 20 11 18 69 68 89 100 100 100 100 97 98 76 58 11 14 24 23 81 62 54 76 49 69 67 81 82 54 30 29 23 21 22 26 27 24 26 26 23 16 11
90 81 60 52 37 31 19 11 16 44 33 87 100 100 100 100 96 88 82 23 12 19 38 51 48 56 42 27 28 54 52 46 50 63 44 35 33 26 28 28 32 38 37 32 26 23 13
91 80 66 54 37 31 19 10 15 20 15 67 79 95 98 90 88 67 38 34 92 75 89 66 100 37 56 24 24 49 48 41 42 31 23 27 34 32 30 30 35 39 35 28 23 19 15
98 89 73 64 40 32 19 10 13 9 14 53 68 80 88 94 58 80 29 92 100 100 98 54 43 77 48 33 51 52 46 39 32 28 32 35 37 37 31 36 36 29 21 19 16 15 14
97 94 75 59 44 35 19 11 10 7 8 34 76 58 38 26 45 82 96 100 100 100 100 63 85 65 75 47 49 54 43 36 30 31 34 31 34 34 32 25 23 24 21 19 18 16 12
93 97 85 53 48 37 19 12 11 7 13 14 12 40 33 62 98 85 100 100 100 94 100 93 71 97 66 49 56 57 45 34 32 27 30 28 30 26 23 24 24 21 24 28 28 22 17
100 96 90 53 54 40 18 14 15 36 18 22 49 86 94 100 100 82 96 96 100 90 91 87 87 69 52 57 61 76 65 34 30 24 26 25 27 26 25 23 23 27 32 32 28 23 21
99 97 88 68 63 42 17 31 18 44 55 77 84 97 100 100 100 96 100 100 100 66 73 77 39 60 61 70 80 79 36 31 28 24 26 28 27 26 24 27 34 37 35 30 24 24 22
99 100 90 76 67 49 16 32 30 50 64 62 71 71 65 72 90 100 100 89 97 72 43 82 73 61 93 96 91 74 31 29 28 25 27 28 26 27 32 39 42 36 27 24 25 24 39
98 99 92 86 64 58 25 21 30 30 44 40 46 58 87 98 78 94 91 100 99 98 88 74 60 63 82 76 89 46 26 26 26 26 25 25 29 38 40 39 35 30 32 30 25 42 42
98 98 96 90 60 68 39 16 26 25 26 30 22 26 45 60 58 78 92 98 94 76 65 61 59 74 75 80 68 40 27 27 27 28 34 49 52 48 39 30 26 34 32 26 61 69 62
97 100 100 96 56 62 59 28 17 28 23 34 28 18 29 24 53 65 69 84 81 84 75 59 58 62 75 99 79 68 63 61 61 62 58 48 37 30 26 23 34 31 44 84 82 79 75
80 98 100 99 77 57 67 48 21 27 38 30 27 36 37 36 46 57 49 52 59 66 79 91 74 53 59 86 100 79 71 67 63 52 37 33 32 26 24 35 30 62 90 87 94 93 88
98 98 98 100 97 51 60 61 38 17 20 45 41 43 41 57 62 59 61 56 56 60 59 63 67 80 55 56 68 93 91 59 43 37 36 35 25 24 38 32 73 94 94 96 96 98 85
100 98 92 98 90 52 52 55 53 28 12 20 39 34 44 60 65 57 57 52 47 43 39 46 44 40 59 77 56 50 49 51 53 42 32 19 22 42 30 88 98 96 99 97 81 73 71
100 98 93 96 90 57 44 45 52 33 16 8 40 58 45 63 59 52 44 41 38 34 31 30 29 29 30 35 67 66 66 62 52 36 18 34 46 36 88 97 99 98 94 75 66 68 63
99 99 95 90 95 59 40 42 36 25 11 5 44 55 75 70 61 46 48 50 34 30 25 26 26 25 27 30 30 32 43 46 31 17 18 48 31 82 100 99 94 75 78 79 78 69 63
100 98 99 96 97 56 33 34 27 18 8 5 36 51 58 60 63 56 56 47 37 30 28 31 33 35 35 32 31 29 27 26 21 25 42 47 60 99 100 95 75 70 64 61 58 50 58
100 99 96 99 83 48 31 28 19 7 5 4 42 48 47 46 59 53 48 38 34 34 41 46 48 55 50 44 36 31 29 35 35 34 49 55 63 99 89 74 56 54 58 53 56 49 51

GFSGBSN_500_rhum_045.txt.gz
RH
88 98 89 86 79 59 43 28 24 26 24 15 9 10 13 9 13 15 15 22 17 25 27 30 38 25 98 13 88 98 93 34 38 30 28 26 18 20 24 21 20 14 10 15 18 17 14
76 95 88 87 68 45 35 27 25 28 20 12 11 15 18 10 10 13 11 11 22 26 34 38 45 37 21 10 62 90 98 45 35 38 30 28 24 18 20 25 22 16 16 17 17 17 15
81 96 92 81 54 41 38 25 28 23 15 12 17 35 20 14 42 64 44 27 27 23 37 43 50 43 28 21 47 99 96 87 34 45 37 29 28 23 16 19 22 20 18 17 17 18 16
81 95 89 78 51 46 42 28 26 20 13 18 45 52 26 25 67 100 100 72 39 27 35 50 55 51 28 29 47 99 96 98 78 60 59 35 27 26 22 16 16 19 19 19 18 19 18
98 92 90 80 53 51 43 29 22 18 13 49 70 67 49 30 70 97 97 60 34 32 27 53 56 47 32 24 40 96 99 100 94 95 81 58 34 28 24 19 15 14 14 15 16 16 16
93 89 91 73 61 58 37 28 20 15 17 71 82 77 73 57 54 74 84 85 31 30 22 47 58 49 32 27 70 71 99 97 53 76 100 97 69 36 29 21 17 15 15 14 13 12 12
86 88 90 84 68 65 33 26 20 14 32 69 80 86 95 86 66 77 93 74 51 31 18 45 52 40 32 66 48 67 99 100 82 55 57 57 74 43 31 28 27 20 16 14 12 11 10
88 85 93 83 71 64 35 22 18 11 38 64 84 100 100 100 100 98 74 59 59 18 26 48 49 37 45 45 61 39 92 98 90 60 57 62 58 92 54 32 24 21 18 15 16 14 11
88 87 93 88 75 59 31 20 17 10 26 45 63 100 100 98 100 87 96 78 61 14 41 49 45 32 64 66 90 43 70 100 93 77 85 55 64 96 96 99 60 18 15 16 17 15 12
87 90 98 95 80 55 28 19 14 9 11 20 43 100 100 91 100 100 91 80 62 12 44 46 35 81 100 54 82 88 96 100 95 90 96 64 39 66 76 79 44 28 42 36 20 17 16
77 99 97 95 80 47 26 19 11 8 7 73 94 98 80 96 100 97 97 75 37 20 37 41 28 68 82 92 29 42 72 99 93 45 56 53 32 32 31 33 44 38 28 24 20 18 17
98 100 98 93 78 45 27 19 10 8 9 33 70 72 92 87 100 85 89 37 13 32 55 35 44 100 72 76 28 63 53 94 92 50 42 38 32 27 24 24 22 23 25 20 17 15 15
100 100 100 91 79 45 28 17 11 13 17 20 53 74 87 63 76 43 29 18 27 76 94 64 100 100 100 80 57 51 52 95 88 59 42 34 32 29 26 21 19 24 23 20 19 16 16
94 99 99 93 86 45 30 17 13 31 30 17 9 17 14 15 25 35 40 95 48 100 100 100 85 68 66 100 61 61 77 70 97 96 84 59 52 38 30 26 31 24 27 30 27 23 20
100 98 99 96 89 48 30 17 16 31 35 68 53 24 72 98 100 100 96 70 56 86 92 39 40 38 42 44 28 53 72 50 59 74 55 46 44 39 34 28 30 34 34 30 22 18 16
95 98 100 97 95 48 31 18 19 28 41 28 45 74 96 100 100 90 97 100 74 44 36 88 52 42 38 37 48 55 54 49 44 77 38 34 33 37 40 45 39 30 26 22 20 18 18
51 82 100 98 98 53 32 22 24 32 22 22 70 40 34 57 76 94 81 60 92 32 80 88 46 43 59 52 65 60 48 48 44 36 29 33 35 39 37 29 25 24 24 25 27 23 21
24 95 97 98 97 65 38 25 30 35 23 26 46 71 79 50 42 48 42 59 93 80 35 52 65 78 72 82 73 52 49 45 36 28 31 35 34 32 26 25 25 26 29 32 32 28 24
8 93 92 97 99 78 49 24 24 30 22 32 48 60 52 43 47 44 45 51 58 78 60 64 94 89 99 83 75 91 86 42 32 30 32 32 29 28 26 26 28 34 36 37 32 25 22
6 52 100 100 99 90 69 38 27 27 24 34 58 49 53 52 43 54 69 34 46 68 76 73 74 84 79 77 84 88 46 32 31 30 30 29 28 26 27 35 38 39 37 30 26 29 23
7 100 100 100 98 98 83 58 34 26 29 23 30 33 34 57 70 68 60 64 41 47 76 64 55 77 93 82 90 76 31 28 29 30 29 28 27 30 37 43 42 35 28 24 30 26 65
17 91 88 100 99 100 94 65 54 27 21 32 22 20 23 32 58 55 58 65 67 65 63 60 70 77 80 84 97 46 28 27 28 31 27 29 43 50 49 40 30 23 23 32 53 82 95
19 42 93 100 99 99 98 70 63 46 24 24 31 33 18 18 16 45 59 65 54 49 52 58 56 68 79 92 82 62 37 38 36 45 52 57 51 41 35 28 25 32 32 66 93 100 84
21 20 90 100 100 96 97 72 74 63 44 19 33 29 36 26 28 33 41 42 47 53 62 69 72 57 61 96 93 75 66 65 65 62 56 45 36 32 29 24 35 35 81 97 99 91 78
31 24 90 98 100 99 100 90 67 74 64 43 17 45 37 43 47 41 41 36 40 41 45 47 52 76 74 54 72 98 82 72 64 52 41 37 35 30 24 35 38 87 98 100 98 78 53
68 45 66 91 99 99 100 100 73 59 63 52 32 15 45 50 56 65 51 48 47 42 36 36 41 43 50 75 56 54 63 83 67 56 42 39 27 19 35 32 86 100 100 97 79 59 57
96 55 51 97 100 99 100 92 56 40 39 32 17 8 29 65 77 71 56 48 43 37 33 27 26 24 34 44 65 82 77 61 59 59 50 34 18 45 36 80 94 99 93 79 70 71 57
92 33 52 86 100 99 100 72 49 25 21 14 9 7 48 75 86 74 58 49 38 32 28 26 25 27 30 32 35 45 51 51 58 53 31 22 47 39 59 93 92 86 80 69 63 56 53
69 68 72 92 99 100 94 65 25 18 11 6 3 6 42 81 90 88 69 53 43 33 29 27 31 33 33 34 34 34 36 35 38 26 21 39 56 47 82 91 89 73 67 58 58 57 48

GFSGBSN_500_rhum_048.txt.gz
RH
68 76 68 82 86 94 76 57 58 54 29 25 19 17 15 28 27 35 23 19 61 14 22 28 34 36 38 38 23 28 94 99 84 45 38 34 32 25 23 24 20 13 12 14 18 16 15
74 77 71 76 82 87 74 68 64 38 24 21 17 14 39 45 63 33 56 89 100 97 24 25 41 49 42 29 31 19 82 97 97 56 44 39 41 30 21 26 25 18 15 18 20 16 13
80 85 82 78 83 81 83 65 52 27 22 18 13 40 51 86 71 36 87 92 100 100 79 29 49 59 48 34 29 81 49 99 99 83 45 42 34 32 27 20 24 21 19 19 18 17 14
91 88 89 84 85 85 82 64 49 25 19 11 19 43 80 88 75 52 75 97 86 98 64 34 61 63 43 38 98 79 65 92 97 96 46 46 35 31 31 23 18 20 21 19 20 18 15
95 94 91 84 86 80 76 64 32 21 14 9 17 56 98 89 91 63 76 100 98 90 67 33 60 64 49 42 70 53 55 92 99 99 82 67 42 31 30 28 20 16 19 19 24 23 18
91 90 86 85 90 80 74 53 25 17 9 10 16 86 100 94 100 93 94 100 83 71 55 29 65 62 49 40 91 91 55 91 99 99 97 97 74 37 28 26 22 16 15 17 22 22 20
91 98 85 94 89 84 69 41 22 12 9 14 39 59 97 100 100 100 100 100 77 66 47 38 60 58 50 43 73 86 63 85 99 100 96 89 90 45 32 26 26 23 18 14 15 16 17
70 84 84 83 92 83 67 34 19 9 9 14 86 77 69 100 100 95 96 87 90 67 39 34 59 59 58 45 46 96 96 74 96 98 97 100 90 84 53 33 26 24 21 19 16 14 13
38 38 81 79 95 81 63 28 14 9 8 16 90 100 94 100 98 89 87 90 84 66 33 40 65 60 56 38 63 100 89 71 99 100 99 98 100 100 90 60 38 28 24 24 22 19 14
28 54 97 95 94 80 51 21 12 9 6 7 34 81 96 95 80 96 90 96 69 36 49 57 61 59 44 100 63 100 100 95 99 100 99 93 85 81 100 99 63 35 28 27 24 20 16
18 41 63 88 92 80 43 18 13 14 44 53 24 64 82 64 100 100 76 79 52 34 62 58 59 70 51 62 72 37 55 86 99 97 89 65 64 63 100 100 84 59 40 39 25 19 14
22 16 32 56 72 77 42 18 16 17 36 57 83 36 20 52 74 92 64 43 27 50 56 45 56 97 54 44 100 78 58 97 100 100 100 98 74 83 95 98 98 100 83 49 47 32 20
33 15 16 68 93 82 44 18 18 24 32 38 61 94 51 40 22 22 23 29 42 60 50 60 100 100 61 47 84 91 59 93 93 88 95 96 77 42 48 48 43 38 49 38 30 29 24
16 12 14 89 70 86 48 20 16 30 23 22 31 77 81 99 77 72 31 37 78 70 53 39 74 72 77 96 70 63 62 79 94 79 56 53 56 38 31 29 30 26 24 25 25 23 22
14 9 11 78 91 88 57 23 18 20 36 44 55 39 82 39 29 27 34 79 99 81 52 89 100 70 61 71 34 76 82 95 100 97 63 53 42 36 33 28 29 29 24 29 28 26 24
11 9 9 75 100 96 73 27 20 15 20 55 46 57 28 54 24 41 69 84 99 72 99 100 99 99 61 77 79 68 92 87 100 100 85 80 62 60 50 38 33 29 33 32 29 26 23
11 10 10 67 98 100 80 36 21 18 28 47 61 62 47 39 43 31 62 76 62 68 60 92 77 89 95 78 57 71 98 67 78 88 77 57 54 52 49 42 44 38 43 33 27 22 20
8 8 8 34 100 96 94 41 23 21 28 43 60 65 48 46 48 31 28 29 30 26 30 39 42 45 56 65 96 70 82 68 62 87 72 39 38 42 42 41 42 35 30 26 24 28 27
5 6 9 40 100 100 97 64 28 23 22 35 33 39 58 40 47 42 22 28 24 54 55 46 67 72 74 85 72 71 64 74 75 55 42 38 37 40 38 33 30 29 28 30 29 31 32
3 6 15 58 88 98 99 76 41 26 23 21 26 30 32 57 43 48 29 26 17 16 46 64 69 66 82 79 67 67 56 61 66 37 33 36 34 33 30 29 29 29 30 38 38 31 28
3 6 18 36 83 99 100 91 62 36 26 26 22 24 24 39 52 40 33 33 37 54 51 58 41 44 70 83 93 99 78 69 37 33 34 33 31 29 28 29 34 38 40 37 32 28 29
3 7 12 41 49 89 100 98 80 62 40 23 25 26 22 25 31 43 44 30 40 55 54 55 53 83 87 86 89 95 52 32 32 32 31 30 28 27 28 39 44 42 36 28 24 29 40
2 7 17 43 33 69 100 99 92 76 64 47 25 24 26 23 28 26 39 40 50 54 57 57 64 66 81 82 94 58 31 28 29 28 28 27 30 40 48 47 40 30 26 28 30 52 76
2 7 13 48 69 51 95 100 98 90 84 71 55 24 24 26 29 34 30 42 54 58 51 55 55 62 76 89 92 64 48 39 33 31 39 43 51 51 42 33 29 33 34 33 70 83 93
1 2 7 38 80 42 94 98 100 100 94 94 81 61 23 28 30 41 44 43 37 49 57 58 63 67 64 86 95 79 69 62 59 61 61 57 46 40 36 32 31 30 42 85 89 95 85
2 2 7 54 81 40 76 100 100 100 100 100 97 96 66 21 35 40 49 41 35 40 44 48 53 63 76 65 71 96 84 72 67 67 60 51 41 39 35 29 30 39 90 96 90 93 57
5 5 12 54 66 40 80 92 96 92 94 78 76 96 84 40 20 54 58 56 43 45 41 40 44 45 50 64 70 56 69 83 85 70 56 51 42 38 25 22 34 73 95 94 91 71 58
14 36 18 84 80 54 86 88 90 74 71 42 25 19 9 10 30 76 91 84 62 53 42 33 28 31 34 39 53 75 77 71 60 59 57 56 52 43 25 41 51 87 95 92 80 64 51
62 82 88 100 100 84 88 90 79 62 28 11 7 5 4 10 39 98 100 91 66 54 43 32 30 28 29 31 30 33 42 67 69 62 57 56 50 33 38 42 84 99 96 80 65 62 57

GFSGBSN_500_rhum_051.txt.gz
RH
35 22 48 93 91 78 75 90 85 86 73 39 21 12 9 12 18 71 89 82 54 57 63 50 30 40 25 33 28 22 25 78 97 76 63 44 63 51 53 81 64 35 38 44 50 41 35
20 17 42 82 87 75 76 89 88 78 50 22 12 7 14 23 68 97 83 64 87 94 96 100 96 32 34 35 28 31 48 71 100 100 97 58 53 50 52 83 62 38 33 23 33 36 34
14 18 24 34 70 73 85 99 89 68 23 12 7 8 19 60 100 87 91 71 81 74 96 100 100 67 34 34 44 31 24 43 92 100 98 69 45 51 47 76 43 30 30 23 22 18 16
17 19 20 23 63 79 89 89 91 30 14 8 6 10 51 100 100 99 94 74 88 100 92 95 100 74 33 49 43 41 94 34 51 98 98 98 59 44 39 63 49 38 25 21 22 18 14
23 19 16 40 83 81 79 92 61 17 10 10 13 33 72 80 100 95 100 97 100 100 95 82 100 41 53 54 56 100 98 31 43 98 98 97 90 54 40 46 34 50 29 22 22 20 17
25 28 24 16 33 40 72 93 27 12 11 27 30 44 91 46 94 98 100 100 100 100 99 90 90 38 61 47 47 62 98 52 80 98 100 100 100 70 40 62 51 44 43 22 22 24 22
20 29 35 16 15 36 81 83 18 12 25 29 37 46 97 69 82 94 100 100 94 100 84 76 50 57 59 47 48 46 96 53 98 100 100 93 85 62 40 40 62 30 27 22 20 22 20
20 18 17 17 26 62 85 54 16 16 23 23 42 33 86 92 64 82 89 86 95 82 71 67 55 70 50 46 97 95 51 80 99 100 100 94 74 79 43 33 36 34 26 23 18 16 18
20 18 16 14 33 57 80 40 16 15 22 36 40 55 56 87 74 83 90 73 97 61 48 75 85 78 62 46 89 78 63 69 100 100 99 95 90 94 69 39 30 27 26 26 23 18 15
22 18 13 11 26 69 76 36 16 24 41 46 40 40 19 51 71 90 82 77 64 38 58 73 99 74 73 51 100 100 68 76 100 100 100 99 100 99 99 68 38 31 28 26 25 21 17
23 18 15 11 11 81 80 47 17 20 40 48 52 47 16 13 68 96 88 54 43 68 72 69 88 74 56 44 65 88 99 100 100 100 98 100 100 100 100 99 78 50 32 28 25 22 19
25 23 12 10 11 75 95 52 17 20 29 50 61 49 32 20 18 29 34 52 64 65 62 66 79 81 62 38 44 97 99 100 100 100 98 98 97 97 97 100 100 93 56 39 29 25 21
26 20 17 7 11 71 100 52 19 22 42 55 56 43 15 15 18 25 42 54 58 71 83 66 56 77 100 44 50 91 63 92 99 100 100 98 96 99 99 100 99 100 89 55 40 30 30
26 14 9 5 9 47 100 77 21 25 47 42 51 17 14 18 29 40 49 50 55 90 95 70 40 46 76 81 50 42 50 76 98 100 100 100 94 84 75 94 98 98 100 92 60 48 40
28 11 4 4 9 30 100 92 22 22 44 44 58 22 30 72 82 75 62 44 47 90 100 100 99 45 43 84 68 63 82 94 94 100 98 99 100 89 63 70 84 58 63 50 35 30 30
30 7 2 4 11 38 97 96 23 21 33 31 64 39 31 31 39 57 49 43 59 62 75 84 80 60 33 38 67 69 74 92 100 100 95 88 91 81 44 32 30 31 31 30 30 32 33
15 3 3 4 10 42 82 91 33 23 21 36 35 63 35 23 26 42 52 81 96 96 90 83 63 69 100 64 69 89 91 96 100 100 84 60 53 51 44 36 35 33 39 36 42 37 35
4 2 2 5 13 29 65 93 72 26 23 21 27 51 60 32 16 28 41 53 53 89 94 90 90 99 100 80 84 88 96 94 99 100 92 74 72 70 61 55 49 46 40 39 39 33 27
2 2 2 4 11 24 45 82 98 39 25 21 22 30 60 63 35 19 15 22 25 38 49 43 45 47 50 51 59 71 86 86 93 96 97 69 61 56 54 51 48 49 48 42 32 28 35
2 1 2 3 12 24 28 73 100 70 32 26 21 24 26 62 36 23 11 14 36 35 29 30 38 44 56 73 73 74 72 84 89 88 83 61 48 45 42 41 39 34 29 27 29 41 36
2 2 1 2 5 28 34 45 86 98 50 30 24 22 21 26 65 34 24 12 14 28 37 46 52 66 73 76 64 62 62 75 85 65 43 39 40 40 36 32 31 30 32 37 41 37 32
2 1 1 1 2 12 49 41 77 99 88 47 31 21 21 22 24 58 36 35 37 32 42 48 47 42 64 77 84 85 84 74 64 41 35 36 34 32 31 30 32 38 42 41 36 30 26
2 2 2 2 2 3 42 67 74 83 100 84 53 38 21 17 20 22 53 50 46 54 54 52 45 60 76 77 86 89 63 56 36 33 30 31 32 30 31 34 41 43 42 34 27 23 26
2 2 2 2 4 4 30 83 62 87 94 100 88 61 46 22 21 21 18 48 50 53 51 56 60 65 74 86 88 92 47 30 30 30 30 30 28 35 47 50 46 39 34 31 28 27 49
2 2 2 3 7 7 33 85 64 93 95 100 100 93 68 55 24 22 21 29 50 53 62 62 58 56 71 81 91 85 54 36 31 29 37 37 48 53 49 39 36 34 29 29 29 55 79
2 2 4 11 23 18 21 74 60 98 100 100 100 99 97 79 65 26 26 30 49 43 51 66 73 70 70 87 100 85 67 60 54 56 57 62 58 50 43 39 34 34 29 33 60 90 90
2 3 8 36 66 59 86 74 51 90 90 99 100 100 100 100 98 70 34 35 56 54 48 51 61 73 79 75 75 97 93 75 68 67 64 62 59 51 46 38 33 29 30 61 92 89 98
3 4 10 38 73 66 96 89 68 89 85 95 91 88 73 65 75 100 71 44 66 86 71 56 53 52 56 65 77 73 66 85 88 82 74 65 57 53 49 40 34 29 40 89 93 92 84
5 5 15 41 67 82 92 96 98 98 82 72 34 13 7 6 6 46 85 66 93 100 85 64 53 43 40 36 35 40 55 74 72 66 66 68 65 59 53 43 39 34 76 98 97 95 73

GFSGBSN_500_rhum_054.txt.gz
RH
18 18 18 19 28 18 23 52 56 67 68 50 12 12 16 15 16 34 57 92 100 99 98 88 88 81 35 23 20 19 33 31 19 72 95 60 44 76 64 74 94 76 64 54 46 44 32
17 20 18 16 25 17 15 38 63 68 45 12 12 21 23 20 62 100 100 96 88 88 72 70 67 66 42 44 25 17 65 48 22 22 100 68 44 61 74 69 90 88 65 76 66 52 39
17 23 22 14 16 16 30 52 71 48 17 14 21 28 28 37 80 93 100 99 97 84 75 81 87 93 99 48 39 28 64 73 31 26 88 92 51 47 76 69 69 96 76 75 59 65 45
18 24 22 15 15 14 33 70 58 23 15 26 35 36 43 99 62 78 96 94 91 74 100 78 73 90 99 87 42 37 89 57 39 35 63 99 57 46 62 87 56 84 96 79 36 33 45
18 24 24 20 12 12 35 76 43 15 21 28 41 55 41 100 74 71 89 89 86 99 100 78 91 83 100 69 60 49 100 61 51 47 71 97 79 49 47 84 61 70 79 88 38 32 25
19 24 26 22 11 11 39 75 52 14 20 24 53 62 24 92 91 73 97 94 96 100 95 92 100 97 84 68 67 56 100 66 45 45 94 99 99 96 53 75 74 62 62 83 42 30 28
19 23 29 17 9 10 42 84 63 18 25 43 54 56 20 99 98 59 80 100 98 90 84 94 87 100 86 69 73 44 41 36 43 43 61 100 99 84 69 62 74 56 67 56 34 30 26
19 25 29 11 7 9 30 89 48 21 42 49 66 39 18 98 95 67 90 94 69 87 73 75 100 90 100 100 80 100 100 95 54 47 87 100 94 100 85 60 69 49 60 43 43 50 30
19 25 30 10 5 8 31 91 28 32 52 42 33 14 19 48 61 73 73 69 65 57 74 93 79 79 88 100 95 100 99 88 76 81 96 98 96 88 86 64 67 49 52 39 40 36 24
22 24 33 6 4 7 44 92 23 41 45 22 13 14 19 24 46 74 47 35 46 66 70 73 87 100 100 99 100 85 100 100 98 98 100 100 100 96 80 67 46 44 62 81 35 29 26
23 22 20 3 3 7 45 94 23 49 43 18 13 14 17 20 23 30 40 59 82 73 100 100 92 99 100 52 63 76 94 100 98 99 100 98 99 100 85 62 40 36 52 78 52 30 26
18 15 7 2 3 8 44 100 23 44 51 26 25 21 22 26 35 37 37 78 97 84 100 99 99 82 92 98 52 47 95 100 100 100 98 100 100 100 98 87 56 38 34 62 36 29 25
15 10 3 2 2 5 41 97 27 34 46 38 42 34 30 38 42 40 44 58 76 64 88 84 88 59 99 98 99 99 76 97 99 100 99 100 100 100 100 97 97 58 39 37 40 28 24
12 6 2 2 2 4 34 72 44 23 36 52 24 33 41 44 59 50 46 53 55 58 60 72 62 58 92 77 95 71 97 100 95 100 100 100 93 97 100 99 98 100 83 48 40 34 29
9 5 2 2 2 3 13 58 71 19 28 42 28 21 34 37 53 72 82 47 45 55 64 84 89 38 34 69 65 75 100 97 93 100 100 99 100 98 100 94 98 99 100 93 79 57 53
7 4 2 2 2 3 8 54 92 24 20 33 46 20 28 38 42 52 56 68 75 69 40 44 57 59 43 38 46 43 81 100 97 98 100 100 99 98 90 91 99 98 94 94 94 87 67
6 2 2 2 2 2 7 36 78 53 18 21 33 44 23 32 51 66 62 46 62 58 60 50 41 52 48 56 57 86 90 96 97 100 96 98 99 94 80 73 61 69 62 60 58 44 38
5 2 2 2 2 2 2 11 61 87 28 18 23 33 50 29 38 48 61 49 42 52 54 48 38 56 47 45 64 80 82 99 94 96 93 88 80 84 78 51 42 35 33 32 32 37 39
4 2 2 2 2 2 2 7 20 84 64 26 18 21 36 52 18 19 34 48 44 46 51 50 59 53 45 39 56 72 82 86 85 88 94 84 71 60 58 64 47 39 36 36 39 49 39
4 2 2 2 2 2 2 2 15 64 92 43 22 18 25 36 21 14 16 18 27 34 28 28 28 28 33 32 44 57 72 78 83 95 95 86 83 72 62 58 58 61 56 43 42 35 32
3 2 2 2 2 2 2 3 8 31 78 77 36 21 17 28 33 21 17 18 26 23 22 26 39 42 46 62 65 66 71 80 81 95 87 77 75 65 62 52 52 56 52 43 31 32 30
2 2 2 2 2 2 4 7 12 30 66 85 65 38 18 21 36 35 26 16 15 26 30 32 38 52 60 68 70 61 68 71 77 74 76 49 52 61 43 42 35 32 31 32 37 41 38
2 2 3 2 2 3 5 13 13 44 59 85 91 66 36 16 20 35 34 37 44 42 41 45 46 48 42 67 79 86 88 69 77 58 39 35 38 37 37 34 32 34 40 43 42 37 32
2 3 3 3 2 3 16 30 18 50 60 92 96 97 78 43 18 17 28 39 42 53 65 64 58 55 71 82 78 82 78 75 70 38 34 33 35 34 33 33 34 42 42 41 36 29 26
2 3 3 3 3 4 22 58 56 66 61 76 100 97 99 85 52 24 15 20 46 50 54 53 57 58 66 77 92 86 87 51 34 32 34 32 32 31 35 47 46 43 38 33 31 30 28
3 4 4 4 4 5 26 62 73 100 62 68 84 98 100 100 98 89 36 16 22 53 59 54 56 59 59 75 85 91 73 54 34 31 33 34 31 38 50 50 43 37 34 31 28 33 51
3 4 4 4 3 6 50 67 71 98 50 84 98 87 95 100 100 100 95 44 18 30 56 69 72 72 70 75 93 100 94 69 59 52 45 56 59 57 52 45 41 38 33 28 28 57 84
4 4 4 4 4 9 70 76 75 88 88 81 97 96 100 100 100 100 100 88 49 25 45 66 75 76 73 79 87 98 99 90 74 69 66 63 61 58 53 48 44 39 32 28 33 72 94
4 5 4 4 5 23 70 78 83 87 91 99 96 92 63 30 26 25 89 100 99 53 56 70 75 72 65 64 76 79 77 77 85 92 84 79 69 63 58 55 51 44 38 31 41 92 100

GFSGBSN_500_rhum_057.txt.gz
RH
13 15 20 23 26 12 10 12 18 54 60 46 16 20 33 52 56 29 67 92 85 99 100 100 100 76 41 24 29 34 33 38 36 32 20 63 84 60 58 82 98 95 96 63 40 50 62
13 16 19 22 26 8 9 11 29 71 60 18 20 31 47 64 30 93 73 83 96 95 100 98 99 100 92 52 42 28 31 34 50 44 26 26 90 62 60 77 77 96 96 82 59 59 90
14 15 18 23 22 6 7 11 46 81 28 19 34 46 60 78 87 100 66 71 95 100 92 75 77 83 85 76 68 43 28 29 38 59 39 20 87 91 54 65 90 72 96 97 79 76 82
16 16 19 22 11 4 6 13 69 52 20 19 24 21 26 28 96 99 66 72 88 92 79 100 76 70 85 87 68 57 65 51 42 40 52 41 88 100 57 51 90 92 92 96 97 90 81
15 17 19 22 5 3 5 17 80 30 17 17 10 12 15 29 100 89 52 94 86 92 79 87 69 92 89 93 65 51 100 100 72 57 49 36 61 96 74 49 64 82 94 89 98 92 84
16 18 23 12 3 2 5 49 70 24 18 12 8 9 18 60 100 82 66 70 95 86 75 67 99 95 86 100 91 51 62 100 96 96 64 34 50 99 98 65 55 72 73 93 97 90 85
18 22 21 5 2 2 6 78 42 27 19 12 9 10 19 59 84 74 73 90 85 88 87 80 85 78 88 77 74 68 54 96 100 92 44 39 61 90 74 49 52 70 86 90 98 89 89
20 23 15 3 2 2 8 96 28 30 23 14 12 14 18 28 49 74 79 69 70 69 77 67 53 82 88 85 94 98 45 81 100 54 40 49 58 99 100 64 51 60 78 86 94 83 98
20 20 12 2 2 2 12 98 22 34 28 18 20 16 18 19 29 38 34 48 71 83 81 68 83 82 100 100 84 100 92 67 64 43 28 26 82 100 97 66 48 54 71 74 69 88 96
19 19 10 2 2 2 11 99 21 33 30 21 33 21 21 19 20 31 52 68 68 81 93 71 80 100 100 81 64 71 69 97 89 34 37 36 87 100 99 99 49 52 73 88 93 96 81
16 18 11 2 2 2 10 99 23 30 27 27 42 33 35 23 43 65 75 74 100 100 100 100 100 100 100 100 63 43 54 38 22 21 31 57 87 99 98 99 85 53 68 69 58 98 71
17 17 11 2 2 2 7 72 32 22 23 27 34 44 35 35 48 65 65 85 72 86 100 96 92 99 100 100 100 100 96 66 49 70 91 89 98 100 99 95 88 60 63 59 42 93 64
14 13 11 2 2 2 4 45 58 18 18 22 36 54 46 43 43 28 37 56 83 97 86 92 94 100 100 96 100 100 100 100 96 100 100 98 100 100 99 97 94 64 58 50 52 61 94
14 12 10 3 2 2 2 19 90 21 19 18 30 42 56 60 39 40 37 46 34 55 52 77 56 62 77 98 100 100 100 100 100 100 100 100 100 100 99 94 81 66 52 44 42 53 77
11 11 8 4 2 2 2 4 63 43 18 16 26 34 54 50 46 39 46 44 39 44 53 67 82 63 67 84 52 62 92 100 99 80 96 100 100 100 100 100 100 84 52 42 37 38 69
10 12 9 4 2 2 2 2 7 84 25 17 21 27 37 42 45 55 52 45 44 38 42 68 76 72 96 49 57 82 94 95 94 100 96 98 100 100 100 100 100 100 100 82 55 46 49
12 13 9 4 2 2 2 2 2 27 52 17 20 29 28 41 46 42 59 41 31 38 46 40 38 38 48 53 49 70 87 87 96 98 96 98 98 100 98 99 98 100 100 100 98 76 67
12 13 9 4 2 2 2 2 3 5 72 31 16 25 39 26 46 45 52 46 38 29 34 49 47 44 43 53 77 78 82 81 85 94 100 100 100 96 99 98 99 95 90 91 89 97 95
18 12 7 3 2 3 3 2 2 3 24 71 26 16 28 29 27 43 42 56 42 35 28 38 30 26 24 31 50 64 72 77 74 84 88 88 88 90 84 83 79 72 59 55 59 53 60
21 15 10 3 2 3 3 2 2 6 11 72 50 22 17 30 17 17 29 36 42 41 41 39 35 36 37 36 51 62 69 75 77 73 80 84 80 71 70 67 62 51 39 32 32 34 44
20 18 10 3 2 3 3 3 3 9 7 43 83 35 18 18 27 13 13 16 22 30 25 21 21 23 26 26 33 47 64 74 78 80 77 78 76 71 62 61 59 60 66 63 49 50 42
21 21 10 3 3 3 3 3 3 18 12 34 74 82 29 16 25 27 14 13 22 24 24 22 24 30 28 40 52 57 68 72 73 85 83 90 92 87 79 71 66 59 60 74 84 65 41
22 20 4 3 3 3 3 3 4 21 37 27 72 95 63 26 18 25 30 17 12 18 25 34 35 45 43 56 67 65 63 65 74 77 90 85 77 70 67 55 49 43 42 44 49 41 39
19 4 3 3 3 4 3 3 4 23 48 60 70 91 95 62 31 19 29 33 36 32 30 42 47 49 52 47 63 84 87 87 68 80 74 46 47 50 54 46 42 40 35 37 40 36 41
4 3 3 3 4 4 4 3 4 42 48 76 84 82 99 98 79 43 18 25 35 41 46 55 60 59 53 55 68 74 80 84 80 74 51 37 34 37 38 35 34 35 39 46 45 41 36
4 4 3 4 3 4 4 3 4 57 56 70 85 59 96 100 98 94 62 30 18 32 50 58 54 52 55 57 63 68 82 91 74 53 36 34 34 35 34 32 33 40 44 42 38 34 34
4 3 3 4 3 4 4 4 5 58 76 75 82 57 84 96 100 100 99 90 50 20 25 49 50 53 58 56 55 72 84 91 70 43 33 32 34 33 32 39 48 46 41 37 34 30 33
4 3 3 3 4 4 4 5 6 51 63 81 76 75 74 93 100 100 100 100 100 76 24 28 56 70 78 80 73 73 82 96 81 64 50 37 42 48 49 53 48 44 41 37 36 34 41
4 3 3 3 4 4 4 5 21 42 64 96 99 96 89 92 97 86 91 100 100 100 97 34 48 74 76 82 85 88 91 100 93 80 73 67 59 62 57 55 51 47 46 42 35 32 37

GFSGBSN_500_rhum_060.txt.gz
RH
8 10 11 16 19 5 2 2 3 10 49 55 20 9 7 8 11 36 80 100 97 66 70 73 83 84 66 22 18 32 53 52 47 46 30 20 19 74 80 58 78 98 88 80 92 75 88
7 8 12 17 14 3 2 2 4 22 60 27 7 7 8 8 15 72 100 100 88 67 82 100 100 100 100 80 35 18 34 50 48 50 46 27 19 32 86 63 71 89 100 99 90 74 78
8 9 14 18 7 2 2 2 8 52 42 13 8 8 8 11 43 94 100 85 56 75 100 98 91 100 100 100 77 23 24 41 48 63 48 33 26 21 78 82 62 79 97 96 86 70 61
9 11 15 16 6 2 2 3 16 56 30 9 10 8 7 28 86 99 91 60 71 93 95 89 98 71 96 96 91 61 26 33 41 77 62 51 40 24 71 91 67 63 88 96 97 86 96
9 12 15 17 5 2 2 4 51 43 18 12 10 9 8 21 61 90 70 65 86 95 83 66 67 71 72 76 77 76 46 33 38 56 81 76 52 26 57 87 93 82 68 80 97 97 97
10 11 15 17 4 2 2 4 69 32 12 20 13 14 14 13 32 54 76 84 76 81 74 61 67 95 77 66 69 53 63 42 70 60 86 98 61 43 42 76 90 86 74 70 80 94 98
10 12 16 16 4 2 2 9 72 27 13 26 20 30 21 16 18 33 54 64 97 96 100 81 85 73 98 82 66 76 46 37 64 55 100 61 72 45 26 44 89 78 69 82 89 93 95
10 12 17 17 3 2 2 11 66 23 15 35 27 36 26 41 53 58 55 60 56 53 54 64 56 60 96 80 78 59 100 100 55 66 51 54 49 50 48 72 100 91 59 76 97 77 92
10 11 14 16 5 2 2 7 61 24 15 40 31 33 36 50 54 70 95 54 39 42 40 49 61 83 86 77 100 97 100 98 100 83 54 61 38 33 37 72 97 85 56 60 79 62 86
8 10 14 16 10 2 2 4 41 29 14 30 43 34 28 36 45 48 91 73 67 92 94 97 90 88 90 60 100 100 98 100 100 100 94 65 38 28 40 84 100 84 62 60 66 64 93
9 11 14 17 16 2 2 2 16 49 14 19 35 39 35 23 41 48 71 91 94 100 100 100 97 99 100 100 82 73 92 99 86 66 50 36 33 41 72 88 100 98 61 56 61 82 91
10 9 12 15 16 3 2 2 4 67 23 16 24 36 30 28 39 60 57 43 55 87 100 100 94 98 100 60 50 33 42 66 58 34 26 30 36 61 100 100 94 89 58 52 61 82 91
9 10 9 12 19 5 2 2 2 17 44 16 23 30 26 30 30 36 51 56 45 80 100 80 100 71 94 60 80 92 61 82 46 48 44 45 46 49 99 100 99 99 86 56 59 73 83
9 11 9 10 17 11 2 2 2 3 50 23 18 24 34 27 35 28 32 47 46 70 81 84 99 100 53 100 100 100 84 99 63 50 47 61 78 96 100 89 99 100 100 84 56 65 72
12 12 10 10 14 17 3 3 2 3 7 49 16 22 25 35 29 26 29 32 45 62 82 96 93 99 100 100 99 100 100 99 97 100 100 94 87 96 97 100 97 89 90 86 73 62 68
12 12 10 10 11 17 5 3 2 2 4 50 27 17 23 24 28 31 28 30 46 68 72 61 62 78 57 42 61 100 98 98 99 100 100 100 90 89 95 100 98 100 97 89 70 75 65
13 10 9 10 10 12 5 3 3 2 4 16 60 20 19 22 31 25 28 33 29 52 47 54 71 57 52 55 57 73 82 92 90 84 93 100 99 93 95 98 98 93 100 85 75 60 56
13 11 8 8 8 9 6 3 3 2 4 7 70 43 19 20 23 25 29 28 30 31 28 31 40 34 36 37 43 66 77 78 96 100 87 94 98 100 100 100 99 99 92 96 85 83 72
14 11 8 7 8 7 4 3 3 3 3 8 36 86 28 15 17 25 36 33 43 31 38 38 31 32 24 35 58 65 70 72 79 95 98 89 87 97 96 100 99 100 100 99 100 98 99
17 12 8 8 6 6 3 3 3 3 3 11 14 81 59 22 16 13 32 40 36 39 38 37 35 27 35 30 39 55 62 63 66 78 83 85 79 79 89 99 97 98 98 91 74 79 72
17 12 9 6 5 4 3 3 4 3 3 5 17 43 95 36 18 16 12 22 34 40 39 39 39 34 36 34 37 47 53 59 61 64 63 68 75 75 74 75 77 70 63 52 43 39 46
18 13 9 6 4 4 3 3 3 3 3 5 46 25 68 97 24 16 16 10 16 21 29 26 21 23 25 26 26 41 57 66 67 65 66 76 78 75 69 64 62 61 61 61 50 53 37
20 15 10 7 4 3 3 3 3 3 3 5 46 64 38 96 63 24 21 19 12 20 22 24 23 25 37 50 55 60 57 65 75 75 82 81 81 82 78 75 67 61 62 59 61 71 75
22 14 7 5 4 3 3 3 3 3 3 5 42 76 76 80 97 38 19 26 19 11 13 21 24 32 51 44 38 49 73 72 68 70 78 91 84 78 76 71 67 60 52 49 54 65 71
22 13 6 4 4 3 3 3 3 3 3 7 59 79 90 74 98 78 38 20 28 24 26 25 30 42 44 46 53 59 63 77 82 80 73 81 68 59 72 56 60 52 54 41 37 41 43
22 19 7 5 4 3 3 3 3 3 3 4 53 71 89 61 82 100 90 58 22 23 27 28 38 54 66 59 54 54 60 76 80 78 78 68 46 36 44 43 43 37 41 40 39 45 45
25 24 9 4 4 3 3 3 3 3 3 8 37 60 74 69 63 96 98 100 87 40 20 22 38 50 58 54 50 52 60 70 81 83 68 57 36 33 33 33 33 35 41 44 48 44 40
25 25 9 5 3 2 2 3 3 3 4 17 43 68 86 94 73 85 80 100 100 100 86 49 22 24 45 54 52 48 58 72 83 86 70 44 32 32 31 32 34 44 48 46 44 41 36
33 33 10 4 2 2 2 3 3 4 6 32 68 83 84 89 97 92 97 100 100 100 100 100 87 33 30 63 69 74 74 81 90 97 79 60 47 42 43 44 48 49 50 47 42 40 37

GFSGBSN_500_rhum_066.txt.gz
RH
23 20 16 12 10 9 10 11 8 2 6 28 20 21 21 21 36 37 19 64 98 100 93 92 96 94 71 33 31 29 30 86 100 98 66 29 18 19 39 75 82 98 97 97 97 92 96
22 20 20 13 10 9 10 13 10 3 5 28 19 21 27 26 46 51 35 22 75 86 81 77 74 70 68 65 35 16 27 28 100 100 89 52 24 18 19 48 84 98 97 98 92 99 97
24 22 25 16 11 10 11 14 12 3 4 24 19 19 26 27 47 58 54 35 32 41 53 60 86 100 85 93 68 28 14 26 47 100 99 84 43 23 19 24 77 98 98 95 92 96 97
30 23 24 20 12 10 11 15 14 4 3 18 21 19 23 30 48 61 69 67 44 47 54 94 100 98 89 79 82 74 42 16 29 86 100 95 76 48 22 21 59 98 98 91 98 94 94
35 24 23 24 11 10 11 14 15 4 2 16 26 19 21 26 45 78 91 100 60 49 48 55 74 82 80 82 100 100 100 25 28 40 100 100 100 67 40 19 51 95 97 83 96 94 97
36 28 22 25 10 10 11 16 16 5 2 8 30 20 21 27 34 80 84 100 96 43 58 53 55 69 82 94 89 93 100 58 32 32 92 100 100 98 53 23 32 48 72 75 76 95 87
38 31 24 27 12 10 12 14 16 5 2 5 31 20 18 20 33 60 58 96 100 97 69 47 53 74 82 65 78 94 100 68 39 32 96 100 97 69 34 31 21 30 64 86 74 91 96
39 36 28 29 15 10 11 15 14 6 3 3 28 20 18 17 37 41 49 95 100 94 100 82 52 66 53 69 64 76 100 79 82 44 81 99 78 88 62 38 24 30 43 62 99 93 92
36 39 33 30 18 12 12 16 13 7 3 3 20 25 21 24 30 36 58 82 81 89 100 78 57 51 54 56 72 99 99 100 99 81 100 90 74 86 65 41 29 25 40 63 75 81 77
37 39 35 32 22 11 10 12 13 10 3 3 8 33 21 21 22 39 56 57 54 98 95 100 71 43 50 57 80 95 100 99 100 98 100 86 88 71 63 45 33 27 27 35 54 72 68
38 36 38 33 23 11 11 11 13 11 4 3 4 37 20 24 21 28 51 64 34 52 94 100 100 98 48 58 62 99 96 99 89 79 94 82 81 62 68 53 38 34 32 27 32 49 55
40 36 39 32 23 15 12 12 11 11 5 3 3 25 21 25 25 23 40 62 33 35 76 83 86 100 100 51 69 100 100 100 100 100 100 96 79 83 72 59 48 40 33 30 39 39 44
43 38 40 30 23 16 12 11 11 10 6 3 3 9 30 19 23 19 25 57 38 27 66 73 56 70 100 97 50 61 84 97 99 100 100 100 82 64 67 61 51 39 30 34 48 51 35
44 39 39 31 23 16 12 11 9 8 6 4 2 4 40 16 20 19 25 39 43 73 95 76 97 99 82 79 100 100 90 48 44 94 87 88 84 52 40 39 33 30 33 53 69 59 55
44 41 40 33 19 18 13 10 8 8 6 5 3 3 21 29 16 20 27 37 29 36 65 78 64 90 84 59 58 79 89 87 78 68 94 73 67 60 48 35 30 31 26 48 72 80 75
43 42 43 35 26 19 13 11 9 8 7 6 3 3 6 41 13 16 19 26 35 34 35 52 53 61 85 78 58 44 54 56 81 76 76 61 59 56 52 43 38 43 98 83 81 83 70
48 48 45 36 29 20 13 11 9 8 7 6 4 3 7 13 43 16 16 21 35 34 40 51 50 46 55 76 80 74 49 49 48 51 48 60 50 50 45 28 40 48 70 75 93 84 75
54 52 50 40 30 22 15 12 10 8 7 6 5 3 5 9 55 18 20 20 21 36 36 37 38 38 50 54 72 80 76 62 38 48 54 79 85 54 37 41 49 70 77 86 96 86 80
58 62 55 45 30 22 15 12 10 8 7 6 6 3 3 7 19 74 18 23 24 25 32 35 39 34 26 44 60 62 72 74 69 58 75 91 87 85 54 52 56 66 63 81 87 82 82
58 63 59 52 29 22 16 11 10 9 6 6 6 3 3 6 25 34 67 19 32 29 27 26 25 28 28 33 40 58 55 68 77 84 82 89 78 80 82 82 78 83 80 92 88 76 83
61 70 65 57 31 21 17 12 9 8 6 6 5 3 2 7 29 43 84 22 28 38 29 27 27 32 34 31 34 43 54 62 63 74 81 86 99 97 81 77 88 92 96 97 77 78 82
68 72 71 65 38 23 18 13 10 8 6 6 5 3 2 4 26 52 40 84 22 27 40 42 37 36 36 32 30 30 42 49 56 60 64 86 92 93 95 96 93 90 88 92 79 71 67
69 80 83 68 45 25 22 15 11 8 6 6 5 3 2 3 20 53 70 67 44 25 17 26 36 37 29 24 26 26 27 40 54 58 60 59 72 81 85 84 80 74 78 88 96 90 89
70 80 85 74 35 28 25 21 14 8 6 5 5 4 3 3 10 42 88 76 94 27 22 16 18 23 30 26 27 35 43 57 59 64 65 66 64 61 65 79 72 76 72 66 65 66 60
71 81 84 68 44 33 31 27 18 10 7 6 5 4 3 3 12 44 64 87 67 83 25 26 18 25 27 26 29 33 39 38 56 77 75 70 68 72 69 71 74 78 74 72 66 62 60
82 90 88 67 41 36 34 29 30 15 8 7 6 5 3 4 13 53 70 82 72 96 48 25 29 19 14 19 27 39 38 48 55 62 70 75 78 70 74 75 76 72 70 68 66 61 54
92 94 80 53 42 35 30 30 35 21 14 7 5 4 4 4 24 70 89 96 74 80 100 76 36 28 34 34 35 35 43 51 48 54 58 69 83 78 75 77 52 46 82 71 60 56 59
96 93 80 64 51 42 39 39 39 34 22 10 6 4 4 9 36 56 69 91 88 77 100 100 94 60 32 33 35 41 44 52 49 43 42 52 72 82 74 68 45 39 43 72 52 58 59
94 89 78 69 57 59 52 49 38 29 19 10 6 4 6 12 32 40 44 54 83 76 95 100 100 100 97 74 50 54 34 45 47 51 48 54 66 80 73 52 38 37 38 40 40 49 56

GFSGBSN_500_rhum_069.txt.gz
RH
29 31 30 28 24 17 14 12 12 14 5 3 14 23 20 17 45 53 52 63 73 35 84 87 72 98 100 36 51 39 44 98 95 100 96 44 18 18 36 58 69 100 99 98 97 97 97
28 31 33 26 26 20 14 13 13 15 5 3 12 22 21 17 35 44 66 91 77 35 33 75 81 75 79 83 38 44 36 62 98 100 96 65 20 18 24 61 61 97 82 96 91 98 97
28 33 33 28 25 22 17 13 13 13 8 3 10 23 22 16 32 43 75 96 94 44 44 48 62 68 70 85 54 32 39 37 88 99 99 89 39 19 18 36 76 65 68 89 95 98 95
28 30 30 26 24 24 18 13 12 15 9 3 9 25 22 16 34 48 70 63 96 60 46 60 100 100 98 78 71 40 34 40 45 100 100 100 77 25 19 20 48 75 70 90 97 97 97
28 27 30 24 25 22 17 15 14 16 12 3 5 27 22 16 34 48 41 53 95 86 69 59 60 82 90 70 68 64 62 27 37 56 100 100 99 54 20 19 21 40 74 82 99 94 98
28 28 26 25 26 22 17 15 14 15 12 4 4 29 22 19 32 50 33 44 88 100 73 71 51 64 74 78 81 71 98 35 30 36 78 99 100 84 37 20 15 14 41 76 95 98 95
28 30 22 26 26 22 17 14 14 17 13 4 3 21 21 22 25 47 29 38 65 91 95 51 60 57 72 69 99 100 100 94 35 35 44 100 98 69 41 25 18 17 29 70 96 96 94
29 28 24 26 26 24 20 15 14 16 14 6 3 11 22 25 27 40 42 28 48 90 91 80 47 63 60 56 84 100 98 59 52 35 41 100 84 100 90 50 25 18 31 58 82 99 98
30 28 35 31 26 28 22 18 15 16 15 10 4 6 23 24 23 30 41 25 41 71 96 100 73 57 55 54 65 99 80 85 57 42 60 91 96 99 94 64 32 20 33 54 78 98 95
35 30 36 33 28 28 25 19 14 16 15 11 4 4 24 20 21 24 31 28 45 56 94 100 97 56 58 55 61 89 100 100 98 73 62 90 100 94 89 61 39 22 28 39 54 85 90
35 38 35 33 28 28 25 18 17 14 14 11 7 3 23 18 20 22 26 36 45 59 78 100 92 77 62 67 81 96 87 100 100 96 100 91 97 95 94 59 43 28 24 34 41 51 65
41 43 37 30 30 32 24 19 17 14 12 10 8 3 15 22 22 20 31 31 48 55 92 98 100 58 72 95 86 80 100 98 98 100 100 99 96 100 92 65 42 31 27 25 23 27 20
48 45 39 30 34 35 24 19 19 13 10 10 10 4 6 29 18 20 32 33 53 60 58 97 92 70 68 74 70 79 99 100 100 95 100 99 94 84 79 62 44 34 30 27 28 26 18
44 45 42 34 39 36 24 22 15 16 10 8 10 7 4 20 15 18 23 34 53 57 59 83 89 82 70 86 94 88 73 90 100 100 99 98 96 80 76 59 45 40 35 31 27 20 23
39 49 47 41 43 40 25 26 14 19 12 9 10 11 4 5 29 18 19 28 36 42 48 48 68 70 81 99 73 68 88 98 74 54 82 82 81 72 68 67 58 44 38 35 27 28 57
49 48 48 48 48 44 27 27 18 18 10 9 10 8 4 3 18 17 20 22 26 26 34 33 51 64 58 52 72 76 56 61 92 93 98 96 98 75 60 61 54 45 41 32 26 26 31
55 51 47 59 55 56 30 24 23 15 11 9 8 7 4 3 6 40 15 22 23 24 32 33 33 42 76 62 51 51 57 61 53 73 91 84 79 71 57 48 42 32 25 27 49 48 45
54 49 48 59 62 60 36 24 25 16 12 8 7 7 5 3 4 20 27 19 24 36 44 33 28 30 44 86 78 47 46 49 48 57 58 58 56 48 51 50 48 38 29 34 48 53 49
53 48 51 54 65 58 57 25 29 18 14 9 8 7 6 4 4 10 39 39 19 27 36 42 38 31 29 58 74 83 54 45 40 38 36 58 69 43 41 42 46 37 25 47 42 56 38
55 56 53 56 59 54 63 32 35 19 12 8 8 7 7 6 4 6 24 70 25 27 29 32 29 31 27 32 43 63 78 93 92 76 82 84 93 90 77 46 33 34 46 69 61 49 54
52 61 53 55 53 52 60 37 34 20 12 11 9 7 6 7 4 4 28 41 56 28 38 32 30 28 27 26 31 41 55 72 93 98 100 100 100 98 96 92 85 57 64 57 56 73 66
59 61 54 55 52 56 63 41 28 20 15 12 11 8 7 7 4 5 14 41 76 28 36 46 38 37 37 33 30 34 43 49 56 60 74 91 99 100 98 88 76 78 71 70 70 72 72
65 60 56 52 52 59 67 45 26 21 19 17 14 10 8 7 5 6 14 30 43 83 30 35 42 46 40 36 28 26 24 33 46 49 53 58 69 87 92 97 93 79 83 79 85 83 84
68 60 62 54 54 58 69 44 30 27 26 23 23 13 12 8 6 7 25 44 71 58 64 29 23 25 33 35 27 25 26 26 40 51 59 59 61 60 66 75 73 82 75 72 77 80 81
72 65 68 70 62 59 67 49 37 36 34 30 28 20 17 13 6 9 32 55 70 81 84 34 26 15 18 23 30 27 28 37 41 52 63 65 63 63 58 63 62 64 73 74 68 68 66
87 88 91 79 80 69 64 62 48 43 26 25 23 19 14 13 7 9 37 71 68 86 86 86 31 29 18 25 28 27 31 36 38 40 56 72 71 71 67 67 70 72 74 73 73 70 66
98 91 93 83 77 74 68 60 45 29 25 23 20 16 13 11 7 7 29 52 73 90 85 84 63 33 33 23 18 19 29 42 39 42 60 59 63 65 68 66 70 78 72 65 68 62 62
96 96 95 78 83 74 68 49 38 32 26 24 24 18 15 14 7 8 24 33 47 65 100 87 93 71 44 36 35 37 39 39 50 56 58 52 46 63 74 71 75 74 62 46 62 67 62
98 97 93 94 78 75 63 50 40 34 33 32 26 18 16 11 8 9 23 24 26 32 72 84 86 100 96 94 53 46 47 45 57 59 53 50 44 53 73 85 70 62 48 40 44 67 58

GFSGBSN_500_rhum_072.txt.gz
RH
20 24 25 20 21 20 19 21 19 14 14 14 7 5 19 17 20 42 32 45 61 54 28 28 98 91 56 78 42 32 47 98 100 99 94 74 25 17 17 15 42 37 98 94 98 97 96
24 24 29 19 20 21 22 21 19 17 14 14 8 4 20 19 30 46 32 48 64 58 45 31 34 86 66 85 70 40 41 60 100 100 100 94 35 18 20 24 41 42 44 91 97 98 96
25 27 28 20 20 23 22 22 22 18 15 15 9 4 17 22 20 39 28 42 60 61 71 36 50 63 80 73 72 58 41 52 78 100 98 99 70 19 20 28 50 52 48 76 94 98 98
26 28 25 20 22 23 22 23 22 18 16 14 10 5 16 22 26 36 34 31 44 75 85 45 44 76 66 66 65 65 49 49 60 100 100 100 100 40 18 22 41 63 59 75 98 96 97
25 28 26 20 23 25 22 21 21 18 16 13 11 5 12 22 22 30 34 30 46 81 90 71 40 62 81 81 57 58 56 45 53 80 100 100 100 80 19 19 34 46 48 72 94 98 94
34 32 29 23 24 24 23 22 21 19 16 13 12 6 11 21 22 27 30 41 60 85 93 82 50 49 63 81 64 61 50 42 51 59 100 100 100 91 23 18 15 17 28 42 71 87 95
41 37 32 28 27 25 23 23 23 19 16 14 14 6 7 20 22 25 26 49 65 81 89 86 54 50 67 80 88 72 97 65 61 61 88 100 100 78 44 18 17 21 22 39 49 57 81
42 41 35 36 32 27 25 25 19 20 18 14 13 11 4 21 19 25 27 52 70 70 83 78 66 50 55 72 93 92 100 89 68 56 66 100 92 96 62 24 18 18 18 27 66 85 83
42 41 37 41 35 29 26 28 19 21 18 13 14 13 4 20 16 25 25 59 65 70 76 80 68 46 42 55 94 98 100 100 48 48 52 94 95 94 78 38 21 19 19 24 72 97 96
46 45 46 45 36 31 29 30 21 22 18 12 12 11 4 15 16 24 27 44 58 81 76 100 79 59 35 47 84 95 74 100 49 44 39 98 100 100 77 56 36 25 23 29 51 64 70
51 48 50 47 36 32 31 29 23 23 17 12 11 9 5 10 17 21 34 36 57 82 77 91 94 100 63 41 61 72 68 90 65 51 37 90 87 89 83 81 60 37 31 30 45 68 71
50 50 49 46 39 32 29 30 25 25 19 13 10 9 5 5 19 18 35 33 47 58 96 85 89 100 98 56 61 72 74 84 100 55 37 96 100 100 100 91 83 55 31 28 34 40 55
52 55 46 49 42 35 28 33 26 26 18 14 10 10 7 4 11 16 27 38 42 44 73 64 55 88 85 52 57 92 66 68 61 67 54 99 100 100 99 100 77 48 26 26 27 34 37
58 59 54 51 43 41 29 30 26 28 19 17 11 10 9 6 4 21 16 30 38 38 48 88 86 63 60 40 81 100 100 100 100 100 72 88 100 100 84 89 72 47 34 26 22 26 27
60 63 58 54 46 43 36 30 28 30 24 14 12 9 9 7 4 15 18 19 35 32 33 55 66 100 83 54 52 81 88 97 100 100 100 96 93 89 78 82 67 48 34 29 26 24 24
62 67 62 55 54 45 36 29 33 35 25 15 14 10 9 8 6 4 33 18 28 26 29 28 57 58 75 37 39 47 56 54 83 100 100 100 98 83 74 72 57 46 41 35 30 30 25
68 70 60 56 55 47 36 30 35 36 26 18 17 12 10 10 8 4 17 24 21 38 32 30 26 48 47 68 54 68 63 53 39 61 60 96 87 81 79 67 64 55 45 38 37 29 22
69 72 55 57 52 49 40 34 37 34 26 20 19 17 12 11 12 5 5 26 23 27 42 35 29 33 52 44 47 60 67 66 61 50 60 85 76 81 75 72 69 60 51 50 38 26 31
73 63 60 54 52 51 41 39 39 34 28 21 24 22 15 13 17 9 6 20 52 25 35 43 37 29 36 54 55 40 48 52 66 71 82 80 80 84 80 68 52 40 43 40 35 34 25
61 59 61 52 51 45 44 38 42 36 33 26 27 23 19 16 14 11 6 21 50 59 38 36 38 37 29 39 56 61 43 43 44 43 44 46 46 46 49 49 56 52 52 49 46 30 25
61 62 64 58 52 42 42 42 46 40 38 34 30 22 16 12 12 11 8 17 46 87 36 38 35 30 30 31 36 48 58 72 63 56 45 44 50 67 94 81 49 40 32 42 39 34 53
65 69 74 67 61 54 44 43 51 52 43 36 32 20 14 10 11 12 11 17 49 53 37 47 39 37 30 28 32 36 44 51 64 88 93 94 100 100 100 100 99 84 46 32 41 60 49
76 72 76 67 64 62 58 52 55 55 47 42 26 20 16 11 9 10 8 20 34 74 73 35 45 42 42 35 35 35 40 46 58 58 62 67 73 85 96 98 98 89 98 91 70 70 80
85 76 72 73 62 63 62 53 48 56 51 35 27 23 21 14 9 8 7 23 50 49 93 76 32 39 44 43 38 31 29 26 28 39 48 61 62 56 61 73 74 94 97 99 98 97 92
94 84 76 72 72 70 66 58 54 55 50 33 30 29 24 16 8 7 7 17 54 66 82 69 72 28 30 31 35 33 28 29 31 35 48 58 65 64 57 61 58 59 64 76 79 80 73
95 93 87 80 71 75 70 67 72 58 50 36 35 31 22 12 8 6 7 10 31 67 84 88 79 49 27 18 20 22 30 32 37 37 35 41 64 70 68 67 65 68 64 58 58 65 63
95 93 95 86 78 88 73 77 84 68 51 46 40 30 21 14 11 7 6 7 19 39 61 89 81 85 42 35 22 27 33 29 33 41 48 45 45 54 63 58 60 74 72 74 65 57 60
99 98 99 93 83 83 83 94 84 71 54 49 38 30 21 16 11 8 5 7 16 24 28 63 89 81 80 38 37 30 24 22 27 43 48 52 46 51 56 56 68 75 73 76 71 57 53
97 100 98 95 89 84 90 89 87 67 57 49 35 29 22 17 12 8 5 6 15 24 22 15 50 87 84 72 50 47 43 38 46 50 49 60 55 47 47 51 55 68 70 69 70 54 45

GFSGBSN_500_rhum_075.txt.gz
RH
36 23 25 29 19 20 21 20 20 19 17 13 11 12 8 6 16 23 27 27 43 59 68 66 36 31 100 97 78 65 30 54 100 100 100 100 63 28 22 15 12 14 51 100 97 95 96
41 26 25 28 25 23 23 21 20 20 17 13 11 10 8 6 16 21 24 33 53 64 67 61 44 31 95 90 72 60 40 46 96 100 100 99 75 24 24 18 14 11 21 53 71 96 98
43 32 25 27 28 27 26 22 19 20 19 12 11 10 7 7 14 20 24 30 53 67 67 57 51 37 64 98 74 83 59 38 78 100 100 100 88 21 22 20 35 14 22 37 62 97 98
50 37 31 34 31 33 29 24 19 20 18 15 12 9 6 7 13 20 22 34 60 75 70 51 50 39 79 81 71 69 90 36 60 100 100 100 100 26 23 24 32 20 33 28 43 94 91
50 41 37 36 35 35 32 24 18 21 18 16 11 9 8 6 14 19 25 46 60 81 78 54 42 40 64 81 71 63 87 53 97 100 100 100 100 62 22 28 43 32 25 16 33 89 100
48 46 43 39 37 40 32 26 18 21 20 18 13 9 9 6 14 17 26 35 61 86 84 65 40 44 64 68 78 60 71 89 55 97 100 100 98 96 28 20 24 17 29 19 25 30 88
54 49 47 41 39 40 32 27 17 24 21 18 14 10 9 7 12 16 28 36 59 89 84 86 60 50 75 68 83 72 66 81 59 92 96 89 100 90 64 30 21 25 24 51 43 46 52
59 54 52 46 44 39 32 24 19 23 22 20 15 10 9 7 10 16 27 42 53 78 76 93 89 41 57 66 75 78 67 76 61 87 100 99 97 100 97 34 19 19 22 28 62 74 76
62 57 53 51 45 38 32 24 21 25 23 20 17 12 10 8 9 16 27 32 51 75 75 92 91 59 44 60 75 100 94 64 70 79 98 97 100 100 93 65 20 19 23 37 50 67 68
64 59 52 53 44 38 30 22 22 26 25 20 18 13 12 10 8 16 25 35 47 60 65 86 87 68 53 89 100 98 100 70 72 70 100 100 100 100 91 72 23 19 23 32 35 37 38
63 57 54 52 45 42 31 26 23 26 26 23 20 17 14 12 8 14 28 35 43 48 61 89 100 73 48 74 76 100 85 89 100 80 99 95 100 97 88 76 29 19 20 23 24 25 51
68 58 57 52 52 45 35 28 27 24 25 23 22 19 15 14 10 12 18 33 37 42 66 81 99 96 40 50 58 75 100 71 70 60 99 96 100 100 100 82 40 27 20 21 23 26 47
71 59 60 62 57 49 40 30 29 24 26 24 22 21 16 15 14 6 20 24 32 36 50 82 59 78 60 54 51 41 79 68 56 47 99 100 100 100 99 81 60 41 31 23 23 27 28
75 65 63 65 62 49 46 33 30 24 27 26 24 23 17 18 17 7 20 22 31 42 40 79 54 65 62 56 52 40 55 60 45 41 96 98 99 100 97 90 91 61 45 28 21 17 24
70 66 66 67 62 56 47 34 31 26 28 29 25 24 18 16 13 10 7 29 26 39 41 66 61 35 53 87 95 98 100 68 37 36 64 100 98 98 93 99 81 78 71 48 32 21 24
74 71 71 71 61 58 47 36 30 27 28 31 28 25 17 12 11 12 6 23 27 33 38 40 54 30 38 40 44 75 78 99 92 47 53 76 74 90 83 86 73 70 60 43 29 25 23
71 77 78 76 60 59 45 40 31 31 33 33 29 27 18 12 11 11 7 9 30 26 41 34 47 44 31 40 50 47 73 64 95 100 88 92 91 96 100 80 79 74 60 41 35 29 24
84 83 79 72 66 55 45 45 33 33 39 36 32 25 19 15 10 10 7 6 24 28 35 39 34 55 53 49 57 56 52 78 62 77 74 100 100 100 88 78 68 61 56 48 41 36 30
79 86 82 61 66 51 47 52 37 42 41 36 34 26 23 18 10 9 7 6 15 46 29 41 37 35 54 75 52 45 42 46 85 58 50 91 87 80 75 76 65 57 63 55 47 42 36
82 83 75 62 64 57 60 60 47 43 42 37 34 29 27 20 9 7 7 7 10 28 46 34 43 37 31 44 71 45 43 52 71 78 76 78 94 94 89 86 79 68 64 68 61 44 36
84 81 68 68 76 69 64 71 46 50 44 42 37 35 30 20 10 7 6 6 11 34 60 30 32 37 34 30 36 52 60 35 52 57 59 73 77 68 54 55 66 69 65 56 46 51 42
88 89 70 68 74 65 64 67 55 54 50 47 41 38 33 20 12 8 6 6 13 27 41 45 33 33 34 31 30 36 44 54 61 36 38 44 44 46 52 58 77 84 63 49 50 50 46
94 99 85 80 78 73 66 65 57 62 66 67 52 42 36 22 14 8 6 6 13 26 48 49 31 38 32 35 35 35 35 40 48 55 70 77 78 84 90 88 80 88 100 84 63 50 36
98 97 98 99 89 78 68 68 68 72 78 82 64 45 38 26 15 10 6 5 9 33 46 72 61 39 40 35 38 40 39 36 38 36 47 51 52 55 58 68 78 92 98 97 93 100 83
98 97 99 98 89 74 72 76 80 83 89 90 69 48 39 28 17 12 7 5 7 28 56 77 74 66 38 36 42 40 37 31 30 33 32 41 52 60 59 62 59 62 80 77 85 100 84
98 96 98 98 93 82 78 78 78 74 73 85 60 49 37 26 17 11 8 6 7 14 30 56 80 61 68 33 23 32 34 34 34 37 49 55 54 59 66 66 66 69 64 59 56 55 62
95 96 98 97 95 86 84 83 81 81 82 75 57 44 34 24 15 11 9 6 6 8 20 31 46 78 65 67 31 17 19 23 30 32 38 47 45 44 49 56 57 69 66 69 62 56 58
97 96 93 96 91 87 88 90 87 79 91 81 72 43 33 24 16 12 10 8 6 6 10 20 24 43 83 70 74 36 23 21 30 32 34 41 50 50 49 53 52 61 65 78 70 66 69
98 94 94 91 88 89 90 98 88 80 95 87 69 39 30 23 16 14 11 9 7 6 7 13 20 18 28 90 89 68 43 39 33 30 25 32 45 50 55 59 54 47 52 64 79 73 72

GFSGBSN_500_rhum_078.txt.gz
RH
46 39 39 40 26 32 33 32 27 17 15 10 8 10 9 10 7 8 16 20 26 35 62 62 44 28 25 81 100 89 96 55 78 100 100 100 100 100 70 26 50 46 74 80 63 76 73
52 47 42 44 32 37 35 34 27 18 15 12 9 9 10 10 9 8 16 24 27 42 77 68 50 33 29 84 99 87 75 70 67 100 100 100 100 98 58 30 34 45 80 95 71 61 81
50 53 46 47 34 38 36 33 26 18 16 12 10 10 10 11 9 8 14 26 43 46 86 73 54 35 50 63 100 84 61 72 52 100 100 100 100 97 90 56 26 29 59 90 78 57 75
35 56 49 48 37 38 40 34 26 19 16 14 11 11 11 12 10 9 14 24 50 53 94 80 55 34 62 55 96 72 83 76 72 100 100 100 100 100 96 35 34 22 54 91 82 77 95
37 52 56 50 43 41 42 34 24 19 16 16 15 12 10 12 11 9 14 26 47 58 97 86 59 40 54 78 75 65 84 96 76 100 99 100 100 100 92 35 47 58 37 38 66 90 98
46 49 58 53 49 45 42 33 22 19 18 18 17 14 11 11 12 9 14 29 47 62 97 87 67 48 58 70 75 68 87 100 98 98 100 100 100 100 99 78 64 31 56 40 21 38 33
49 45 59 57 52 46 41 31 23 21 18 18 18 16 12 12 12 9 14 31 45 60 83 89 79 56 58 71 72 64 75 100 99 98 94 100 100 84 88 50 36 45 58 40 17 17 25
55 50 63 63 55 47 41 34 24 21 20 20 17 16 13 12 12 9 14 32 41 54 73 85 90 55 50 59 65 54 58 100 100 98 100 95 96 100 98 56 26 43 42 44 58 39 39
60 53 70 64 54 48 46 39 27 23 20 21 18 16 13 11 11 9 12 32 37 50 70 62 90 55 85 71 100 98 50 100 99 100 100 93 100 87 98 57 25 39 40 33 53 53 41
65 60 73 62 57 50 50 43 32 24 20 21 18 17 12 11 10 8 11 31 32 46 53 64 89 68 100 77 88 100 56 83 87 100 96 95 100 99 92 92 50 21 26 29 30 40 46
71 66 75 64 61 57 56 45 36 26 22 22 19 18 13 10 10 8 10 22 31 42 53 58 97 48 60 93 94 91 90 100 74 98 78 97 100 100 95 91 90 23 21 22 27 25 31
75 78 78 66 68 65 60 47 37 26 22 20 20 18 14 11 9 8 8 23 27 38 59 42 57 57 47 57 93 66 100 100 98 100 96 100 100 100 91 88 84 36 20 21 27 23 17
75 82 79 67 71 70 63 49 39 27 22 20 20 19 15 10 9 7 7 21 23 35 41 45 57 35 44 46 75 71 100 87 97 99 100 100 100 100 98 84 89 58 21 19 18 15 16
75 87 85 76 74 73 65 52 40 29 24 24 22 21 16 12 9 7 6 18 23 33 40 42 64 77 73 35 59 58 100 92 99 100 88 100 100 100 90 84 79 67 23 24 16 14 17
81 87 87 84 79 77 65 53 39 32 26 26 24 22 18 14 9 6 6 10 20 24 42 31 48 68 96 94 46 44 46 61 83 97 100 100 89 91 89 86 82 60 40 28 18 16 20
93 81 90 89 84 78 64 49 44 33 29 27 26 23 20 15 10 6 5 6 15 19 33 46 31 38 60 67 92 76 38 42 48 98 100 92 94 96 86 76 74 73 51 37 33 23 21
100 73 90 95 92 75 61 54 45 39 31 27 27 26 22 17 12 7 5 5 10 22 28 37 44 32 42 59 67 75 98 49 34 80 97 92 91 92 92 81 86 89 76 64 55 51 34
97 82 85 98 96 73 61 57 48 40 34 31 33 31 24 18 14 8 6 5 7 22 23 35 45 50 44 45 56 68 77 84 100 71 92 100 95 93 82 80 80 71 72 72 60 52 41
89 94 96 97 95 75 66 68 50 45 40 37 39 39 29 21 16 9 6 5 6 12 30 33 38 46 62 54 47 56 48 48 52 81 80 78 87 84 88 82 71 64 71 72 68 52 36
86 97 96 97 94 78 78 80 59 50 50 47 44 44 37 26 18 10 6 5 6 10 25 28 37 35 31 47 61 41 39 39 35 45 48 87 78 81 83 82 76 64 67 66 57 47 45
76 97 96 97 96 87 91 88 66 56 54 54 52 50 41 30 19 11 6 4 5 10 15 36 30 37 35 30 32 55 53 40 67 67 58 72 82 78 73 67 67 65 67 65 51 57 39
75 96 96 96 96 96 96 96 83 64 54 70 59 55 43 33 21 11 6 5 5 10 18 27 36 26 32 32 32 35 41 65 58 49 63 67 81 85 83 73 64 61 62 70 68 60 45
100 96 97 97 95 98 97 96 93 80 70 68 62 56 45 32 22 13 8 5 5 7 20 37 31 28 29 31 31 29 30 36 49 67 69 55 54 67 75 72 58 51 72 74 78 74 43
99 96 97 96 96 98 97 96 96 85 70 61 55 53 47 32 23 15 10 6 5 5 12 40 51 41 32 31 30 32 32 32 33 38 47 64 77 79 71 77 69 84 90 78 87 95 78
99 96 97 98 97 96 97 95 96 87 73 67 62 64 49 35 23 16 11 7 5 5 7 19 49 61 48 49 32 31 32 37 38 31 29 28 44 52 52 55 56 57 70 87 88 96 91
98 98 97 97 96 96 96 96 96 88 78 69 66 75 51 36 21 16 11 8 6 5 6 10 21 57 64 54 56 31 40 40 40 37 30 30 34 35 47 54 58 64 65 62 60 64 69
97 97 97 97 96 96 96 96 95 87 92 74 81 74 54 34 22 17 12 9 7 6 5 8 11 22 45 70 62 68 27 29 32 32 34 37 41 48 42 35 37 58 69 69 70 56 56
98 97 96 98 96 96 96 95 95 87 95 90 85 74 48 31 24 17 13 10 7 6 6 5 7 10 19 45 73 69 67 34 22 20 23 32 38 40 41 40 41 49 56 61 62 69 67
96 98 97 96 96 96 96 95 95 86 83 84 82 74 46 35 24 18 15 12 8 8 6 6 5 6 13 18 37 83 87 78 49 35 25 30 33 33 33 44 45 45 53 56 52 60 73

GFSGBSN_500_rhum_084.txt.gz
RH
37 35 44 57 54 46 47 53 50 43 39 33 23 19 15 8 6 6 4 5 8 13 30 43 49 61 80 59 74 26 100 100 94 100 81 100 100 99 99 91 92 92 67 83 100 92 68
45 42 44 62 53 54 50 57 55 49 39 32 23 22 15 7 6 6 4 5 9 16 33 51 47 64 70 53 50 38 100 100 100 97 100 100 100 100 100 100 96 91 98 99 96 98 99
48 44 47 62 63 60 57 61 57 51 39 35 23 23 14 8 7 6 4 5 10 20 39 45 47 68 43 51 45 63 100 91 72 100 61 98 100 97 100 100 98 100 98 96 88 99 99
54 49 47 62 70 65 58 64 59 53 42 38 28 23 15 9 7 6 5 5 10 25 42 42 57 40 58 56 55 92 100 73 91 100 70 100 99 100 77 90 99 97 98 99 98 97 96
57 54 48 54 75 72 64 67 62 53 46 41 32 22 14 10 7 5 5 6 11 26 37 48 50 41 70 60 64 94 100 60 94 100 100 100 100 100 100 94 100 93 96 92 98 98 100
62 60 50 46 80 74 72 69 65 53 49 40 31 20 14 10 7 5 4 6 11 27 37 52 43 42 48 49 69 91 82 68 95 100 100 100 99 100 93 96 93 92 98 98 96 95 92
76 63 68 50 84 77 76 73 64 55 52 40 31 19 14 10 6 5 4 5 12 29 38 51 42 41 54 59 60 62 56 69 100 100 100 100 100 90 98 59 89 95 100 83 76 98 100
93 64 97 55 74 73 79 74 64 58 53 41 30 18 16 10 6 5 4 5 12 28 37 52 40 51 55 93 59 53 53 87 100 100 100 100 100 99 99 88 89 99 98 99 99 98 97
96 72 62 60 66 78 82 75 67 61 56 44 29 19 16 11 6 5 4 5 12 26 36 53 38 43 72 91 99 66 63 97 100 100 100 100 100 100 93 77 100 94 98 100 80 97 94
95 97 66 66 63 85 86 76 72 67 58 46 27 20 15 11 6 4 4 5 13 24 34 57 39 48 78 87 65 78 77 96 100 100 100 100 100 97 100 85 90 83 80 99 81 82 96
96 98 75 93 64 90 90 78 80 70 59 44 26 21 16 10 6 4 4 5 12 20 34 61 43 51 82 93 66 62 81 96 99 100 100 100 100 99 98 100 100 100 90 85 91 90 78
97 96 87 97 61 94 98 80 84 71 56 39 28 20 16 11 6 4 4 5 10 20 44 60 39 56 69 69 67 60 86 100 99 100 98 100 97 88 81 87 96 100 100 88 80 88 86
97 96 97 94 63 94 100 87 86 72 53 38 28 20 16 11 7 5 4 4 9 15 34 60 37 52 55 60 57 70 100 98 99 98 80 79 85 89 86 94 88 92 100 99 90 78 57
94 95 98 96 58 89 98 91 89 71 52 37 27 22 18 12 8 5 4 4 6 13 26 45 45 47 47 76 96 85 68 72 74 88 77 83 79 85 93 100 95 92 94 86 82 61 45
91 97 97 97 74 86 98 94 92 70 52 39 31 27 20 13 9 5 4 4 4 12 22 39 48 21 33 60 84 91 82 75 91 95 93 90 83 89 96 98 99 77 74 75 47 39 32
97 96 96 96 68 90 98 94 93 68 52 39 35 31 22 15 10 6 4 4 4 9 17 32 43 25 21 33 75 91 85 85 71 76 86 75 82 91 100 100 100 100 78 69 47 40 32
90 95 97 97 61 94 97 95 93 67 52 40 38 34 24 17 12 6 4 4 4 6 12 22 39 51 24 46 70 85 78 83 81 90 94 98 93 96 98 100 100 100 100 89 85 48 47
85 100 97 83 65 96 97 96 94 64 51 43 43 36 26 18 14 6 5 4 3 4 8 15 25 36 52 29 55 64 68 71 85 90 92 91 91 89 100 95 97 100 88 76 66 57 37
98 97 98 79 85 98 96 96 93 62 54 54 47 38 29 21 17 6 5 4 4 4 6 12 16 18 34 45 50 38 45 51 63 74 76 70 72 90 92 90 89 99 97 88 69 60 52
92 96 98 81 92 96 96 97 93 67 58 59 49 43 31 25 20 8 5 4 4 4 5 8 13 15 17 22 29 36 44 53 50 47 58 76 65 68 70 74 82 89 94 88 72 71 83
98 98 97 98 96 79 97 97 93 81 63 63 55 48 36 30 24 10 6 4 4 4 4 6 10 15 15 17 16 24 30 28 36 56 60 64 65 67 75 76 72 71 69 67 56 75 51
94 97 98 99 99 80 96 97 93 88 76 73 63 50 42 36 27 13 8 5 4 4 4 4 8 15 20 21 19 20 19 26 33 43 58 54 76 79 58 59 66 64 66 69 70 74 62
98 98 96 99 99 96 95 96 95 92 91 83 74 48 47 41 31 18 10 7 4 4 4 4 5 12 13 18 19 21 20 25 28 42 43 47 48 46 54 69 63 59 81 80 72 64 62
98 98 98 97 98 81 95 97 95 97 95 92 60 52 47 41 34 22 13 8 5 4 4 4 3 5 18 16 21 20 22 22 25 26 27 33 43 46 45 49 43 50 60 64 55 56 58
87 95 97 98 99 85 96 98 96 96 91 73 58 53 44 42 37 27 16 10 7 5 4 4 4 4 5 16 25 30 30 23 23 27 26 29 33 35 40 48 49 52 43 53 46 50 44
99 97 96 98 84 82 98 98 97 92 84 66 57 45 47 44 40 33 20 13 9 7 5 4 4 4 4 5 10 20 38 36 36 28 32 36 46 44 38 33 29 30 48 53 50 47 51
96 98 97 98 91 92 97 97 97 98 94 71 60 51 53 49 42 37 25 17 12 9 6 5 4 4 4 4 4 9 21 49 51 54 46 40 39 40 40 37 32 34 47 52 50 46 52
99 98 98 98 94 95 97 96 97 96 92 88 78 62 56 50 45 41 31 20 14 11 8 6 5 5 4 4 4 5 10 28 59 63 70 71 66 53 46 32 26 30 34 41 40 42 44
97 98 98 97 98 97 97 97 97 97 93 81 69 60 54 52 49 45 40 27 19 14 11 7 6 6 5 4 4 4 6 12 20 48 96 98 96 92 90 72 72 63 40 36 41 38 42

GFSGBSN_500_rhum_090.txt.gz
RH
3 3 6 46 89 92 79 62 65 56 71 69 67 64 63 51 44 29 17 9 6 6 5 6 14 24 39 42 33 30 35 46 36 68 100 100 98 48 47 29 68 41 99 85 73 70 99
6 3 3 5 21 68 63 84 71 61 63 75 66 67 62 54 38 24 16 8 6 5 5 8 19 35 48 39 42 37 41 42 90 96 100 100 92 53 54 33 78 43 87 98 97 80 86
18 9 4 4 4 27 38 61 81 71 62 80 71 70 61 56 37 21 12 6 6 5 5 11 23 44 48 45 61 43 46 75 100 100 93 100 88 99 69 36 80 42 63 80 84 100 84
30 20 12 4 5 5 14 18 88 70 64 85 77 71 62 54 35 20 10 6 5 5 6 15 33 45 45 58 76 47 84 97 100 99 100 97 100 87 72 48 78 45 66 99 77 97 91
29 26 20 8 4 4 6 11 58 83 62 80 82 73 65 52 32 18 8 6 5 4 8 21 41 40 47 82 93 56 90 98 96 98 100 97 100 100 64 55 95 68 85 98 83 98 91
33 26 21 12 6 4 6 7 37 87 70 70 81 76 69 53 29 15 7 5 5 5 11 26 30 43 62 94 100 67 85 98 99 86 93 100 100 100 66 61 98 66 95 96 96 99 94
38 33 26 14 7 5 6 6 20 81 83 72 84 85 77 51 26 11 6 5 4 6 16 21 22 43 84 89 76 58 72 68 79 78 88 100 80 80 97 100 94 89 96 97 100 91 97
21 33 26 16 8 5 6 6 35 93 93 78 87 94 80 42 23 9 6 5 4 8 18 20 22 44 85 78 31 32 55 80 100 82 69 95 100 100 73 98 91 91 97 94 100 100 100
15 7 13 17 12 6 7 8 41 97 86 82 97 94 76 35 19 8 5 4 5 10 15 17 31 49 60 31 43 89 98 100 100 52 100 67 94 100 100 56 86 68 87 96 99 99 94
9 12 10 6 11 8 7 10 10 92 91 74 96 94 69 32 16 6 5 4 5 9 15 17 38 49 42 39 73 97 58 100 89 59 100 99 45 86 100 91 95 85 84 94 98 100 98
5 6 9 11 10 8 10 10 19 97 92 77 96 90 59 30 11 6 4 4 5 8 14 20 41 63 63 51 64 91 100 85 81 65 76 100 98 54 65 100 94 96 99 98 100 96 99
9 5 5 8 11 9 10 11 16 96 98 81 96 85 49 26 9 5 4 4 4 8 14 19 37 33 45 53 59 96 100 100 52 48 71 88 89 78 83 82 97 99 100 97 98 100 99
12 9 4 5 9 10 10 13 13 97 98 88 95 81 41 22 8 5 4 4 4 7 13 18 38 37 41 49 71 100 100 100 73 32 30 44 48 53 51 59 75 97 100 100 98 100 92
23 5 8 3 5 7 7 9 37 98 97 94 92 70 38 18 7 4 4 4 3 7 16 18 28 32 26 35 69 88 93 100 65 81 71 91 62 60 65 65 46 40 70 96 99 98 79
100 88 9 3 3 4 9 8 90 98 88 95 88 66 36 16 6 4 4 3 3 7 11 16 16 26 29 33 30 60 80 82 77 77 69 62 63 74 83 71 100 53 44 65 99 93 84
100 98 10 4 4 3 10 29 98 98 89 96 83 62 36 13 6 5 4 4 3 5 10 13 17 15 29 35 38 35 30 44 48 41 55 62 62 58 58 70 82 99 95 75 67 70 65
100 97 13 12 2 12 100 95 98 97 95 96 74 50 35 11 6 5 5 4 3 4 8 11 13 21 18 27 26 28 36 40 59 76 72 64 59 60 52 49 59 84 80 81 69 62 56
100 87 12 6 63 98 98 98 98 92 92 90 70 48 33 12 6 5 5 4 3 4 7 11 15 15 27 16 17 28 28 38 47 48 48 50 67 68 71 70 69 75 85 89 81 74 70
41 47 74 97 100 97 96 98 95 96 96 82 63 44 30 14 6 5 5 4 4 3 4 8 14 14 16 19 38 47 50 46 48 48 51 59 62 71 77 79 81 82 83 90 97 74 75
100 100 100 99 96 99 97 98 96 92 97 79 54 45 29 15 8 5 6 5 5 4 4 4 7 11 17 19 20 21 30 34 42 49 50 55 57 62 65 70 79 80 80 87 90 91 79
100 100 100 100 90 98 98 98 96 95 97 77 51 46 32 17 9 6 6 7 5 4 4 4 4 6 9 13 17 22 22 26 28 35 48 57 60 58 76 65 72 77 74 72 77 84 76
100 100 100 99 100 99 98 99 96 97 96 69 55 52 40 22 12 8 6 5 6 5 4 4 4 4 6 10 13 15 18 21 19 23 24 34 48 59 67 65 68 77 78 77 80 74 74
100 99 99 99 97 96 98 97 97 98 94 79 65 60 53 28 14 12 6 7 5 5 4 4 4 4 4 6 8 11 14 16 17 17 19 26 35 44 46 50 62 78 84 83 91 88 81
100 100 98 97 100 98 77 97 98 97 94 95 78 70 62 36 18 13 9 6 7 6 5 4 4 4 4 4 5 6 8 14 18 19 21 20 21 22 25 31 37 46 49 52 57 64 66
100 100 100 99 99 100 87 97 97 98 96 96 90 86 82 45 24 16 12 9 7 6 6 5 5 5 4 4 4 4 6 9 17 23 26 33 36 33 26 24 24 24 27 33 36 45 57
100 99 99 99 97 96 97 97 96 97 96 97 95 90 96 65 31 19 14 13 11 8 6 6 7 5 5 5 5 4 5 4 5 7 9 12 28 36 52 51 56 52 48 40 32 31 33
100 98 99 100 98 99 97 89 97 92 98 95 94 94 87 64 35 25 19 16 15 13 8 7 8 6 6 6 5 5 5 5 5 5 6 7 8 9 10 16 34 43 67 72 70 59 41
98 98 100 91 96 98 98 96 96 94 99 96 95 96 94 63 35 32 25 21 22 18 13 10 6 8 6 6 6 6 6 6 6 7 8 9 10 10 12 12 12 12 12 14 18 31 47
98 98 100 97 96 97 99 98 96 98 98 98 96 94 89 59 46 38 31 28 25 22 20 17 13 8 7 7 7 6 6 7 7 8 8 10 11 12 14 14 16 18 20 18 14 14 14

GFSGBSN_500_rhum_093.txt.gz
RH
15 14 17 28 26 8 5 4 18 38 66 85 64 56 68 73 69 69 56 39 20 13 10 9 6 6 15 31 45 43 47 54 42 35 48 67 46 51 77 69 60 21 49 94 99 100 97
19 16 20 22 30 29 12 4 6 14 29 60 75 57 77 80 74 66 60 32 16 13 10 8 6 10 26 39 39 49 67 66 41 61 51 69 48 68 77 85 64 21 47 99 77 96 95
21 22 20 30 28 31 26 10 4 8 18 48 79 66 74 84 80 71 60 27 14 15 10 6 7 17 29 33 48 75 88 54 64 100 100 100 98 99 60 72 64 26 52 76 94 98 98
26 29 30 34 33 30 27 16 5 4 15 26 82 70 78 93 91 82 55 21 16 15 8 6 10 18 24 42 66 96 86 85 97 99 100 100 99 100 85 53 59 34 52 87 95 97 96
32 33 43 45 42 32 27 21 6 7 6 26 79 83 88 96 92 84 46 19 18 12 6 7 13 14 26 49 80 100 78 99 100 97 100 95 70 62 82 62 59 44 52 85 99 98 95
38 36 41 42 43 32 33 26 11 6 8 44 83 94 90 96 93 78 40 19 17 9 6 9 11 20 28 32 40 92 66 91 86 87 100 94 100 100 100 76 70 28 52 86 95 99 98
31 30 33 40 39 39 28 32 17 5 6 36 91 97 97 95 93 67 38 20 13 7 7 8 13 16 27 30 32 40 53 66 68 78 99 88 88 100 100 81 57 28 45 81 80 100 99
11 14 27 27 30 27 30 31 17 5 6 56 90 97 98 95 89 59 29 17 9 7 8 10 17 45 52 76 54 59 90 51 50 63 69 100 100 92 96 95 48 34 68 68 85 99 94
21 18 10 9 22 23 11 29 14 6 7 76 96 96 97 96 85 50 20 14 7 7 8 16 33 28 32 60 86 100 100 85 41 76 94 100 79 66 54 55 50 36 76 59 87 99 99
52 53 50 26 8 17 14 11 16 6 8 41 86 97 96 98 76 39 16 8 6 7 10 18 27 36 49 59 66 85 46 42 40 73 100 100 87 100 90 38 43 47 67 72 87 99 96
70 77 78 54 23 9 18 8 9 7 8 39 84 98 94 97 73 25 11 6 6 8 11 20 25 29 36 88 94 72 34 80 97 100 92 100 100 100 91 89 68 70 79 90 94 88 99
100 100 70 26 12 8 15 8 7 6 9 96 98 98 93 98 63 16 8 5 6 7 11 18 24 28 37 86 100 94 34 48 85 98 84 71 84 98 92 62 76 63 72 91 92 90 99
100 100 100 98 6 6 13 11 7 5 23 100 97 97 93 92 44 12 5 5 6 7 10 16 20 40 68 77 69 39 29 46 74 64 56 70 70 70 75 47 97 100 88 88 96 100 94
100 100 100 87 8 6 10 11 8 7 34 88 97 96 96 78 28 8 5 4 5 6 9 14 21 31 51 81 78 33 47 50 51 50 52 62 79 88 81 96 100 100 96 92 94 74 75
100 100 100 97 13 7 8 10 7 39 95 94 98 97 94 58 18 6 4 4 4 6 9 13 20 18 19 51 70 65 55 78 85 95 80 82 64 71 79 82 96 96 96 100 98 97 73
100 99 100 100 15 6 7 9 6 35 59 94 98 97 84 42 11 6 4 4 4 5 7 12 12 14 17 24 43 65 67 69 58 58 73 63 69 79 68 95 76 60 58 97 100 100 73
100 100 97 100 10 6 5 6 21 77 71 98 96 96 67 30 9 5 4 3 4 5 6 11 15 13 15 21 32 34 33 39 47 56 63 56 45 49 63 61 80 60 38 40 70 81 88
100 80 100 12 6 6 7 37 71 62 96 98 95 90 54 21 8 5 4 3 3 4 5 8 13 18 17 21 20 18 24 24 45 50 47 51 62 60 60 66 85 98 98 87 77 72 62
100 73 56 11 15 6 5 14 74 88 98 98 97 82 42 13 5 4 4 3 3 3 4 6 10 15 20 22 21 28 31 31 42 45 47 54 53 60 62 59 61 60 61 70 63 58 63
100 77 11 47 12 4 10 78 95 98 99 98 91 69 33 10 5 5 4 4 3 3 3 5 6 11 14 18 21 27 37 34 30 35 43 48 46 48 54 49 44 49 55 64 70 79 83
100 20 7 10 17 71 98 99 98 98 97 98 88 56 31 12 6 5 5 4 4 3 3 4 5 8 12 14 15 16 17 19 20 20 22 28 34 34 39 59 59 56 62 72 75 80 80
100 10 68 100 100 99 99 98 98 98 97 98 91 47 29 12 6 6 6 5 4 4 4 4 4 4 5 8 11 13 15 16 16 18 17 19 22 28 36 50 53 57 55 53 57 63 64
100 98 100 100 100 99 99 99 99 98 97 97 79 45 30 13 7 5 5 6 5 5 5 4 4 4 4 5 6 7 11 12 16 14 14 15 16 18 21 27 37 41 37 48 57 62 61
99 100 100 99 98 94 89 97 98 97 96 94 61 45 31 17 9 6 6 5 5 6 5 5 5 5 4 4 5 5 4 5 7 10 16 21 20 20 17 16 20 20 26 25 25 26 28
99 100 100 100 100 95 96 95 97 97 97 93 60 50 35 20 12 9 6 6 7 5 5 6 5 5 5 6 5 5 5 5 5 5 6 7 9 14 18 26 22 22 27 30 29 26 23
98 100 100 100 95 98 99 97 98 97 98 96 66 63 45 28 16 11 9 6 7 7 7 7 5 6 6 6 6 6 6 6 6 6 6 7 7 7 7 7 7 8 11 13 16 43 48
97 98 99 100 100 98 98 88 96 98 97 97 78 80 59 39 24 15 12 10 9 8 7 7 7 7 7 7 7 7 7 7 7 7 8 8 8 8 10 10 10 12 12 10 9 9 9
99 99 100 99 98 97 98 93 96 98 98 97 88 87 88 61 34 22 16 14 14 14 11 9 7 9 7 7 7 7 8 8 8 8 8 9 9 10 11 13 13 17 18 17 17 16 14
96 100 100 98 96 97 97 91 98 97 98 96 96 95 97 70 43 28 22 19 17 18 17 15 11 10 7 8 8 7 7 8 8 9 9 11 11 12 14 16 19 20 20 18 20 22 18

GFSGBSN_500_rhum_096.txt.gz
RH
38 36 32 28 25 23 22 25 28 29 24 13 16 23 71 86 90 77 75 81 79 76 53 37 32 17 8 10 22 27 30 44 53 62 65 58 43 38 38 44 60 52 43 23 34 94 100
41 37 36 33 29 30 28 28 30 24 30 11 47 22 85 90 95 71 78 92 91 73 53 51 27 9 8 13 17 25 45 69 92 85 42 69 78 49 51 34 54 59 50 33 19 65 100
40 36 36 36 36 34 41 36 39 24 21 14 72 92 99 100 96 81 85 96 88 75 66 42 12 8 10 12 20 33 75 99 89 69 77 100 100 83 65 64 44 78 51 49 20 45 96
42 44 43 39 39 41 46 44 42 33 23 25 12 58 68 95 98 95 87 93 95 84 60 20 7 10 10 16 20 44 90 100 68 96 98 80 91 100 92 73 78 75 55 46 26 69 97
52 48 43 41 39 43 50 48 44 41 36 31 15 70 99 75 99 99 95 96 98 80 35 8 10 8 16 25 33 25 78 77 91 100 100 99 100 100 94 100 94 98 51 38 38 69 99
43 31 23 22 26 34 41 52 45 38 36 35 33 100 100 96 98 96 95 100 99 50 14 9 9 12 32 44 47 40 48 74 88 92 90 100 98 94 87 99 89 75 50 34 46 73 98
16 7 6 6 6 7 21 31 45 42 35 38 22 68 100 98 98 95 99 100 78 29 9 8 14 22 41 70 83 72 59 59 62 58 87 98 100 100 90 96 80 69 56 22 65 100 99
6 8 20 24 25 19 11 11 19 43 40 38 25 48 100 97 97 96 100 99 68 16 10 11 27 40 50 69 98 98 87 69 53 40 63 79 98 100 100 93 68 65 55 31 74 95 100
18 38 46 54 58 55 42 28 9 24 36 38 30 20 99 98 98 100 99 99 41 10 10 14 30 62 76 70 56 37 51 52 49 48 82 85 87 78 98 81 63 60 51 39 54 90 97
50 71 91 92 100 99 73 54 19 12 29 37 32 10 92 98 100 100 99 92 21 9 10 15 33 46 79 50 32 38 40 53 73 85 100 100 85 82 100 58 56 48 44 38 70 100 94
88 100 100 96 100 71 72 64 25 10 24 33 26 32 98 97 99 99 100 57 10 9 10 23 36 46 52 46 48 55 76 64 77 82 100 96 98 83 83 63 55 39 38 45 93 91 97
96 100 99 100 98 91 83 23 14 13 17 26 15 89 98 99 98 100 93 28 8 9 11 28 38 37 27 22 39 45 94 79 94 92 96 100 99 100 42 37 41 48 71 80 96 93 99
100 88 89 94 83 100 95 14 11 16 12 23 13 88 98 99 98 100 62 13 8 8 14 30 34 36 28 42 48 51 62 87 78 61 78 98 94 88 82 60 59 58 53 96 89 86 94
71 93 98 100 100 100 76 8 12 12 9 14 38 98 99 99 100 97 33 8 8 8 14 26 32 38 32 31 42 49 44 38 52 87 99 90 100 97 76 84 72 59 51 67 65 78 83
66 96 100 97 100 100 57 10 13 10 8 9 78 98 99 98 100 66 15 7 8 8 13 22 20 30 34 38 47 49 43 71 66 71 68 75 98 93 87 92 100 97 59 63 79 73 94
81 100 100 68 98 98 13 11 11 8 8 39 98 100 98 99 97 29 8 6 7 9 11 14 15 21 25 21 34 52 55 50 56 51 58 71 69 90 99 100 98 100 100 91 76 67 73
72 100 100 86 82 37 7 11 10 8 78 86 97 99 99 99 51 13 6 6 7 8 10 12 13 16 18 23 28 24 26 42 51 48 61 67 70 79 86 91 75 92 100 84 83 73 82
75 100 100 100 30 9 11 12 9 17 89 100 94 98 98 89 26 7 5 5 6 7 10 12 14 15 15 21 20 23 18 38 40 46 58 69 68 64 71 79 73 43 39 45 70 74 78
82 87 100 88 20 10 11 9 20 90 99 97 99 99 100 49 12 5 5 5 5 6 7 9 14 16 20 20 21 30 30 37 47 45 46 44 48 57 70 54 60 55 60 60 47 44 41
93 100 100 77 8 9 9 12 82 100 97 96 100 98 79 25 6 5 4 4 4 4 5 7 9 11 14 17 21 25 30 29 32 39 39 38 36 39 45 42 39 40 46 50 55 56 62
100 72 24 9 7 7 38 80 98 100 96 99 98 98 57 16 6 4 4 4 4 4 5 5 6 7 10 13 14 16 18 19 22 22 24 23 23 23 23 26 25 26 28 30 36 44 55
100 64 7 8 6 22 93 100 100 99 98 100 99 88 32 7 5 5 4 4 4 4 4 5 5 6 6 8 11 12 13 14 14 15 15 16 18 19 18 19 17 19 24 30 34 36 41
67 11 8 7 7 40 94 99 97 98 97 99 96 63 22 8 6 5 4 4 4 4 4 4 4 4 5 5 5 5 5 6 7 10 12 13 14 15 16 18 16 20 22 24 24 20 24
32 24 15 10 41 92 97 97 99 98 97 96 85 38 19 8 6 5 5 5 5 5 5 5 4 4 4 4 5 5 4 4 4 4 5 5 6 8 10 12 12 9 13 15 14 14 14
62 21 47 97 98 98 97 95 93 91 94 99 66 34 18 7 6 5 5 5 6 6 6 7 6 5 6 6 6 6 6 6 6 6 6 6 6 6 6 6 6 5 6 6 7 6 6
85 90 97 99 99 97 100 99 84 91 96 98 51 37 17 9 6 6 6 6 5 5 6 7 8 6 7 7 8 7 7 8 8 9 9 9 9 9 8 8 8 7 6 6 6 6 7
89 91 93 95 95 98 97 98 86 90 95 92 50 40 22 13 9 7 6 6 7 7 7 7 6 8 8 8 7 9 9 9 9 10 10 10 10 11 11 11 12 10 9 9 9 8 8
65 74 84 93 93 94 99 94 82 72 95 80 53 46 29 17 12 10 9 9 8 8 8 9 9 9 8 8 8 7 8 8 8 9 10 11 12 12 13 14 15 14 13 13 12 10 10
73 68 84 99 94 88 95 98 82 70 98 72 61 55 38 26 20 15 14 12 13 14 14 12 13 11 10 9 10 9 7 8 8 9 12 14 16 17 17 18 17 16 17 17 15 14 15

GFSGBSN_500_rhum_099.txt.gz
RH
31 33 36 38 40 47 44 40 37 37 38 38 32 29 20 14 40 99 97 96 99 96 92 97 96 98 76 26 10 8 7 9 14 27 54 60 58 58 54 60 66 74 42 39 31 25 17
32 34 35 35 41 47 47 44 44 44 45 42 28 26 22 51 87 100 99 100 98 91 95 98 97 85 27 10 9 10 15 22 22 66 80 74 68 60 59 58 55 55 64 57 37 31 21
34 37 37 41 46 49 50 46 44 48 51 48 39 22 29 14 32 98 99 100 97 100 97 97 89 35 10 9 17 26 35 28 55 74 56 75 72 72 80 54 38 48 51 68 48 35 22
45 50 48 50 50 43 38 40 39 40 52 53 43 36 30 21 36 93 100 98 98 97 97 92 47 11 10 20 34 50 46 23 49 73 82 55 74 82 99 96 73 55 50 66 50 39 28
60 63 58 44 28 14 10 10 18 28 38 52 48 44 36 26 32 98 98 98 98 98 96 64 14 11 20 26 44 48 47 49 70 82 83 84 89 73 100 100 83 100 68 66 52 46 30
75 64 44 25 12 7 7 7 7 9 23 35 49 41 39 30 70 100 85 98 98 98 90 26 12 21 27 26 29 26 59 44 51 60 67 85 99 98 96 100 72 99 65 56 55 46 24
72 58 34 12 8 10 16 19 15 9 9 18 35 40 36 35 61 99 98 98 98 96 58 12 19 40 17 24 32 31 35 40 37 40 75 90 95 100 97 97 96 100 70 50 51 49 24
65 32 11 11 33 68 68 56 44 35 18 9 18 40 37 34 27 98 98 98 98 89 18 13 21 23 22 27 36 40 49 46 42 59 83 98 98 93 96 84 90 100 76 74 57 58 30
38 11 17 58 86 100 99 100 89 51 42 19 11 35 40 37 37 99 100 99 98 52 13 16 23 25 29 32 45 58 69 77 73 81 99 100 100 100 100 74 100 94 61 63 53 58 47
12 20 81 99 100 99 92 94 79 76 47 31 11 29 40 38 53 100 100 99 94 21 13 16 23 30 35 41 59 57 61 91 99 100 91 76 100 98 100 82 94 89 48 79 65 59 97
16 92 100 100 100 95 97 72 69 75 61 35 11 27 39 34 57 100 98 99 64 12 11 16 21 26 44 46 61 69 91 67 100 100 100 78 100 96 91 63 68 56 67 97 80 74 98
85 100 100 94 79 93 100 100 84 41 50 23 13 30 36 24 99 99 99 98 27 12 15 20 20 33 44 33 42 58 67 74 94 100 100 100 94 89 56 50 50 49 74 98 100 72 89
100 100 100 79 87 76 100 100 85 45 38 15 18 34 30 31 98 99 100 92 11 12 17 25 27 34 42 51 41 47 73 80 85 100 94 97 76 79 62 51 57 58 58 88 71 82 94
100 100 94 97 100 97 100 100 97 26 15 13 26 27 22 93 99 94 100 49 11 10 26 26 32 32 32 37 37 56 67 96 86 100 98 100 100 95 78 87 76 76 84 83 72 97 100
100 100 78 97 98 85 89 86 31 12 11 22 27 25 91 100 99 96 87 13 10 11 26 27 30 34 35 40 48 46 54 60 80 94 100 85 84 100 95 98 82 59 53 68 64 90 96
100 72 85 100 91 85 99 78 9 11 21 26 19 37 99 100 97 100 35 10 9 11 18 22 25 28 22 29 26 49 53 58 69 71 93 96 98 100 100 100 76 75 40 56 74 73 82
31 64 91 100 100 100 77 18 12 22 25 19 30 93 100 99 97 79 12 9 9 11 14 19 20 19 24 24 25 36 47 57 72 68 69 83 92 89 98 99 98 100 80 55 65 62 66
67 83 100 100 100 27 14 13 22 20 22 41 88 97 100 99 100 28 8 8 9 10 12 15 17 19 24 20 26 32 38 51 62 66 64 58 78 77 69 85 96 91 92 82 64 46 51
100 100 100 95 29 9 18 19 12 12 33 76 97 99 100 100 58 10 7 7 8 10 12 15 18 21 23 21 24 36 34 43 48 50 48 50 48 62 57 46 58 53 42 62 66 69 72
100 95 52 10 11 18 14 9 11 23 85 99 99 89 96 75 15 7 6 6 7 8 9 12 15 18 19 17 22 25 23 22 31 30 35 35 34 35 36 35 35 34 32 33 33 31 29
100 35 10 13 15 12 8 38 89 87 92 99 96 98 88 34 10 6 5 5 6 6 8 8 9 11 11 12 14 16 17 17 18 17 18 19 21 23 24 25 25 23 21 21 22 24 26
75 10 14 16 13 9 25 59 86 99 98 98 100 92 41 11 6 5 5 5 4 4 5 6 6 7 7 8 8 8 8 10 11 11 13 15 15 15 18 17 16 14 13 12 14 17 18
10 12 13 11 9 37 91 100 99 96 99 100 100 65 19 8 6 4 4 4 4 4 4 4 4 4 4 4 4 4 4 5 5 6 6 7 8 9 9 10 8 9 10 11 11 11 10
10 10 9 16 20 60 86 96 98 92 97 98 90 42 12 6 5 4 4 4 4 4 4 5 5 5 5 5 5 5 5 6 6 6 6 6 5 5 5 6 6 6 5 4 4 5 5
12 12 10 20 47 88 72 76 85 85 91 92 81 30 11 5 5 4 4 4 4 5 5 6 6 6 7 7 8 8 8 8 10 10 10 10 9 9 9 11 9 8 9 10 11 12 11
12 7 11 35 51 72 84 82 79 79 88 92 66 25 9 6 5 5 5 6 6 6 6 6 6 7 8 9 9 9 11 11 11 11 12 12 13 12 12 13 14 16 15 15 14 9 16
13 26 37 43 52 64 86 88 89 94 94 86 51 25 9 6 5 5 5 6 6 6 7 7 7 7 7 9 9 10 10 10 10 10 11 11 12 14 14 14 14 15 13 13 14 16 16
21 42 52 53 61 79 80 90 86 90 86 77 50 26 10 6 5 6 6 6 7 7 8 9 9 9 10 8 8 8 8 8 8 9 10 14 16 18 20 18 18 21 17 17 17 16 17
27 38 36 48 56 69 80 84 85 87 76 64 62 29 13 9 7 6 6 7 8 9 10 10 11 13 14 16 16 18 18 18 16 12 14 19 24 26 27 30 29 29 26 24 25 25 26

GFSGBSN_500_rhum_102.txt.gz
RH
38 38 40 40 36 40 47 45 44 43 51 51 51 45 45 43 34 29 23 30 70 97 98 95 95 97 98 91 35 52 32 12 9 9 12 13 16 26 38 62 90 72 58 53 29 24 27
44 43 40 37 39 40 43 53 54 50 49 54 53 48 48 46 32 25 23 61 73 94 96 96 96 97 92 31 36 16 12 12 10 11 14 20 29 36 49 55 61 80 88 80 56 34 35
52 50 43 43 44 49 52 62 65 56 47 43 48 48 46 48 34 22 20 17 62 100 100 97 98 94 30 20 16 13 12 14 14 14 27 40 43 50 61 74 55 48 62 69 77 52 44
57 49 49 50 57 65 70 65 51 33 24 17 25 39 43 49 38 23 22 22 82 99 99 98 96 33 19 20 13 14 22 22 32 40 48 57 59 63 68 71 96 83 55 54 64 72 56
55 55 62 73 76 78 74 56 35 19 11 8 10 11 33 46 44 33 27 30 99 99 98 97 60 21 23 15 14 23 34 22 30 34 39 46 53 58 81 80 96 94 88 63 53 68 57
66 76 87 89 92 66 35 13 10 10 9 8 7 8 17 37 44 41 33 27 94 99 98 92 23 23 20 18 20 24 43 37 30 42 63 67 73 88 100 97 100 82 97 88 52 72 51
94 99 100 96 47 14 12 32 43 40 30 20 12 7 9 30 44 42 36 36 97 99 99 31 22 24 19 20 30 42 52 63 55 50 66 97 94 70 72 98 89 100 96 97 70 65 48
100 100 90 25 12 32 80 86 91 80 73 46 26 11 8 25 44 42 28 42 97 100 75 21 25 22 25 29 38 52 72 78 84 87 100 100 99 98 90 55 97 100 100 86 92 58 39
100 74 19 14 62 98 97 97 86 67 68 65 36 25 8 20 41 43 35 56 100 99 19 23 22 21 24 30 40 63 78 86 100 87 96 100 100 86 63 53 100 88 99 82 97 72 50
35 16 34 90 100 99 100 84 72 75 59 70 46 34 10 16 38 43 33 81 100 62 18 23 22 26 27 45 65 68 87 97 97 100 100 80 90 57 88 100 95 99 92 85 73 71 77
84 100 100 100 100 100 91 77 98 77 61 75 51 35 10 11 38 40 39 100 96 15 18 19 30 33 37 45 50 72 100 100 100 97 80 75 72 52 95 95 94 100 80 60 64 100 84
100 100 100 100 100 100 88 94 96 78 63 68 53 35 12 13 40 31 60 100 42 15 21 21 30 40 44 53 62 69 94 90 100 99 77 96 86 84 86 83 81 93 87 100 100 100 92
100 100 100 100 100 100 89 100 86 92 58 65 50 24 10 21 36 40 95 100 15 17 21 33 41 46 51 57 54 74 83 100 100 88 94 100 100 52 41 53 81 100 100 93 100 99 96
100 100 100 90 94 100 92 90 84 69 45 57 32 14 13 36 31 100 100 73 15 14 28 34 33 38 44 49 53 63 85 96 96 100 92 100 94 100 84 63 69 82 100 100 100 94 94
39 37 46 73 98 100 98 100 99 28 32 20 13 13 30 29 72 98 98 19 14 16 26 29 35 33 37 48 53 64 79 86 94 82 99 92 98 100 100 68 68 79 95 95 86 93 96
100 95 91 83 93 97 100 100 46 12 9 11 14 24 29 34 94 100 49 15 12 17 28 32 30 31 28 42 59 73 79 76 89 84 95 98 98 99 89 78 70 66 80 80 83 95 80
85 82 100 100 100 100 99 39 6 9 14 15 28 33 34 95 100 86 15 12 11 18 23 28 27 30 25 34 48 66 63 64 81 90 96 85 97 97 87 66 56 52 51 66 59 68 68
100 90 74 79 87 60 14 7 13 15 24 32 32 61 99 100 96 15 11 10 10 14 18 20 25 26 24 39 45 55 48 52 71 74 86 86 93 97 95 97 88 72 71 60 57 52 58
24 13 6 6 6 8 18 22 21 26 25 39 96 99 100 84 28 12 10 9 10 12 15 16 20 24 25 26 36 37 52 53 42 55 70 79 72 60 85 98 100 89 76 63 55 51 44
8 9 15 21 24 25 22 22 30 43 49 82 99 100 86 39 8 10 8 9 10 13 14 16 20 22 21 20 22 22 24 30 29 30 45 55 56 57 51 47 50 54 42 38 31 18 26
20 22 24 33 39 39 40 53 72 94 92 99 100 96 41 10 7 8 7 8 9 10 12 13 13 14 15 15 13 13 16 18 18 19 23 32 39 36 33 32 30 26 25 24 20 20 16
19 17 17 43 46 49 51 58 71 96 100 99 100 54 11 7 6 6 6 6 6 6 6 7 8 8 8 7 7 6 7 8 9 11 13 15 18 19 18 18 16 17 16 14 11 10 8
18 18 20 24 31 52 73 86 84 89 98 98 81 27 7 5 4 4 4 4 4 5 5 5 5 5 5 6 6 6 6 6 6 6 6 6 6 7 7 6 6 6 5 6 6 6 5
17 20 39 53 63 84 86 84 93 88 92 94 53 12 6 4 4 4 4 4 4 5 6 7 7 7 7 7 8 9 10 10 10 10 10 10 8 8 8 8 8 9 8 9 9 9 9
15 25 32 47 56 67 81 89 87 84 86 89 30 7 5 4 4 4 4 5 6 7 8 8 9 9 10 10 11 12 13 13 14 14 15 15 16 15 15 15 17 17 12 15 16 17 19
13 18 33 30 40 50 60 76 78 78 81 76 20 6 5 4 4 4 4 6 6 7 8 9 8 8 9 11 12 12 12 13 14 14 15 16 16 16 18 17 18 23 22 22 21 18 20
9 13 34 37 40 40 50 58 63 73 76 56 18 6 5 4 5 5 6 7 7 8 9 9 8 9 9 9 9 9 9 10 11 12 13 18 20 22 22 21 22 23 26 24 20 21 27
6 11 30 29 32 35 41 53 56 64 68 53 25 8 6 5 6 6 7 8 7 6 8 9 10 10 10 11 14 18 20 18 16 18 20 22 26 28 28 29 28 28 32 30 30 34 33
5 10 21 23 26 31 39 46 53 55 63 57 46 14 7 6 6 6 6 7 9 9 9 10 12 14 16 21 23 27 30 31 30 31 31 30 35 35 35 34 36 38 38 38 38 39 40

GFSGBSN_500_rhum_105.txt.gz
RH
54 58 63 67 67 66 67 66 68 56 51 51 54 54 54 55 55 52 47 44 36 26 22 36 52 76 85 95 96 78 59 33 14 12 14 14 12 8 5 7 11 11 14 22 31 29 24
67 73 79 76 75 77 84 67 60 68 68 63 57 61 65 59 58 54 50 46 33 21 24 36 59 87 93 98 70 46 12 12 13 10 8 6 6 7 7 9 14 26 38 54 57 42 38
86 97 96 97 92 92 89 78 77 86 85 80 72 67 61 50 54 54 51 47 28 15 18 22 64 95 99 58 42 12 22 24 16 12 12 12 18 22 30 29 35 26 32 50 80 96 56
97 98 100 100 100 100 100 100 97 90 89 83 73 59 44 34 41 50 52 48 27 17 16 55 99 98 74 35 13 20 26 35 30 30 33 33 35 38 42 54 53 45 62 61 45 66 99
97 99 100 100 100 100 100 100 100 98 82 60 56 53 33 22 18 39 53 48 27 22 21 44 98 93 27 18 21 26 30 43 42 36 38 50 56 58 58 61 59 71 68 88 73 64 68
100 100 100 100 100 100 100 98 77 38 21 13 12 13 26 12 8 21 50 52 29 27 39 92 96 49 22 23 36 44 45 39 53 60 66 81 82 97 74 84 92 95 100 89 86 71 76
25 61 100 96 72 57 29 19 20 20 26 32 34 18 10 15 9 10 42 52 37 27 69 100 60 22 22 34 38 47 48 50 67 70 84 86 100 98 76 80 98 83 88 95 100 87 100
50 100 100 99 97 96 86 95 100 100 97 88 95 63 22 10 9 8 32 53 42 49 100 94 32 26 26 30 40 56 63 60 63 68 96 100 95 93 100 59 69 91 78 72 83 100 72
98 100 100 100 100 100 100 100 100 100 81 53 52 81 39 12 8 63 31 52 39 63 98 46 26 26 27 49 51 75 66 71 82 95 100 88 84 65 52 60 67 80 86 100 100 71 69
97 100 90 100 100 100 100 96 97 92 87 70 53 83 31 14 9 10 38 50 37 100 54 30 32 32 42 45 58 76 68 66 49 39 59 54 56 56 64 66 72 96 100 100 80 57 64
56 100 92 91 96 98 99 97 96 92 69 58 52 76 70 14 9 16 41 42 100 90 30 39 34 36 40 55 70 78 71 82 58 58 54 43 64 51 70 79 84 72 94 92 100 100 84
69 62 94 77 100 99 94 96 90 93 86 57 72 65 97 14 10 25 39 100 89 24 29 43 45 53 58 63 72 90 90 75 59 57 56 57 58 94 97 71 58 62 85 100 99 100 79
67 71 56 59 79 89 95 90 97 90 94 51 63 43 21 10 13 38 64 94 32 29 36 42 46 44 56 66 77 84 95 82 88 84 52 46 43 65 87 99 98 100 100 99 97 98 38
95 100 85 61 72 90 98 84 86 99 58 51 44 30 16 11 45 57 59 38 29 36 35 40 47 50 56 74 74 85 93 99 100 92 100 100 95 60 100 100 100 100 97 98 100 100 54
100 100 97 88 72 85 95 96 92 31 41 47 28 15 11 34 47 96 96 24 34 33 29 28 35 50 59 72 80 76 86 92 96 100 100 99 74 61 98 100 100 99 99 99 99 100 99
84 74 67 87 68 79 64 33 13 20 27 18 12 13 22 42 100 93 18 22 31 26 31 29 28 41 54 74 76 75 77 87 99 98 100 86 77 64 54 97 99 100 98 84 73 83 94
7 9 8 6 5 6 10 14 16 16 14 13 22 29 40 96 97 83 16 24 24 24 33 29 26 35 49 64 74 71 81 99 100 95 100 100 76 69 84 78 84 70 75 56 58 52 44
18 15 9 10 12 16 21 24 22 20 23 32 32 33 68 100 82 19 13 18 18 22 26 23 23 34 41 52 57 60 67 75 89 99 97 76 66 64 60 66 41 37 42 40 35 37 31
14 18 19 18 18 19 20 26 36 53 60 54 85 95 100 54 16 11 11 14 20 18 18 18 25 25 42 36 40 50 50 58 78 88 99 100 92 62 54 56 40 27 21 21 28 27 26
24 27 23 22 22 29 45 58 68 86 100 100 97 83 47 15 9 8 9 10 11 13 14 19 24 24 27 29 26 24 25 35 54 60 65 66 90 85 69 46 31 27 18 26 30 23 19
35 37 38 47 60 67 76 85 83 96 100 99 71 26 10 8 7 7 8 10 11 12 14 14 14 15 17 19 19 18 18 20 30 39 40 48 52 58 61 49 32 25 16 12 15 18 18
38 42 42 50 66 78 88 98 97 91 91 88 41 12 6 5 5 5 6 6 6 7 7 8 8 8 8 8 9 9 10 12 13 16 21 22 23 26 30 31 27 23 17 15 13 11 9
25 29 31 36 46 61 76 82 85 79 63 41 15 8 5 4 4 5 5 5 6 7 8 8 7 7 8 8 6 6 6 6 6 7 7 8 8 8 8 9 10 8 7 7 6 5 4
26 27 24 27 34 43 50 63 60 45 26 10 7 5 4 4 4 5 6 7 8 8 9 10 11 12 12 11 12 13 14 14 12 11 9 9 8 8 7 7 7 6 6 5 5 5 6
13 20 19 20 30 36 46 45 48 34 13 5 4 4 4 4 4 5 7 9 10 11 12 12 12 14 14 14 15 15 16 16 17 18 18 16 15 14 12 11 11 11 10 9 10 11 12
13 17 20 22 22 32 32 33 36 17 7 5 4 4 4 4 5 6 8 10 11 11 11 11 12 13 12 12 12 13 13 15 16 20 19 21 22 22 20 19 21 24 22 23 20 18 19
16 14 16 23 20 24 25 28 27 16 6 5 4 4 4 4 4 7 9 10 11 11 10 10 10 13 12 13 15 15 18 20 19 20 22 23 25 27 26 26 23 24 28 26 20 18 22
5 8 6 22 25 21 22 23 26 25 9 6 5 4 4 5 6 8 9 10 8 10 11 12 13 17 18 19 23 27 28 27 28 28 28 27 28 26 26 26 26 24 27 21 21 21 21
3 6 6 13 27 24 20 17 16 20 21 10 6 6 5 5 6 7 8 7 9 11 11 13 14 17 24 24 27 29 32 33 31 31 32 30 28 25 24 24 23 22 21 19 17 17 17

GFSGBSN_500_rhum_111.txt.gz
RH
17 39 72 85 93 98 100 100 100 100 99 100 99 98 100 98 100 98 97 98 98 76 55 49 43 43 39 42 41 35 30 26 23 21 37 46 46 45 34 30 32 30 31 46 55 46 52
89 79 86 76 70 62 53 54 64 97 99 97 99 99 99 99 99 98 99 98 96 84 63 56 49 46 49 47 38 30 30 44 66 59 45 45 31 23 16 14 15 14 16 16 14 13 16
100 100 90 74 72 75 59 48 54 99 100 100 84 99 100 99 99 100 100 99 100 92 91 68 57 54 53 42 35 30 47 54 51 37 28 17 14 12 10 11 11 11 9 8 8 8 10
71 73 60 75 81 80 82 98 100 100 100 100 89 81 99 100 100 98 99 99 98 99 76 62 59 57 47 40 37 31 54 50 26 22 23 23 21 21 26 36 30 31 23 17 22 13 12
82 75 99 94 96 78 96 99 100 100 100 100 96 94 97 100 100 99 99 98 95 74 58 61 60 51 36 46 40 57 37 28 22 21 28 28 33 32 41 51 52 48 38 43 43 36 24
85 99 100 88 94 90 92 99 100 100 94 98 97 100 100 100 100 99 98 80 43 45 56 64 51 42 48 51 44 33 31 21 30 38 33 34 50 60 70 66 50 45 42 47 45 61 48
100 100 71 64 82 90 94 78 97 93 95 97 71 95 100 100 99 86 47 28 62 74 54 58 38 36 55 48 31 29 33 54 49 38 41 33 53 67 61 33 28 24 29 35 46 50 45
100 60 53 72 88 67 69 77 94 85 84 76 97 54 92 100 50 37 26 12 26 40 57 40 68 97 34 31 32 33 46 46 55 56 46 39 30 18 19 25 28 36 49 52 61 53 48
99 40 53 79 54 53 51 55 60 63 68 83 95 26 81 67 44 18 17 80 29 48 54 82 67 30 32 29 34 56 42 36 32 31 34 22 22 26 32 36 54 69 83 62 54 62 93
93 46 47 52 42 50 63 56 63 59 61 52 52 64 100 81 37 22 87 44 39 67 83 71 45 40 33 33 50 37 26 26 26 27 25 25 31 42 46 45 47 44 53 84 74 69 48
12 18 38 33 33 32 49 50 62 55 47 37 47 72 89 100 47 100 64 37 78 85 50 47 47 48 49 52 30 29 40 39 33 31 34 43 58 52 50 59 70 78 91 87 89 99 95
15 8 14 25 31 36 41 50 49 48 47 50 59 95 79 76 36 46 34 66 83 59 55 57 67 52 61 52 34 26 28 42 47 58 67 77 74 82 96 100 100 100 100 100 100 100 98
55 25 10 9 18 16 16 18 21 30 34 34 86 94 83 35 23 65 96 90 52 45 56 65 62 64 67 49 42 25 28 43 54 69 81 81 75 92 100 100 100 100 100 100 99 100 100
48 75 56 26 13 9 9 9 9 9 9 11 18 12 13 43 90 58 32 38 42 44 48 60 70 79 72 55 44 47 41 47 55 61 69 79 74 86 100 100 100 100 93 100 100 95 100
33 50 74 70 76 63 62 65 72 94 96 76 35 46 72 97 33 27 35 44 41 50 55 62 70 71 55 60 56 55 57 58 56 52 68 85 73 94 100 98 100 100 89 97 99 100 100
28 22 29 28 26 57 65 69 81 95 100 100 95 100 36 25 28 32 36 24 24 28 45 67 56 63 60 51 60 52 60 52 53 51 90 96 98 99 100 98 100 99 100 96 98 99 98
18 17 12 7 7 6 14 23 28 39 38 30 31 40 22 25 25 29 24 22 22 28 44 48 42 44 58 65 66 67 56 50 48 62 81 75 83 86 83 85 89 97 99 84 99 96 98
11 14 8 4 4 4 4 4 6 7 7 7 10 16 19 19 16 24 18 20 21 22 25 38 38 37 42 58 72 73 54 35 31 64 78 58 48 55 58 53 51 58 60 74 58 77 59
8 8 8 4 3 4 4 4 5 5 5 6 6 8 10 15 12 12 14 17 18 17 22 24 21 22 30 50 60 66 59 31 40 60 49 37 36 46 44 50 48 51 50 52 70 65 58
13 9 7 5 3 3 4 4 5 6 7 6 6 6 7 8 9 11 11 12 13 14 14 15 15 21 29 37 45 48 47 31 38 41 36 28 30 34 36 45 43 46 43 37 36 47 46
10 12 7 5 3 3 3 4 4 5 7 8 9 10 9 8 8 8 9 9 9 10 10 10 10 13 20 25 31 43 35 24 27 22 24 33 32 39 37 36 30 24 26 23 19 13 17
9 9 10 7 5 3 3 3 4 4 6 8 11 12 13 13 13 12 12 13 12 11 10 9 8 8 8 10 17 23 25 23 20 16 17 19 18 13 10 9 8 8 8 8 8 8 10
9 10 10 10 9 5 4 3 3 4 5 8 11 13 14 15 16 16 15 16 16 16 17 17 16 16 14 12 10 9 8 8 8 7 7 7 7 8 8 8 8 9 10 12 13 15 16
6 8 11 11 10 8 5 4 3 3 3 5 9 12 14 15 16 17 17 17 16 16 16 17 18 19 20 20 17 14 13 12 12 11 12 11 11 11 12 12 12 12 12 14 15 17 17
10 7 7 11 10 9 8 6 5 3 3 3 5 8 12 14 15 15 15 16 16 15 14 14 15 16 17 19 20 20 20 19 18 16 16 15 15 15 16 18 18 18 18 17 15 16 17
19 11 6 7 11 13 12 10 8 8 4 3 3 5 7 10 13 13 14 14 14 16 16 18 19 22 23 22 21 21 21 20 19 19 19 20 18 17 16 16 18 17 16 13 12 13 12
27 22 15 5 6 10 13 11 10 9 10 7 4 3 4 6 9 12 12 14 16 17 19 21 22 22 24 26 26 26 25 23 23 21 19 17 17 18 18 18 18 15 16 15 15 13 12
28 28 22 14 6 7 11 12 11 11 10 12 11 6 4 4 5 8 10 11 13 15 16 19 21 24 27 30 34 35 34 30 28 27 25 22 18 16 15 14 15 12 12 12 12 12 13
31 28 29 22 12 5 6 11 15 15 15 14 16 13 10 6 5 5 6 8 11 12 14 17 19 21 23 25 26 28 34 38 38 37 34 29 26 22 19 18 17 14 14 14 14 12 14

GFSGBSN_500_rhum_114.txt.gz
RH
86 98 92 91 72 73 100 90 86 87 100 96 97 99 100 100 99 99 98 100 97 95 93 89 86 74 54 45 40 36 33 32 31 34 31 27 24 20 22 29 36 34 37 39 32 31 35
100 97 95 95 73 74 96 90 81 81 75 87 98 79 100 100 100 100 99 100 96 96 99 100 96 82 54 47 46 40 36 35 34 32 30 35 42 37 36 34 35 30 26 23 24 24 32
85 99 100 100 100 100 99 100 94 86 66 60 79 85 64 100 100 100 100 99 98 98 100 100 90 76 63 62 56 43 40 38 34 32 27 30 39 31 26 23 18 14 12 11 10 11 20
98 72 100 99 95 77 88 93 96 67 75 100 100 84 57 80 99 98 100 100 99 100 100 96 84 81 82 61 48 45 41 36 32 44 40 33 26 16 15 16 13 14 10 11 16 12 13
33 32 52 62 74 95 97 87 91 100 100 100 80 60 83 70 89 100 100 98 99 100 95 98 96 74 59 52 48 43 37 43 41 28 22 18 18 19 21 24 21 16 12 17 19 25 20
24 40 54 56 74 85 95 88 100 100 94 90 53 92 100 100 96 87 99 100 100 100 98 83 66 59 54 49 44 45 40 30 30 28 25 21 24 27 28 23 17 22 28 24 18 41 23
13 33 39 49 50 64 72 63 85 73 78 70 54 99 100 100 100 100 100 100 99 86 65 60 57 54 48 43 46 31 31 29 30 37 30 35 44 39 19 19 23 21 28 36 32 38 28
13 19 25 36 39 47 51 49 42 44 48 34 39 100 100 100 100 100 87 63 73 69 51 56 50 46 55 39 29 30 37 39 37 33 40 29 17 13 17 24 27 31 28 34 45 60 80
12 13 24 33 51 52 46 40 48 53 90 68 75 100 98 97 69 93 46 35 50 47 56 56 71 64 36 28 32 39 25 24 24 28 21 18 22 26 28 30 34 37 40 41 44 80 70
36 11 14 21 24 33 46 32 30 42 50 63 60 100 55 49 47 35 51 31 39 54 60 65 44 41 29 34 36 26 27 28 32 24 24 29 37 45 55 69 79 91 97 96 57 37 54
38 42 12 13 18 19 25 26 30 44 70 50 40 36 27 44 43 26 19 38 56 64 64 67 50 44 42 38 33 49 37 36 37 40 46 53 66 76 81 87 93 100 98 100 100 97 93
12 27 50 53 21 23 35 34 46 62 41 34 34 33 29 30 24 21 30 62 91 69 55 59 62 48 39 30 35 37 40 49 56 55 54 67 79 78 93 100 100 100 100 95 98 91 100
5 7 14 36 68 64 22 18 37 64 52 37 36 34 38 32 34 60 78 86 55 50 62 58 52 50 45 30 30 26 33 41 44 45 52 56 62 72 92 93 97 90 100 89 99 100 99
4 4 5 7 10 18 42 53 34 24 20 43 87 85 72 60 57 49 45 46 44 46 54 65 61 53 48 32 26 24 26 31 37 34 39 64 80 68 92 100 98 98 98 100 100 100 100
4 4 5 5 6 6 7 9 23 45 36 46 33 30 28 34 39 37 37 44 52 60 65 63 64 63 48 35 38 27 30 27 48 57 66 69 76 85 99 100 100 99 100 98 98 95 100
4 4 4 5 6 6 6 6 8 10 13 17 20 25 26 25 23 24 26 25 43 50 63 72 65 54 47 41 38 33 34 44 63 56 68 88 100 100 100 99 100 100 96 99 96 92 88
12 4 4 5 6 7 6 6 6 7 8 12 15 20 23 24 27 27 24 20 32 47 50 50 58 51 39 33 31 35 37 60 61 55 81 88 95 90 100 100 97 100 95 100 99 85 88
18 8 3 4 5 6 8 8 7 7 7 7 8 10 14 15 24 27 22 20 21 28 29 33 46 52 45 38 32 31 52 62 66 67 62 58 63 63 65 73 75 83 83 96 93 100 83
11 9 6 3 4 4 6 9 11 10 9 10 10 8 9 9 11 13 13 15 16 17 21 30 45 46 40 24 22 35 40 37 37 31 30 36 37 37 41 41 49 48 43 39 54 92 98
13 13 7 5 3 4 4 6 10 12 13 13 12 13 12 11 9 9 8 9 11 22 28 32 33 19 16 17 24 34 36 31 28 31 32 37 35 32 31 30 30 19 25 26 35 48 64
11 13 14 6 4 4 4 4 7 11 13 14 15 16 15 16 16 14 12 10 8 10 21 25 20 12 11 16 23 26 34 35 26 18 17 18 14 12 11 9 7 7 7 8 8 9 9
6 10 14 14 9 4 3 4 4 7 12 14 15 16 17 17 17 17 18 18 15 13 9 8 14 10 13 14 22 23 18 20 12 7 8 7 6 7 7 9 10 10 12 14 15 15 18
8 6 9 12 13 7 5 3 4 4 6 12 15 16 16 18 18 18 18 18 18 19 20 18 14 10 8 11 16 13 6 7 7 8 8 9 10 10 10 11 11 12 12 14 15 16 17
14 8 6 8 11 12 8 6 4 4 4 6 11 14 15 16 17 18 19 19 18 18 18 18 19 20 20 17 14 13 13 13 13 13 13 12 12 13 13 13 13 14 13 12 12 12 12
27 19 10 6 6 10 10 10 8 5 3 4 5 8 12 14 14 16 18 19 20 19 18 20 20 20 19 19 20 21 20 20 19 18 17 16 15 14 14 14 14 15 14 14 13 12 11
34 30 26 15 6 5 9 11 11 9 7 4 4 4 6 11 13 14 16 17 19 20 21 22 23 23 23 22 22 22 22 22 22 22 21 19 18 17 16 15 14 14 14 13 14 13 12
35 34 31 27 18 8 5 6 12 13 11 7 7 4 4 5 8 12 12 14 16 18 21 22 24 26 28 29 30 30 29 28 28 28 26 25 22 21 20 19 18 14 13 12 13 13 13
49 39 34 31 30 20 12 6 6 11 16 17 13 10 9 5 4 6 8 10 12 14 16 19 22 25 28 30 31 34 36 38 38 37 36 32 29 28 24 21 22 19 17 15 14 13 12
53 49 38 35 32 30 23 14 8 5 10 15 16 16 16 14 11 7 5 6 8 10 11 14 17 19 21 22 23 24 26 31 34 36 37 38 38 32 31 30 27 25 25 26 22 19 17

GFSGBSN_500_rhum_117.txt.gz
RH
34 79 75 100 100 100 100 99 87 99 95 90 99 86 95 100 100 100 98 100 98 98 96 90 73 68 62 61 60 55 51 42 36 32 29 25 22 21 20 21 20 18 16 13 12 13 20
26 40 57 70 91 97 98 98 100 99 98 100 100 92 73 100 100 100 99 100 97 99 92 91 87 86 89 86 74 70 60 45 38 36 32 29 27 25 22 23 23 24 19 20 25 28 23
41 33 54 57 65 69 63 74 97 95 83 100 98 95 84 74 100 99 100 98 96 97 94 96 90 86 90 91 75 68 56 49 49 45 39 32 28 26 24 22 27 30 28 26 25 24 26
33 37 43 63 88 89 80 96 80 65 71 76 52 45 36 43 97 98 99 100 99 98 98 97 93 100 100 83 74 66 65 59 47 37 34 31 30 35 31 24 26 25 22 17 19 18 16
27 37 36 59 69 66 96 95 65 66 77 92 82 79 58 95 70 100 100 100 99 100 99 96 99 99 89 79 79 67 50 41 36 35 36 34 30 28 27 23 19 16 16 15 15 19 14
16 34 34 34 38 60 62 61 95 92 64 77 65 56 42 99 77 100 99 100 100 100 100 94 97 92 80 67 54 45 42 43 40 35 32 29 27 25 20 22 22 20 14 12 9 11 8
23 11 19 27 39 37 34 32 37 50 43 38 70 84 91 100 100 100 100 100 100 100 98 99 86 69 56 49 44 42 36 28 26 23 21 19 22 30 36 22 14 12 17 22 28 34 35
26 22 14 20 27 28 39 49 42 29 31 58 100 94 100 100 100 100 99 100 100 98 98 81 58 49 46 52 36 26 26 22 22 22 23 24 23 18 12 17 30 41 60 60 39 50 54
16 29 24 18 28 35 39 44 59 78 83 100 100 100 100 100 100 100 99 91 77 60 55 53 48 50 53 31 25 23 20 20 21 21 23 19 26 26 37 57 72 87 93 97 62 52 50
6 19 32 24 20 28 28 38 52 67 95 87 100 100 100 98 99 88 70 56 50 52 54 66 59 50 33 27 28 28 27 27 28 32 43 55 61 67 68 84 87 100 100 100 100 97 96
5 7 20 32 37 22 16 21 27 25 33 47 48 58 63 44 34 35 35 44 54 68 64 51 46 31 33 34 25 39 42 42 44 51 55 57 58 72 84 82 75 56 82 92 95 92 93
6 5 7 17 34 48 49 31 22 21 29 29 29 26 26 21 26 36 50 60 67 62 58 52 42 41 37 33 38 37 42 46 42 42 47 42 41 68 59 64 60 69 78 84 87 86 96
7 6 6 7 10 23 44 40 49 37 42 53 43 55 70 74 77 83 80 66 59 51 46 44 43 42 32 36 30 26 33 35 33 35 30 37 40 52 65 66 79 83 81 81 79 98 98
6 8 7 6 6 8 12 16 19 20 23 25 27 34 39 44 48 48 45 47 51 53 47 48 47 39 28 30 26 25 30 33 25 28 42 52 57 63 49 78 78 73 87 93 95 99 100
4 6 9 9 7 7 7 11 15 17 18 19 19 19 21 30 48 56 60 62 57 57 60 52 42 32 22 26 23 23 29 41 44 42 49 61 63 87 82 92 83 92 90 94 100 100 94
4 4 6 10 11 9 8 7 8 13 18 20 22 22 22 22 31 48 52 54 52 48 46 47 36 28 24 23 24 26 41 43 48 71 85 80 82 91 94 94 80 95 100 96 95 98 98
4 4 5 6 11 13 11 11 9 9 10 14 18 22 22 21 22 27 44 36 46 56 58 51 40 33 25 22 26 41 47 49 63 72 63 63 69 72 62 71 81 91 97 97 94 98 90
12 4 4 5 7 12 14 14 13 12 10 9 10 12 12 18 19 19 21 28 35 41 43 41 29 29 21 26 39 40 42 38 38 36 33 34 35 40 33 38 38 39 54 88 85 96 98
17 11 4 4 5 9 13 15 15 15 14 15 13 9 8 10 15 17 24 29 33 33 30 23 19 20 29 36 41 40 35 30 29 30 29 25 23 24 24 22 26 37 45 79 100 100 94
8 17 10 4 4 5 8 12 15 15 16 17 16 16 13 8 8 15 17 14 13 15 15 16 18 24 28 35 34 26 29 32 32 25 22 14 15 8 7 8 12 19 21 29 42 45 53
9 8 16 9 4 3 4 7 12 14 15 16 17 17 18 17 12 7 9 10 11 12 12 14 17 18 23 26 27 22 25 30 14 10 9 7 6 7 8 10 10 10 9 8 8 9 12
16 10 7 15 10 5 3 4 6 12 14 15 16 18 18 18 18 16 10 8 10 12 14 12 12 11 13 16 20 22 19 8 6 7 7 8 8 10 12 13 14 14 13 13 13 14 14
25 18 11 6 14 11 6 3 4 5 10 13 14 16 17 19 18 17 17 16 10 9 9 7 8 12 15 18 16 7 7 8 9 10 10 11 12 13 14 14 14 14 14 14 13 12 12
35 28 26 16 6 9 14 8 4 4 4 7 12 13 14 16 18 19 20 18 17 16 15 14 12 10 10 10 12 13 14 14 14 14 15 15 16 17 17 16 16 14 14 14 13 11 10
57 40 34 26 14 6 7 15 12 7 4 4 5 10 12 13 15 17 19 20 21 20 18 18 18 18 18 17 17 18 18 17 17 16 16 16 16 16 16 16 15 14 13 13 13 13 12
52 54 46 37 27 21 8 6 15 17 9 6 4 4 6 10 12 13 16 18 19 20 22 23 23 24 25 25 24 25 25 25 27 26 25 24 22 20 18 17 16 15 14 13 14 14 13
65 49 48 49 39 32 22 10 6 11 15 14 11 6 4 4 6 10 12 14 16 18 20 22 24 27 28 30 33 35 35 36 36 35 35 34 31 28 27 23 22 21 18 17 17 13 12
68 67 55 51 48 42 35 30 15 7 7 11 11 15 12 7 5 5 7 8 11 13 15 17 20 21 26 27 26 26 27 31 34 36 37 38 38 37 33 32 31 30 28 27 27 23 20
62 62 59 60 61 53 45 40 34 21 10 5 6 8 15 19 16 10 6 5 6 8 10 12 14 17 18 20 21 23 23 25 28 30 29 33 35 40 39 39 38 37 38 36 32 32 32

GFSGBSN_500_rhum_120.txt.gz
RH
81 36 50 66 68 74 99 90 97 99 80 90 94 100 98 100 97 93 96 99 99 100 96 81 77 64 57 50 47 45 45 44 43 43 43 41 37 34 32 29 24 19 16 13 12 12 10
13 36 56 71 70 76 71 83 93 99 71 91 92 100 98 84 100 90 93 100 98 99 97 90 95 89 68 59 63 56 57 66 67 60 56 55 49 44 38 34 29 22 20 18 15 13 12
12 26 54 68 87 78 77 86 71 90 81 100 100 100 92 60 100 85 96 100 98 99 100 97 99 98 94 92 85 86 76 70 60 59 57 52 46 42 40 37 32 26 21 20 19 20 21
14 20 39 41 41 90 87 73 57 64 86 97 99 76 87 59 100 83 98 100 100 100 97 96 98 97 93 94 90 81 74 72 66 59 52 49 45 40 30 25 22 21 20 22 22 22 22
17 25 24 27 25 28 63 62 69 47 40 44 46 39 40 44 100 98 100 100 100 99 95 97 94 98 98 95 92 83 76 70 64 58 51 42 30 23 20 20 21 23 22 23 22 21 19
23 27 34 34 25 23 25 44 50 50 53 44 37 42 40 79 100 99 100 100 97 97 100 100 100 100 94 88 84 78 66 56 46 38 29 24 21 20 21 23 23 24 20 15 14 20 28
27 27 30 43 60 57 45 41 33 58 96 98 55 57 100 100 100 100 100 98 99 99 97 100 94 89 80 72 56 46 39 36 32 27 23 22 22 23 23 23 20 12 20 42 44 40 34
27 25 27 25 28 50 46 64 81 87 91 95 80 100 100 100 100 100 100 100 100 100 100 96 92 74 57 48 44 40 35 29 26 21 18 16 13 12 11 12 31 56 55 42 43 39 46
11 32 22 18 20 30 44 51 59 77 97 86 74 88 88 98 100 100 100 100 100 100 100 78 55 48 48 46 31 28 20 18 22 22 34 44 43 42 53 58 53 46 44 47 52 54 63
7 11 22 32 27 36 34 48 64 69 60 76 83 63 82 90 99 100 100 100 95 82 62 54 49 49 42 28 24 20 26 36 47 50 51 52 54 58 53 40 40 46 55 65 63 55 61
7 7 10 14 28 40 50 27 23 30 37 46 57 86 84 75 63 58 57 55 59 62 61 56 52 44 27 28 30 36 35 41 41 37 43 44 41 51 52 44 46 56 72 78 83 75 80
10 8 8 10 13 17 25 38 48 55 45 31 26 30 36 42 47 51 61 68 66 64 53 50 36 34 27 36 34 31 30 29 28 30 30 32 35 46 41 50 54 61 77 92 93 86 86
11 11 8 8 12 15 16 17 18 23 33 42 64 76 75 74 73 68 66 64 58 60 50 36 31 27 34 29 26 25 26 22 26 32 41 46 44 49 53 59 58 72 78 84 88 92 90
12 13 13 10 9 11 16 17 18 18 19 26 36 40 41 41 41 43 45 44 45 42 34 32 29 28 30 24 22 22 20 36 50 58 69 51 60 71 62 68 64 64 70 73 78 81 86
8 13 14 14 12 10 10 15 18 18 18 18 24 35 39 45 49 48 48 52 46 41 37 32 25 26 22 20 18 23 37 55 68 60 62 78 79 79 79 80 80 65 64 77 92 87 97
4 9 14 15 14 14 11 10 12 14 16 17 20 25 32 40 49 46 41 38 37 32 28 23 20 20 18 16 20 42 56 66 70 69 67 67 60 52 67 67 68 76 72 79 88 95 97
4 4 9 14 15 16 16 13 9 10 12 15 16 20 27 28 34 40 42 30 24 20 18 18 18 18 17 26 40 46 47 41 31 29 31 34 37 38 41 38 40 69 74 80 85 88 99
19 4 4 9 14 16 16 16 16 9 8 10 13 14 16 17 19 26 26 16 14 13 14 15 16 21 34 38 36 27 26 26 24 24 25 25 28 25 20 23 28 60 77 70 72 79 96
8 17 4 4 8 13 16 16 17 17 11 7 10 11 11 10 10 12 13 13 14 15 17 20 23 30 34 30 28 23 29 28 20 16 12 15 12 9 8 13 20 31 71 62 65 70 76
13 9 14 6 4 7 12 16 17 17 16 15 7 8 8 8 7 7 8 10 12 13 15 18 20 23 26 19 20 24 30 31 13 9 7 8 8 8 8 7 7 10 13 19 25 41 74
22 18 9 12 7 3 6 11 15 17 17 16 16 10 7 8 8 8 8 8 9 10 9 11 17 20 22 20 22 24 19 7 6 6 7 8 10 12 12 12 11 11 10 9 9 8 8
39 27 27 12 11 9 3 5 9 14 16 18 17 16 16 8 8 8 9 9 10 10 10 11 12 12 13 14 13 7 7 7 8 8 9 10 12 13 14 15 15 14 15 15 13 12 13
69 43 34 24 13 8 10 4 4 7 12 15 17 18 17 17 15 10 8 8 8 8 8 8 8 10 11 10 8 8 9 10 10 12 13 14 15 15 15 16 16 15 15 14 15 15 13
76 61 46 36 21 12 6 10 8 4 5 10 13 15 17 19 19 18 17 15 14 14 12 11 10 10 11 12 13 14 15 15 15 15 15 14 15 15 15 15 15 15 14 13 12 12 10
74 70 57 48 39 32 19 8 6 11 6 4 7 12 13 15 18 20 21 21 21 20 20 19 20 20 20 21 21 22 22 23 24 24 24 24 22 20 17 15 15 13 12 13 13 11 11
76 68 71 57 50 42 33 26 10 6 8 10 5 4 7 12 13 16 18 20 21 22 22 24 25 26 28 29 31 33 33 33 34 34 33 33 32 30 29 26 22 20 16 14 15 14 13
73 76 66 72 65 53 48 38 32 19 8 7 10 10 5 4 6 12 12 14 16 18 20 22 23 25 27 30 33 32 34 36 35 36 35 33 35 32 32 32 31 31 32 28 27 24 18
70 77 74 72 80 72 64 57 46 36 23 13 6 7 13 13 7 5 5 9 11 12 14 14 16 19 20 23 25 26 25 25 25 28 29 30 29 31 31 32 33 36 36 37 37 35 31
66 75 81 74 72 80 74 74 62 51 41 30 15 9 7 7 13 16 14 8 5 6 8 10 11 12 14 16 19 20 21 22 22 23 24 24 24 26 28 32 32 36 35 37 39 41 38

GFSGBSN_500_rhum_123.txt.gz
RH
37 21 26 38 69 64 94 78 80 55 54 95 96 90 96 100 80 52 60 98 100 100 100 99 99 90 66 53 44 36 34 33 31 32 31 29 29 30 32 30 30 30 30 30 27 25 22
41 26 21 29 52 67 95 72 82 97 78 81 100 100 100 100 84 52 46 98 100 99 100 100 86 94 83 62 54 43 38 37 39 41 39 39 41 41 40 39 39 40 39 35 30 26 22
25 39 28 21 35 52 65 54 82 88 83 77 81 100 99 73 95 66 99 89 100 100 96 88 82 99 81 79 71 54 49 48 48 46 49 49 48 45 44 42 39 36 34 30 27 24 22
21 43 47 38 22 27 33 46 78 95 95 100 100 86 66 53 76 100 100 79 96 100 100 100 93 88 84 81 83 89 79 66 65 62 56 50 45 41 39 36 35 32 27 20 19 17 15
21 30 45 55 54 41 30 38 34 47 41 46 56 82 34 53 96 100 100 99 91 92 100 98 96 94 91 92 93 84 75 68 62 55 47 42 40 36 35 31 26 20 17 15 15 14 14
30 39 43 61 45 54 91 84 43 31 38 31 34 66 79 100 100 100 100 100 98 94 97 86 90 96 96 94 84 77 70 61 54 48 44 40 35 30 24 20 17 15 14 15 15 16 17
12 41 30 58 80 65 96 77 45 40 31 35 28 100 100 100 100 100 100 99 100 100 99 98 96 95 87 79 72 64 57 49 39 32 26 22 20 18 17 16 15 15 18 18 22 22 23
10 15 42 27 48 73 80 75 64 65 85 84 81 97 100 100 100 100 100 100 100 92 97 94 94 83 78 68 53 43 35 27 22 18 15 14 13 13 14 14 14 17 26 34 42 36 32
8 12 17 40 37 34 59 74 60 65 64 75 89 74 98 100 100 100 100 100 100 100 99 89 80 67 52 45 36 26 20 24 27 23 23 27 38 44 39 40 34 38 45 50 45 51 58
8 10 12 18 42 51 27 38 63 36 64 72 93 84 89 100 100 99 92 100 99 87 81 62 52 48 38 28 21 24 33 33 36 35 45 37 38 39 39 34 38 48 60 69 68 55 55
11 8 10 13 17 29 58 43 32 50 46 60 90 92 92 86 90 92 93 96 90 76 60 55 50 35 28 29 27 28 27 34 32 32 32 26 32 38 39 39 48 66 70 73 76 62 59
15 10 8 10 12 17 28 38 58 70 58 54 49 47 51 60 66 72 76 66 57 54 48 44 31 25 32 31 29 25 26 24 24 23 26 34 43 48 46 50 61 68 66 80 85 75 53
16 16 9 8 9 12 17 28 33 37 38 42 46 50 61 61 62 59 51 46 42 38 32 26 23 32 28 25 22 21 18 17 21 36 48 64 63 68 65 63 55 64 66 71 71 74 87
15 16 15 9 8 9 12 17 24 34 38 38 38 43 41 41 38 34 41 42 40 33 26 22 29 27 24 20 18 16 25 37 48 63 83 63 72 75 67 60 57 68 64 70 88 88 93
12 16 16 15 8 7 9 12 17 24 31 37 38 34 33 31 32 32 30 29 24 23 20 19 22 23 18 15 17 34 54 66 65 59 52 45 41 46 47 52 62 75 73 76 87 81 97
4 12 16 16 14 8 7 8 10 13 19 25 32 30 23 25 25 22 21 15 12 13 15 16 14 14 13 24 47 60 53 39 35 34 31 31 34 25 32 46 62 73 70 77 73 83 86
14 4 12 16 15 14 8 6 7 8 11 13 16 15 12 12 11 11 12 12 12 13 14 15 19 29 38 43 38 28 26 27 28 24 22 20 20 17 23 46 60 56 62 66 73 68 90
13 13 4 12 16 15 14 8 6 7 8 10 11 12 12 13 13 13 13 15 17 20 23 26 25 22 21 22 26 34 42 27 15 13 14 11 10 10 15 33 57 52 54 60 66 66 69
26 17 12 4 11 15 15 14 10 6 6 8 9 10 11 13 14 15 17 20 22 24 21 18 17 18 20 25 28 30 22 9 8 8 9 8 8 8 8 11 13 18 27 27 54 54 43
43 31 22 12 4 10 14 14 15 13 7 6 7 8 9 10 10 10 11 13 16 17 18 17 18 19 19 20 15 8 6 7 8 9 10 10 10 10 10 10 9 8 8 8 8 9 10
80 52 31 22 11 4 8 13 13 15 14 11 7 6 6 7 8 8 9 9 10 11 12 14 14 13 12 14 7 6 6 7 8 9 10 11 12 12 12 13 13 12 12 12 12 12 12
95 72 52 24 18 9 6 5 12 11 14 16 14 12 7 7 7 6 8 8 7 8 9 10 11 10 10 9 8 8 9 9 10 11 12 12 12 13 12 12 12 12 12 12 11 10 10
91 85 66 47 24 16 8 8 4 10 11 12 14 16 14 13 10 8 8 7 8 8 7 7 8 8 8 9 10 11 12 12 13 13 14 14 14 14 13 12 11 11 10 10 10 8 7
80 85 74 68 46 30 22 10 9 6 6 9 12 13 15 16 17 16 15 14 13 12 11 11 12 13 14 15 16 17 18 19 20 21 23 24 21 20 17 15 14 12 10 10 10 10 8
82 79 76 75 74 49 33 23 16 8 10 5 6 10 12 13 14 17 19 20 20 19 20 20 21 22 22 23 24 26 29 30 31 34 35 35 34 30 28 26 23 19 15 13 12 13 12
70 79 77 74 70 80 58 41 26 16 10 9 9 6 5 7 10 12 15 16 18 20 22 24 25 26 28 30 32 33 34 35 35 37 37 37 37 36 38 38 34 32 33 31 27 26 19
71 66 74 78 74 70 76 68 54 40 23 20 10 10 10 7 5 5 8 12 12 14 17 18 20 21 23 23 26 29 29 28 27 28 29 30 28 28 29 30 33 35 40 40 37 34 33
69 67 62 65 77 75 68 76 71 67 55 29 20 14 7 7 10 11 8 6 5 7 10 10 12 12 14 15 17 19 22 22 21 21 22 22 22 23 23 26 27 30 32 33 34 38 41
69 66 67 70 68 83 78 75 76 72 72 68 38 19 15 11 8 8 9 11 12 11 10 8 6 7 8 10 10 10 11 12 13 14 14 13 14 14 14 18 17 19 22 28 33 35 37

GFSGBSN_500_rhum_126.txt.gz
RH
55 43 48 36 37 55 66 82 62 45 79 85 68 70 94 100 86 36 92 97 100 100 96 99 93 81 73 70 57 43 33 29 26 23 20 17 17 17 18 19 19 20 21 21 23 22 20
53 63 66 41 34 52 59 87 83 78 68 90 90 68 68 98 84 71 31 82 98 99 97 86 100 92 84 75 65 57 46 38 31 26 22 19 19 20 21 24 24 26 28 31 34 32 29
38 74 86 82 41 44 48 68 96 60 81 98 100 71 92 80 64 63 33 88 98 90 98 99 97 85 90 73 62 59 53 47 40 32 28 25 24 24 25 27 30 31 35 35 33 28 24
28 63 87 89 80 32 35 56 53 69 77 53 74 75 68 58 57 53 46 76 89 94 100 96 84 92 84 77 69 66 65 61 49 41 39 37 37 44 47 43 41 36 30 28 26 23 20
23 36 92 79 72 47 32 26 28 45 81 65 58 56 46 75 68 91 58 100 100 100 98 96 90 87 84 82 79 76 77 79 76 69 65 59 52 46 41 35 30 30 26 25 23 20 17
17 30 55 64 80 62 26 17 25 30 62 52 46 75 100 100 98 100 100 100 97 96 82 92 84 97 91 83 83 79 75 68 61 56 50 44 37 34 30 26 23 20 18 16 14 13 13
14 21 32 36 55 44 32 22 22 49 85 74 99 100 100 97 96 100 97 97 94 86 91 83 86 84 79 83 76 75 71 65 51 41 34 28 22 18 15 13 11 10 10 10 10 11 13
11 16 29 36 42 54 70 87 77 76 86 81 85 92 99 100 100 100 95 93 99 99 77 85 82 83 82 81 73 61 48 36 27 20 15 12 11 11 11 11 11 13 18 22 28 28 32
11 13 18 31 44 53 77 85 93 76 73 82 93 98 97 97 100 100 99 97 99 100 100 88 85 79 68 55 42 30 20 15 13 10 13 21 22 27 24 22 27 32 37 45 49 59 48
8 11 14 20 30 38 38 44 76 83 82 72 78 94 100 97 99 91 97 96 94 92 91 72 61 48 38 25 17 18 20 23 23 27 30 25 28 30 26 27 30 41 54 66 64 59 44
10 8 11 14 21 31 39 51 42 42 64 76 63 62 72 99 91 96 97 96 82 80 57 48 35 24 20 23 24 24 26 26 23 26 23 24 32 31 27 28 39 60 65 64 61 47 42
14 7 8 10 15 23 32 32 36 49 44 49 64 69 68 77 66 74 71 68 52 46 34 24 24 26 30 26 22 19 19 20 21 27 34 44 48 46 46 46 55 59 59 56 59 62 77
15 12 6 7 10 14 23 31 30 32 35 49 50 45 43 48 56 58 54 42 37 28 24 27 29 25 23 19 17 16 21 30 47 66 66 68 68 65 57 55 61 64 68 75 80 83 78
15 16 6 6 7 8 10 18 25 26 28 30 32 29 31 37 41 35 30 28 25 20 21 24 24 20 17 19 17 30 48 54 54 48 41 50 47 46 56 56 68 67 67 71 84 85 86
7 16 15 6 6 7 8 8 9 12 17 23 23 23 23 32 28 31 28 23 17 14 18 19 18 15 16 29 44 46 39 35 32 30 27 27 33 38 56 54 65 73 75 72 72 76 80
12 8 16 14 5 7 7 7 7 8 9 10 12 15 15 13 13 13 14 13 13 15 15 15 17 27 40 37 31 28 29 25 23 18 20 24 23 39 52 54 56 57 56 69 63 78 90
25 11 7 16 13 5 6 7 8 8 10 12 13 13 13 14 14 14 14 16 17 17 19 23 23 20 21 26 28 26 19 13 13 11 10 11 18 31 47 55 54 59 61 60 57 58 81
41 27 11 7 15 14 5 6 7 8 9 11 11 12 12 13 14 16 17 19 17 17 18 19 20 23 27 27 24 16 10 9 10 8 8 8 9 11 16 17 26 27 15 40 51 40 44
66 43 28 11 6 14 14 7 5 6 8 9 10 11 12 13 14 14 14 14 14 14 15 17 19 23 20 15 10 7 8 9 9 9 9 10 10 10 9 9 8 8 8 8 9 12 17
87 60 43 28 12 6 13 15 11 6 5 5 5 6 7 10 12 13 14 14 15 15 14 14 13 12 9 6 7 8 9 9 9 10 10 11 11 11 11 11 10 11 11 12 12 11 10
87 84 47 34 25 10 5 10 15 14 10 7 6 5 4 5 7 8 9 10 11 11 11 10 8 8 7 6 7 7 8 9 10 11 12 13 13 12 13 13 12 12 10 10 10 10 11
78 85 79 42 27 22 11 5 6 11 15 14 11 8 7 6 5 5 6 7 7 8 8 9 8 8 8 8 8 9 10 11 12 12 13 14 14 14 14 12 11 10 10 11 10 8 7
69 71 82 73 46 26 24 14 9 5 7 11 14 15 14 12 11 10 8 7 7 7 7 8 8 9 10 11 13 14 15 16 17 20 23 24 23 21 19 17 16 12 10 10 11 10 7
67 68 70 79 72 56 33 20 20 11 7 6 7 11 14 15 15 14 14 13 14 14 14 14 15 16 17 18 19 22 24 26 28 31 32 33 33 30 28 26 24 21 18 18 14 14 14
56 64 67 74 77 74 64 44 23 21 16 9 8 6 6 10 14 14 14 15 17 17 17 18 20 22 24 26 28 30 32 32 34 34 34 34 33 31 33 36 37 34 33 33 29 26 24
69 58 67 73 75 78 72 69 59 45 24 25 17 9 8 6 6 8 10 11 13 15 18 18 20 22 23 26 28 28 31 32 31 29 29 28 27 26 25 26 28 30 35 38 38 38 36
68 66 60 71 71 71 79 74 70 66 60 37 27 24 16 9 9 8 6 5 6 9 10 11 12 14 15 16 18 19 21 22 23 23 22 21 21 20 20 20 20 22 26 26 28 31 35
81 88 70 67 81 73 71 79 80 74 70 67 60 37 24 19 12 8 8 9 9 7 6 6 7 8 8 8 8 10 11 12 13 14 14 13 13 12 11 11 10 10 11 12 13 14 20
64 76 74 94 88 72 67 71 80 84 81 74 74 71 63 28 20 17 13 8 8 8 10 12 13 12 12 12 11 11 10 9 8 8 8 8 8 9 9 10 11 13 13 16 19 20 23

GFSGBSN_500_rhum_129.txt.gz
RH
21 43 51 36 61 73 68 41 44 90 67 61 74 80 82 74 37 75 95 98 100 100 85 92 84 76 64 60 50 38 30 24 21 20 18 15 14 13 10 10 9 10 13 14 15 14 15
17 20 17 25 30 48 41 47 44 69 76 66 64 76 98 72 45 96 81 99 99 96 100 100 90 83 89 70 63 57 48 38 30 27 23 19 18 15 13 12 11 12 13 14 16 17 16
21 30 43 18 27 28 27 69 68 70 68 60 60 64 93 71 44 59 100 100 99 99 100 97 88 84 89 80 65 64 62 52 46 38 34 30 25 21 18 16 16 16 17 18 18 19 18
29 29 42 58 24 24 26 65 65 57 60 67 59 44 76 57 57 40 94 99 99 99 92 87 84 80 70 68 77 74 66 62 57 51 46 41 37 34 32 30 29 29 29 31 28 29 26
34 32 46 62 59 48 34 66 43 47 54 58 66 78 65 52 52 50 69 98 98 100 90 83 71 66 70 72 70 68 68 63 58 60 62 58 51 49 50 48 44 40 36 31 28 25 22
18 38 45 63 81 79 95 67 42 69 100 92 57 64 64 38 52 65 55 86 96 98 85 74 72 78 69 68 66 68 69 67 65 63 60 54 49 45 41 36 30 25 22 18 14 12 10
16 22 34 51 78 70 81 98 100 100 100 96 98 95 56 81 77 93 68 67 73 58 66 76 84 72 66 64 65 68 66 64 60 56 51 43 34 27 21 17 14 11 10 9 8 8 7
11 18 27 32 49 83 76 86 99 100 100 94 94 95 100 100 100 98 93 75 80 88 80 85 74 65 61 64 64 64 59 55 43 32 23 17 13 11 9 9 8 8 9 10 15 18 25
9 13 20 25 27 40 79 66 79 97 99 96 78 83 97 100 96 98 100 95 91 92 81 68 70 71 65 62 56 44 31 22 14 11 10 10 12 14 14 17 18 25 28 33 43 49 36
8 9 12 23 21 24 39 66 65 77 93 96 100 92 76 53 80 92 86 91 82 68 70 67 66 56 48 34 20 13 11 10 10 14 17 19 18 18 16 19 25 36 51 55 44 47 38
8 8 10 12 21 17 23 34 58 56 66 84 98 95 99 100 89 89 83 77 73 69 59 52 42 29 19 15 12 14 17 19 19 20 22 25 27 25 25 27 38 51 45 47 48 56 58
7 7 8 9 9 16 15 24 28 40 50 59 68 86 92 85 75 74 78 74 60 48 34 27 18 16 14 16 17 18 20 24 30 40 43 48 40 38 40 44 48 49 51 61 75 67 74
11 6 7 8 8 7 10 14 20 27 31 36 47 56 62 58 58 59 52 42 34 24 20 16 14 15 17 17 19 25 33 52 58 54 57 58 53 48 44 50 65 78 68 72 67 72 76
14 8 6 8 8 9 8 8 10 13 16 24 28 26 34 41 26 25 23 20 18 17 14 15 18 18 22 32 42 44 47 42 34 34 43 42 41 48 54 64 68 62 62 59 58 62 70
6 14 7 7 8 10 10 9 8 8 9 16 26 28 20 26 21 18 16 15 13 16 18 16 19 33 35 26 24 23 21 19 18 22 24 28 36 51 54 60 61 59 66 59 61 66 77
24 6 14 6 7 9 12 11 9 9 9 10 10 12 15 14 13 14 14 17 18 18 20 24 26 23 24 24 21 17 15 14 13 14 22 26 32 51 53 56 52 55 56 52 49 55 55
91 22 7 14 6 7 10 10 11 10 11 11 12 13 14 15 16 16 16 17 18 20 21 22 22 23 20 14 10 8 8 7 7 8 10 17 27 40 44 39 33 21 22 48 38 34 35
98 78 23 7 15 7 6 9 10 11 10 10 11 13 12 12 13 14 16 16 16 17 17 18 20 20 12 8 8 8 8 8 9 9 8 8 8 8 8 8 8 9 9 9 10 11 11
92 89 62 25 6 15 10 6 7 8 9 10 11 11 11 11 11 12 13 14 16 19 22 21 16 11 8 8 8 8 9 10 10 11 11 11 10 11 11 11 11 11 11 11 11 11 10
86 83 74 51 23 5 13 13 9 6 5 6 6 7 8 10 11 9 9 11 11 11 13 13 12 10 7 7 8 8 9 9 10 11 12 13 13 13 13 12 12 12 11 10 9 10 10
73 90 76 59 48 23 6 9 14 12 9 6 6 5 5 5 5 6 6 6 5 5 6 6 6 6 7 7 8 9 10 11 12 13 14 15 16 15 15 15 14 13 12 12 11 8 5
63 76 82 69 52 45 24 9 6 8 14 13 11 8 6 5 5 5 6 6 6 6 6 6 7 7 8 9 10 11 12 14 17 20 24 24 24 23 22 21 19 14 12 12 12 11 9
58 62 88 73 68 54 43 32 14 7 6 8 12 13 13 12 10 9 8 8 8 8 8 8 9 10 12 12 15 18 21 24 27 30 31 31 32 29 27 28 27 27 24 23 19 15 15
62 62 68 81 71 70 62 46 35 23 12 8 6 7 10 13 13 14 14 15 15 15 15 15 15 16 18 19 20 23 26 30 31 33 33 32 29 29 30 29 30 32 32 32 31 30 29
69 74 89 68 81 77 73 66 54 40 30 21 13 9 7 6 8 10 11 13 16 16 18 18 18 19 20 22 24 26 28 28 31 32 30 29 28 24 23 23 24 26 28 30 30 34 35
86 81 90 69 77 84 86 81 72 64 50 38 33 25 19 11 9 7 6 6 8 10 13 14 16 19 20 20 19 19 22 22 23 24 24 23 22 20 20 18 18 18 20 20 20 22 24
66 89 94 90 90 90 85 89 84 81 70 65 55 43 35 27 26 17 10 10 8 7 6 7 10 10 10 10 10 11 11 11 11 13 14 15 16 15 14 13 12 11 10 10 12 12 12
55 52 64 73 88 94 84 90 93 81 82 81 71 67 62 54 43 34 24 19 11 9 9 10 10 8 7 7 7 8 8 8 8 8 8 8 8 8 9 8 9 9 9 10 11 13 15
64 61 52 58 61 74 89 96 93 85 82 81 86 80 76 73 71 59 48 30 27 23 15 10 8 8 9 10 11 10 10 10 12 14 16 17 17 15 13 17 18 14 14 18 24 29 33

GFSGBSN_500_rhum_132.txt.gz
RH
68 67 58 37 58 60 54 84 100 92 89 72 70 97 46 39 74 87 92 99 100 99 87 78 81 51 49 44 37 27 22 19 17 15 13 11 9 8 7 7 6 6 6 6 6 6 6
64 65 71 55 42 47 37 41 72 63 52 56 59 93 85 44 77 98 99 100 100 97 79 78 81 63 53 49 42 39 32 27 25 22 18 14 11 10 9 9 7 7 6 7 6 5 6
40 63 76 71 38 29 34 47 28 28 34 42 48 59 54 48 94 96 95 100 96 89 93 87 75 69 63 58 51 50 48 47 43 38 32 25 21 17 14 13 14 14 14 15 13 13 13
32 55 75 84 96 54 81 63 57 54 36 32 55 87 81 51 84 100 100 100 99 95 86 75 68 72 71 68 64 60 60 58 55 50 46 43 41 40 39 35 34 31 32 30 23 29 27
21 38 68 84 100 100 100 100 99 52 54 37 54 68 61 62 45 80 98 100 99 98 97 77 68 66 70 76 76 73 67 62 59 56 53 50 46 45 46 45 40 38 36 32 27 27 27
11 25 35 70 88 98 100 100 100 75 49 64 55 51 55 80 53 78 96 96 100 94 81 67 66 64 64 68 68 70 73 74 70 61 54 52 50 47 42 38 34 32 30 28 24 21 18
10 16 27 51 71 85 83 81 98 85 79 74 58 43 37 46 41 100 96 100 76 68 71 65 61 61 54 54 51 51 53 54 53 52 48 46 42 41 36 30 24 19 14 12 10 8 7
10 10 19 28 63 71 80 84 83 100 74 52 46 39 37 33 44 91 98 99 91 74 75 62 57 50 44 46 49 51 51 50 48 46 40 32 25 19 14 11 9 8 7 6 8 12 13
9 8 10 22 30 56 72 82 92 70 94 86 74 44 54 71 42 40 92 95 82 63 60 48 38 38 47 47 49 50 41 35 27 20 15 12 11 9 8 8 8 10 23 26 22 28 23
8 9 8 10 22 25 46 66 72 78 74 86 96 100 96 58 49 45 40 42 49 50 45 44 51 54 52 46 34 26 19 13 11 10 10 11 12 12 11 16 20 31 34 35 30 28 40
8 9 8 8 9 20 22 41 55 72 81 55 68 93 95 97 44 41 40 46 50 39 45 45 49 41 30 18 14 11 11 11 16 18 15 20 19 21 23 30 41 41 37 41 50 47 49
6 8 9 7 8 9 17 22 33 51 68 76 79 80 71 66 71 67 54 38 40 54 43 44 27 19 15 14 16 18 20 20 21 24 31 38 34 34 38 41 39 46 48 55 50 53 56
11 7 10 8 7 8 11 16 20 26 34 46 54 59 61 64 61 62 60 55 40 30 24 16 13 14 20 24 29 35 43 44 46 43 50 44 38 36 37 42 53 49 47 49 44 55 56
13 7 8 9 8 8 9 9 12 16 20 18 35 25 26 38 39 31 22 18 15 14 12 13 21 24 34 32 31 30 28 28 32 35 38 37 34 35 42 47 47 46 47 43 47 57 59
12 15 7 9 8 9 10 10 9 10 10 14 22 15 14 15 14 14 14 13 16 19 22 27 28 21 17 15 17 15 16 18 22 24 27 33 37 36 43 44 42 46 44 34 39 53 48
67 9 15 7 9 10 10 10 12 11 10 10 10 10 11 12 14 16 17 18 21 23 22 18 15 15 12 13 13 11 10 9 14 20 23 27 38 41 40 44 37 23 13 28 21 23 26
97 60 8 14 6 8 10 10 11 12 13 13 13 14 14 15 15 15 15 17 18 19 20 20 18 14 10 7 6 6 7 7 7 10 14 14 16 14 12 10 8 9 9 10 11 11 13
96 97 50 6 14 8 6 8 11 10 11 12 12 12 12 12 12 13 12 13 15 16 18 18 15 10 7 7 7 8 9 9 10 10 10 10 10 11 11 10 10 10 10 10 10 10 8
92 96 99 43 6 13 11 6 6 7 6 10 11 10 9 10 10 10 9 8 9 8 8 8 7 7 7 7 8 9 9 10 11 11 11 12 11 11 12 12 11 11 10 8 7 7 7
86 94 96 100 47 9 10 12 9 6 5 5 6 7 7 6 6 6 6 6 6 6 6 6 6 6 7 7 8 8 9 11 12 13 15 16 16 17 16 14 12 10 10 10 8 5 5
79 87 94 95 95 51 14 6 10 12 9 6 5 5 5 5 5 5 5 5 5 5 5 5 6 6 6 7 8 10 11 14 17 21 26 28 30 27 26 25 22 18 14 13 12 11 7
77 74 70 95 93 83 54 27 7 7 11 12 11 8 6 5 5 5 6 6 6 7 7 7 7 8 9 10 12 15 19 22 26 29 32 34 35 34 32 31 31 32 29 30 28 24 21
94 86 70 74 95 95 84 62 40 19 7 7 11 12 12 12 11 10 9 8 8 8 8 9 11 13 15 17 18 19 22 24 27 29 31 33 32 31 33 28 29 30 31 32 31 31 32
96 91 76 87 90 92 93 89 71 51 35 16 8 6 8 12 12 13 14 15 15 15 16 16 17 18 19 20 21 22 25 25 28 29 29 27 26 26 24 23 22 23 24 25 26 27 28
81 70 91 94 95 92 93 95 92 77 70 49 36 23 11 7 6 6 8 10 11 13 15 16 16 17 19 19 20 20 22 22 23 24 24 23 23 22 20 19 18 19 20 19 20 22 20
86 65 65 87 91 95 93 89 95 91 84 81 76 58 44 35 22 14 9 7 6 6 7 8 9 9 11 12 13 12 12 14 14 14 14 13 13 13 13 12 12 12 13 13 11 10 14
85 68 61 70 95 98 96 95 94 95 90 90 87 83 76 68 55 43 34 28 18 12 9 9 8 8 7 7 7 7 7 7 8 8 8 8 8 8 8 9 9 8 9 9 9 9 10
71 69 75 61 62 66 67 72 94 95 94 94 83 82 83 87 91 80 70 61 46 37 27 20 15 11 10 10 9 9 9 9 10 10 12 12 11 12 12 11 13 13 14 15 14 13 14
67 73 70 65 62 72 62 64 65 67 82 95 96 85 77 79 89 95 89 83 75 74 63 49 47 33 23 18 14 12 11 10 9 6 8 6 7 6 8 9 10 8 8 8 9 16 21

GFSGBSN_500_rhum_135.txt.gz
RH
65 95 67 25 24 27 59 63 57 74 86 66 76 73 91 95 100 99 98 96 78 73 74 66 58 39 38 32 28 19 15 13 11 10 8 8 8 8 7 6 5 5 6 5 6 7 6
56 97 86 74 44 23 42 64 50 48 48 62 65 60 59 100 100 100 88 89 79 74 55 56 63 49 37 38 33 32 24 20 15 13 11 10 8 8 7 7 6 6 5 5 5 4 4
42 84 82 94 98 81 46 30 38 34 35 35 62 56 52 100 98 89 98 99 96 86 67 62 76 62 46 40 36 35 34 30 25 22 21 20 18 16 12 9 8 7 7 5 5 6 7
35 70 89 76 100 97 100 64 35 27 26 36 50 74 62 98 100 95 95 97 95 74 58 50 48 64 65 50 41 39 39 38 38 38 39 38 35 32 30 28 25 20 19 18 19 18 17
22 56 88 82 100 74 60 54 32 35 37 66 52 52 36 72 100 94 97 99 86 66 75 72 74 68 56 52 48 44 47 47 46 44 42 41 40 38 37 36 34 32 29 27 26 26 22
15 26 77 91 88 75 52 40 34 32 57 63 63 81 39 83 89 100 99 96 89 84 82 77 69 64 57 57 62 60 56 54 52 51 50 50 49 47 45 44 42 38 33 28 24 20 19
9 21 43 76 62 87 47 56 28 38 44 44 49 47 57 98 96 99 88 78 80 76 65 65 64 56 56 54 58 62 62 64 63 62 64 61 54 51 46 38 33 29 25 20 15 12 12
10 11 24 58 76 65 65 72 42 32 32 32 37 76 96 91 84 97 88 90 88 65 48 38 36 38 41 42 45 49 50 51 50 53 51 48 42 38 33 26 20 16 12 9 8 8 8
7 9 16 31 66 63 57 66 65 44 34 27 26 28 62 88 93 85 60 66 58 47 39 38 38 35 37 35 37 41 37 42 42 42 39 32 25 20 15 12 9 8 8 10 14 21 16
7 8 10 17 37 60 50 53 59 63 51 65 36 29 80 65 89 72 53 43 40 32 28 34 34 36 33 35 36 42 40 33 29 20 15 12 10 9 8 9 10 13 23 22 22 27 32
8 8 8 10 19 37 52 57 44 68 61 57 35 24 32 58 65 69 59 36 34 23 38 33 35 32 38 39 26 24 17 11 10 10 11 13 14 16 20 23 34 34 31 31 40 34 32
8 10 9 8 8 14 24 46 49 54 58 70 52 33 26 26 27 34 34 36 38 44 38 44 42 31 19 13 11 12 12 14 15 19 19 20 24 29 34 36 38 43 44 43 34 31 38
10 8 10 10 9 9 10 16 41 46 47 46 58 64 57 54 52 43 37 45 48 38 39 26 18 10 11 14 18 24 25 21 21 26 29 28 29 31 35 42 39 36 36 30 33 39 43
11 9 9 9 11 10 9 10 20 27 15 38 44 44 44 46 48 33 35 28 22 17 12 13 19 23 26 27 26 25 24 25 27 28 28 29 31 29 30 32 34 31 31 25 18 30 32
31 12 8 9 10 11 11 10 9 9 9 10 14 17 16 15 18 15 11 12 15 18 21 20 17 16 16 16 16 15 17 20 22 27 28 29 32 36 34 33 27 22 10 11 17 23 27
93 25 12 9 7 9 11 13 12 11 11 11 12 13 14 14 15 16 16 16 15 15 14 14 13 13 11 9 7 6 7 11 16 21 26 28 33 25 23 14 8 7 8 10 12 17 19
85 90 19 11 12 6 6 10 11 12 14 12 12 13 13 13 12 13 13 13 12 11 10 9 7 6 5 6 7 7 7 7 7 6 6 6 7 8 8 8 7 8 7 8 11 11 9
93 91 87 17 10 13 6 5 6 8 8 12 11 9 10 9 8 9 9 7 7 7 7 6 5 5 5 7 8 9 9 9 9 9 9 9 10 10 10 10 10 9 8 6 6 8 8
78 92 96 88 25 8 13 9 5 5 5 5 6 7 7 7 6 6 7 7 7 6 6 6 5 6 6 7 8 8 9 9 10 11 12 12 13 13 14 14 11 10 10 8 6 5 6
57 97 94 97 90 37 7 11 12 8 5 4 4 4 5 5 4 5 5 5 5 5 6 6 6 6 6 7 8 8 9 12 16 21 24 26 25 25 24 23 21 17 14 13 12 10 7
45 90 96 95 97 95 55 11 7 13 13 8 6 5 4 4 4 4 4 4 4 5 5 5 6 6 7 8 9 12 16 21 24 26 29 31 32 30 29 30 31 32 32 30 30 27 22
47 62 95 96 84 96 97 78 31 7 8 12 14 11 8 7 6 5 5 6 6 6 6 7 7 8 10 12 15 18 21 24 27 31 30 31 30 30 31 26 27 28 28 30 33 34 34
45 73 100 97 91 85 95 96 95 52 24 8 7 11 12 12 12 12 12 11 10 11 11 11 12 13 15 16 17 18 21 24 25 27 30 30 28 24 25 25 23 21 21 22 24 25 26
65 73 94 92 90 83 94 96 95 99 76 48 28 12 6 8 10 10 13 13 13 14 15 15 15 16 18 17 18 19 19 20 21 22 22 22 22 20 17 20 18 17 17 16 17 18 17
64 81 90 88 72 85 91 90 96 97 95 88 79 58 40 22 12 8 6 8 8 8 10 10 10 9 10 12 13 14 16 15 15 15 15 15 12 11 9 9 9 10 10 10 10 11 12
65 83 88 90 73 67 77 88 92 94 94 96 89 83 88 80 60 44 35 25 16 10 7 6 6 6 7 7 7 7 7 7 8 8 8 8 8 8 9 10 10 12 10 9 9 10 10
69 88 84 90 78 70 70 88 81 84 92 95 95 95 90 97 97 85 87 77 63 45 36 29 19 14 12 10 9 8 9 9 9 10 11 11 11 11 10 6 6 9 10 8 9 10 10
78 76 94 85 92 91 83 78 76 74 67 71 77 83 92 96 96 96 95 96 90 83 81 72 64 53 39 33 29 20 12 11 11 10 10 10 9 8 6 6 6 7 6 6 5 7 7
90 95 95 85 74 73 71 75 74 76 68 68 67 61 57 65 87 94 96 90 92 93 92 91 87 80 80 83 74 63 44 28 30 27 24 16 12 10 8 8 12 6 4 5 5 6 6